<?xml version="1.0" encoding="UTF-8" standalone="no" ?>
<gpx xmlns="http://www.topografix.com/GPX/1/1" xmlns:xsi="http://www.w3.org/2001/XMLSchema-instance" xsi:schemaLocation="http://www.topografix.com/GPX/1/1 http://www.topografix.com/GPX/1/1/gpx.xsd" version="1.1" creator="VisuGPX - https://www.visugpx.com">
  <metadata>
    <name>Montflanquin Gravel</name>
    <desc><![CDATA[Hors asphalte gravel OK (testé avec Diverge 4, pneus 50mm)]]></desc>
  </metadata>
  <wpt lat="44.5662" lon="0.73317">
    <ele>120.6</ele>
    <name><![CDATA[David haut/bas]]></name>
  </wpt>
  <wpt lat="44.55013" lon="0.85946">
    <ele>126.4</ele>
  </wpt>
  <trk>
    <name><![CDATA[Belle jonction à travers les champs]]></name>
    <extensions>
      <line xmlns="http://www.topografix.com/GPX/gpx_style/0/2">
        <color>000088</color>
        <opacity>1</opacity>
        <width>4</width>
      </line>
    </extensions>
    <trkseg>
      <trkpt lat="44.5303" lon="0.77042">
        <ele>141.2</ele>
        <time>2026-08-15T08:32:15Z</time>
      </trkpt>
      <trkpt lat="44.53026" lon="0.77042">
        <ele>141.4</ele>
        <time>2026-08-15T08:32:16Z</time>
      </trkpt>
      <trkpt lat="44.53022" lon="0.77044">
        <ele>141.4</ele>
        <time>2026-08-15T08:32:17Z</time>
      </trkpt>
      <trkpt lat="44.53018" lon="0.77048">
        <ele>141.6</ele>
        <time>2026-08-15T08:32:18Z</time>
      </trkpt>
      <trkpt lat="44.53011" lon="0.77055">
        <ele>141.2</ele>
        <time>2026-08-15T08:32:19Z</time>
      </trkpt>
      <trkpt lat="44.53004" lon="0.77061">
        <ele>140.6</ele>
        <time>2026-08-15T08:32:20Z</time>
      </trkpt>
      <trkpt lat="44.52997" lon="0.77068">
        <ele>140</ele>
        <time>2026-08-15T08:32:21Z</time>
      </trkpt>
      <trkpt lat="44.52989" lon="0.77076">
        <ele>139</ele>
        <time>2026-08-15T08:32:22Z</time>
      </trkpt>
      <trkpt lat="44.52981" lon="0.77084">
        <ele>138</ele>
        <time>2026-08-15T08:32:23Z</time>
      </trkpt>
      <trkpt lat="44.52973" lon="0.77095">
        <ele>136.8</ele>
        <time>2026-08-15T08:32:24Z</time>
      </trkpt>
      <trkpt lat="44.52966" lon="0.77106">
        <ele>135.6</ele>
        <time>2026-08-15T08:32:25Z</time>
      </trkpt>
      <trkpt lat="44.5296" lon="0.7712">
        <ele>134.6</ele>
        <time>2026-08-15T08:32:26Z</time>
      </trkpt>
      <trkpt lat="44.52954" lon="0.77135">
        <ele>133.4</ele>
        <time>2026-08-15T08:32:27Z</time>
      </trkpt>
      <trkpt lat="44.52949" lon="0.77152">
        <ele>132</ele>
        <time>2026-08-15T08:32:28Z</time>
      </trkpt>
      <trkpt lat="44.52942" lon="0.77168">
        <ele>130.6</ele>
        <time>2026-08-15T08:32:29Z</time>
      </trkpt>
      <trkpt lat="44.52935" lon="0.77185">
        <ele>128.6</ele>
        <time>2026-08-15T08:32:30Z</time>
      </trkpt>
      <trkpt lat="44.52928" lon="0.77201">
        <ele>126.6</ele>
        <time>2026-08-15T08:32:31Z</time>
      </trkpt>
      <trkpt lat="44.5292" lon="0.77216">
        <ele>125</ele>
        <time>2026-08-15T08:32:32Z</time>
      </trkpt>
      <trkpt lat="44.52912" lon="0.77232">
        <ele>123.6</ele>
        <time>2026-08-15T08:32:33Z</time>
      </trkpt>
      <trkpt lat="44.52906" lon="0.77248">
        <ele>122.6</ele>
        <time>2026-08-15T08:32:34Z</time>
      </trkpt>
      <trkpt lat="44.52903" lon="0.77264">
        <ele>121.6</ele>
        <time>2026-08-15T08:32:35Z</time>
      </trkpt>
      <trkpt lat="44.52902" lon="0.77281">
        <ele>121.2</ele>
        <time>2026-08-15T08:32:36Z</time>
      </trkpt>
      <trkpt lat="44.52901" lon="0.77296">
        <ele>120.8</ele>
        <time>2026-08-15T08:32:37Z</time>
      </trkpt>
      <trkpt lat="44.529" lon="0.7731">
        <ele>120.6</ele>
        <time>2026-08-15T08:32:38Z</time>
      </trkpt>
      <trkpt lat="44.52898" lon="0.77323">
        <ele>120.4</ele>
        <time>2026-08-15T08:32:39Z</time>
      </trkpt>
      <trkpt lat="44.52894" lon="0.77333">
        <ele>120.2</ele>
        <time>2026-08-15T08:32:40Z</time>
      </trkpt>
      <trkpt lat="44.52888" lon="0.77341">
        <ele>120.2</ele>
        <time>2026-08-15T08:32:41Z</time>
      </trkpt>
      <trkpt lat="44.52882" lon="0.77348">
        <ele>120.2</ele>
        <time>2026-08-15T08:32:42Z</time>
      </trkpt>
      <trkpt lat="44.52875" lon="0.77354">
        <ele>120.2</ele>
        <time>2026-08-15T08:32:43Z</time>
      </trkpt>
      <trkpt lat="44.52869" lon="0.7736">
        <ele>120.2</ele>
        <time>2026-08-15T08:32:44Z</time>
      </trkpt>
      <trkpt lat="44.52862" lon="0.77364">
        <ele>120.4</ele>
        <time>2026-08-15T08:32:45Z</time>
      </trkpt>
      <trkpt lat="44.52855" lon="0.77368">
        <ele>120.4</ele>
        <time>2026-08-15T08:32:46Z</time>
      </trkpt>
      <trkpt lat="44.52849" lon="0.77371">
        <ele>120.6</ele>
        <time>2026-08-15T08:32:47Z</time>
      </trkpt>
      <trkpt lat="44.52842" lon="0.77374">
        <ele>120.6</ele>
        <time>2026-08-15T08:32:48Z</time>
      </trkpt>
      <trkpt lat="44.52836" lon="0.77376">
        <ele>120.8</ele>
        <time>2026-08-15T08:32:49Z</time>
      </trkpt>
      <trkpt lat="44.5283" lon="0.77377">
        <ele>121</ele>
        <time>2026-08-15T08:32:50Z</time>
      </trkpt>
      <trkpt lat="44.52824" lon="0.77379">
        <ele>120.8</ele>
        <time>2026-08-15T08:32:51Z</time>
      </trkpt>
      <trkpt lat="44.52818" lon="0.7738">
        <ele>120.8</ele>
        <time>2026-08-15T08:32:52Z</time>
      </trkpt>
      <trkpt lat="44.52813" lon="0.77382">
        <ele>120.6</ele>
        <time>2026-08-15T08:32:53Z</time>
      </trkpt>
      <trkpt lat="44.52808" lon="0.77383">
        <ele>120.6</ele>
        <time>2026-08-15T08:32:54Z</time>
      </trkpt>
      <trkpt lat="44.52806" lon="0.77384">
        <ele>120.4</ele>
        <time>2026-08-15T08:32:55Z</time>
      </trkpt>
      <trkpt lat="44.52803" lon="0.77387">
        <ele>120</ele>
        <time>2026-08-15T08:32:56Z</time>
      </trkpt>
      <trkpt lat="44.528" lon="0.77391">
        <ele>119.8</ele>
        <time>2026-08-15T08:32:57Z</time>
      </trkpt>
      <trkpt lat="44.52798" lon="0.77396">
        <ele>119.2</ele>
        <time>2026-08-15T08:32:58Z</time>
      </trkpt>
      <trkpt lat="44.52795" lon="0.77403">
        <ele>118.8</ele>
        <time>2026-08-15T08:32:59Z</time>
      </trkpt>
      <trkpt lat="44.52791" lon="0.77413">
        <ele>118.4</ele>
        <time>2026-08-15T08:33:00Z</time>
      </trkpt>
      <trkpt lat="44.52787" lon="0.77422">
        <ele>117.6</ele>
        <time>2026-08-15T08:33:01Z</time>
      </trkpt>
      <trkpt lat="44.52783" lon="0.77432">
        <ele>117</ele>
        <time>2026-08-15T08:33:02Z</time>
      </trkpt>
      <trkpt lat="44.52779" lon="0.77441">
        <ele>116.6</ele>
        <time>2026-08-15T08:33:03Z</time>
      </trkpt>
      <trkpt lat="44.52775" lon="0.7745">
        <ele>116</ele>
        <time>2026-08-15T08:33:04Z</time>
      </trkpt>
      <trkpt lat="44.52771" lon="0.77458">
        <ele>115.6</ele>
        <time>2026-08-15T08:33:05Z</time>
      </trkpt>
      <trkpt lat="44.52766" lon="0.77466">
        <ele>115.2</ele>
        <time>2026-08-15T08:33:06Z</time>
      </trkpt>
      <trkpt lat="44.52762" lon="0.77473">
        <ele>114.4</ele>
        <time>2026-08-15T08:33:07Z</time>
      </trkpt>
      <trkpt lat="44.52756" lon="0.7748">
        <ele>113.4</ele>
        <time>2026-08-15T08:33:08Z</time>
      </trkpt>
      <trkpt lat="44.52751" lon="0.77485">
        <ele>112.6</ele>
        <time>2026-08-15T08:33:09Z</time>
      </trkpt>
      <trkpt lat="44.52745" lon="0.77491">
        <ele>112</ele>
        <time>2026-08-15T08:33:10Z</time>
      </trkpt>
      <trkpt lat="44.52739" lon="0.77495">
        <ele>111.4</ele>
        <time>2026-08-15T08:33:11Z</time>
      </trkpt>
      <trkpt lat="44.52734" lon="0.775">
        <ele>110.8</ele>
        <time>2026-08-15T08:33:12Z</time>
      </trkpt>
      <trkpt lat="44.52728" lon="0.77505">
        <ele>110.6</ele>
        <time>2026-08-15T08:33:13Z</time>
      </trkpt>
      <trkpt lat="44.52722" lon="0.7751">
        <ele>110.2</ele>
        <time>2026-08-15T08:33:14Z</time>
      </trkpt>
      <trkpt lat="44.52717" lon="0.77514">
        <ele>110</ele>
        <time>2026-08-15T08:33:15Z</time>
      </trkpt>
      <trkpt lat="44.52711" lon="0.77519">
        <ele>109.6</ele>
        <time>2026-08-15T08:33:16Z</time>
      </trkpt>
      <trkpt lat="44.52705" lon="0.77524">
        <ele>109.2</ele>
        <time>2026-08-15T08:33:17Z</time>
      </trkpt>
      <trkpt lat="44.52699" lon="0.77529">
        <ele>108.6</ele>
        <time>2026-08-15T08:33:18Z</time>
      </trkpt>
      <trkpt lat="44.52694" lon="0.77534">
        <ele>108.4</ele>
        <time>2026-08-15T08:33:19Z</time>
      </trkpt>
      <trkpt lat="44.52688" lon="0.77539">
        <ele>108.2</ele>
        <time>2026-08-15T08:33:20Z</time>
      </trkpt>
      <trkpt lat="44.52682" lon="0.77544">
        <ele>108</ele>
        <time>2026-08-15T08:33:21Z</time>
      </trkpt>
      <trkpt lat="44.52676" lon="0.77549">
        <ele>108</ele>
        <time>2026-08-15T08:33:22Z</time>
      </trkpt>
      <trkpt lat="44.52669" lon="0.77553">
        <ele>108</ele>
        <time>2026-08-15T08:33:23Z</time>
      </trkpt>
      <trkpt lat="44.52663" lon="0.77557">
        <ele>107.8</ele>
        <time>2026-08-15T08:33:24Z</time>
      </trkpt>
      <trkpt lat="44.52657" lon="0.7756">
        <ele>107.6</ele>
        <time>2026-08-15T08:33:25Z</time>
      </trkpt>
      <trkpt lat="44.5265" lon="0.77563">
        <ele>107.4</ele>
        <time>2026-08-15T08:33:26Z</time>
      </trkpt>
      <trkpt lat="44.52644" lon="0.77566">
        <ele>107</ele>
        <time>2026-08-15T08:33:27Z</time>
      </trkpt>
      <trkpt lat="44.52637" lon="0.77568">
        <ele>107</ele>
        <time>2026-08-15T08:33:28Z</time>
      </trkpt>
      <trkpt lat="44.5263" lon="0.77569">
        <ele>107</ele>
        <time>2026-08-15T08:33:29Z</time>
      </trkpt>
      <trkpt lat="44.52623" lon="0.77571">
        <ele>107</ele>
        <time>2026-08-15T08:33:30Z</time>
      </trkpt>
      <trkpt lat="44.52617" lon="0.77571">
        <ele>106.6</ele>
        <time>2026-08-15T08:33:31Z</time>
      </trkpt>
      <trkpt lat="44.5261" lon="0.77571">
        <ele>106</ele>
        <time>2026-08-15T08:33:32Z</time>
      </trkpt>
      <trkpt lat="44.52603" lon="0.77571">
        <ele>106</ele>
        <time>2026-08-15T08:33:33Z</time>
      </trkpt>
      <trkpt lat="44.52596" lon="0.77571">
        <ele>105.6</ele>
        <time>2026-08-15T08:33:34Z</time>
      </trkpt>
      <trkpt lat="44.5259" lon="0.7757">
        <ele>105.6</ele>
        <time>2026-08-15T08:33:35Z</time>
      </trkpt>
      <trkpt lat="44.52584" lon="0.7757">
        <ele>105.4</ele>
        <time>2026-08-15T08:33:36Z</time>
      </trkpt>
      <trkpt lat="44.52578" lon="0.77568">
        <ele>105</ele>
        <time>2026-08-15T08:33:37Z</time>
      </trkpt>
      <trkpt lat="44.52571" lon="0.77568">
        <ele>105</ele>
        <time>2026-08-15T08:33:38Z</time>
      </trkpt>
      <trkpt lat="44.52565" lon="0.77567">
        <ele>105</ele>
        <time>2026-08-15T08:33:39Z</time>
      </trkpt>
      <trkpt lat="44.52558" lon="0.77567">
        <ele>105</ele>
        <time>2026-08-15T08:33:40Z</time>
      </trkpt>
      <trkpt lat="44.52552" lon="0.77567">
        <ele>104.8</ele>
        <time>2026-08-15T08:33:41Z</time>
      </trkpt>
      <trkpt lat="44.52545" lon="0.77568">
        <ele>104.6</ele>
        <time>2026-08-15T08:33:42Z</time>
      </trkpt>
      <trkpt lat="44.52538" lon="0.77569">
        <ele>104.4</ele>
        <time>2026-08-15T08:33:43Z</time>
      </trkpt>
      <trkpt lat="44.52532" lon="0.7757">
        <ele>104.2</ele>
        <time>2026-08-15T08:33:44Z</time>
      </trkpt>
      <trkpt lat="44.52525" lon="0.77571">
        <ele>104</ele>
        <time>2026-08-15T08:33:45Z</time>
      </trkpt>
      <trkpt lat="44.52518" lon="0.77571">
        <ele>104</ele>
        <time>2026-08-15T08:33:46Z</time>
      </trkpt>
      <trkpt lat="44.52511" lon="0.77572">
        <ele>104</ele>
        <time>2026-08-15T08:33:47Z</time>
      </trkpt>
      <trkpt lat="44.52504" lon="0.77573">
        <ele>104</ele>
        <time>2026-08-15T08:33:48Z</time>
      </trkpt>
      <trkpt lat="44.52497" lon="0.77574">
        <ele>103.8</ele>
        <time>2026-08-15T08:33:49Z</time>
      </trkpt>
      <trkpt lat="44.5249" lon="0.77576">
        <ele>103.6</ele>
        <time>2026-08-15T08:33:50Z</time>
      </trkpt>
      <trkpt lat="44.52483" lon="0.77577">
        <ele>103.6</ele>
        <time>2026-08-15T08:33:51Z</time>
      </trkpt>
      <trkpt lat="44.52476" lon="0.77578">
        <ele>103.6</ele>
        <time>2026-08-15T08:33:52Z</time>
      </trkpt>
      <trkpt lat="44.5247" lon="0.77579">
        <ele>103.4</ele>
        <time>2026-08-15T08:33:53Z</time>
      </trkpt>
      <trkpt lat="44.52463" lon="0.77579">
        <ele>103.2</ele>
        <time>2026-08-15T08:33:54Z</time>
      </trkpt>
      <trkpt lat="44.52457" lon="0.7758">
        <ele>103</ele>
        <time>2026-08-15T08:33:55Z</time>
      </trkpt>
      <trkpt lat="44.5245" lon="0.7758">
        <ele>102.8</ele>
        <time>2026-08-15T08:33:56Z</time>
      </trkpt>
      <trkpt lat="44.52443" lon="0.7758">
        <ele>102.6</ele>
        <time>2026-08-15T08:33:57Z</time>
      </trkpt>
      <trkpt lat="44.52437" lon="0.7758">
        <ele>102.6</ele>
        <time>2026-08-15T08:33:58Z</time>
      </trkpt>
      <trkpt lat="44.52431" lon="0.7758">
        <ele>102.6</ele>
        <time>2026-08-15T08:33:59Z</time>
      </trkpt>
      <trkpt lat="44.52425" lon="0.77581">
        <ele>102.6</ele>
        <time>2026-08-15T08:34:00Z</time>
      </trkpt>
      <trkpt lat="44.52419" lon="0.77581">
        <ele>102.6</ele>
        <time>2026-08-15T08:34:01Z</time>
      </trkpt>
      <trkpt lat="44.52413" lon="0.77581">
        <ele>102.6</ele>
        <time>2026-08-15T08:34:02Z</time>
      </trkpt>
      <trkpt lat="44.52407" lon="0.77581">
        <ele>102.6</ele>
        <time>2026-08-15T08:34:03Z</time>
      </trkpt>
      <trkpt lat="44.52401" lon="0.77581">
        <ele>103</ele>
        <time>2026-08-15T08:34:04Z</time>
      </trkpt>
      <trkpt lat="44.52395" lon="0.77581">
        <ele>103</ele>
        <time>2026-08-15T08:34:05Z</time>
      </trkpt>
      <trkpt lat="44.5239" lon="0.7758">
        <ele>103</ele>
        <time>2026-08-15T08:34:06Z</time>
      </trkpt>
      <trkpt lat="44.52384" lon="0.7758">
        <ele>103</ele>
        <time>2026-08-15T08:34:07Z</time>
      </trkpt>
      <trkpt lat="44.52379" lon="0.7758">
        <ele>103</ele>
        <time>2026-08-15T08:34:08Z</time>
      </trkpt>
      <trkpt lat="44.52374" lon="0.77581">
        <ele>103.2</ele>
        <time>2026-08-15T08:34:09Z</time>
      </trkpt>
      <trkpt lat="44.52371" lon="0.77581">
        <ele>103.4</ele>
        <time>2026-08-15T08:34:10Z</time>
      </trkpt>
      <trkpt lat="44.52367" lon="0.77581">
        <ele>103.6</ele>
        <time>2026-08-15T08:34:11Z</time>
      </trkpt>
      <trkpt lat="44.52363" lon="0.77581">
        <ele>104</ele>
        <time>2026-08-15T08:34:12Z</time>
      </trkpt>
      <trkpt lat="44.5236" lon="0.77581">
        <ele>104.4</ele>
        <time>2026-08-15T08:34:13Z</time>
      </trkpt>
      <trkpt lat="44.52356" lon="0.7758">
        <ele>104.6</ele>
        <time>2026-08-15T08:34:14Z</time>
      </trkpt>
      <trkpt lat="44.52353" lon="0.7758">
        <ele>105</ele>
        <time>2026-08-15T08:34:15Z</time>
      </trkpt>
      <trkpt lat="44.5235" lon="0.7758">
        <ele>105</ele>
        <time>2026-08-15T08:34:16Z</time>
      </trkpt>
      <trkpt lat="44.52347" lon="0.7758">
        <ele>105.4</ele>
        <time>2026-08-15T08:34:17Z</time>
      </trkpt>
      <trkpt lat="44.52344" lon="0.7758">
        <ele>105.6</ele>
        <time>2026-08-15T08:34:18Z</time>
      </trkpt>
      <trkpt lat="44.52341" lon="0.7758">
        <ele>106</ele>
        <time>2026-08-15T08:34:19Z</time>
      </trkpt>
      <trkpt lat="44.52338" lon="0.7758">
        <ele>106.4</ele>
        <time>2026-08-15T08:34:20Z</time>
      </trkpt>
      <trkpt lat="44.52335" lon="0.7758">
        <ele>106.6</ele>
        <time>2026-08-15T08:34:21Z</time>
      </trkpt>
      <trkpt lat="44.52332" lon="0.7758">
        <ele>107</ele>
        <time>2026-08-15T08:34:22Z</time>
      </trkpt>
      <trkpt lat="44.52329" lon="0.7758">
        <ele>107.4</ele>
        <time>2026-08-15T08:34:23Z</time>
      </trkpt>
      <trkpt lat="44.52326" lon="0.77579">
        <ele>107.6</ele>
        <time>2026-08-15T08:34:24Z</time>
      </trkpt>
      <trkpt lat="44.52323" lon="0.77579">
        <ele>108</ele>
        <time>2026-08-15T08:34:25Z</time>
      </trkpt>
      <trkpt lat="44.52322" lon="0.77579">
        <ele>108.4</ele>
        <time>2026-08-15T08:34:26Z</time>
      </trkpt>
      <trkpt lat="44.52322" lon="0.77579">
        <ele>108.6</ele>
        <time>2026-08-15T08:34:27Z</time>
      </trkpt>
      <trkpt lat="44.52322" lon="0.77579">
        <ele>108.8</ele>
        <time>2026-08-15T08:34:28Z</time>
      </trkpt>
      <trkpt lat="44.52322" lon="0.77579">
        <ele>109</ele>
        <time>2026-08-15T08:34:29Z</time>
      </trkpt>
      <trkpt lat="44.52318" lon="0.77579">
        <ele>109</ele>
        <time>2026-08-15T08:34:54Z</time>
      </trkpt>
      <trkpt lat="44.52316" lon="0.77578">
        <ele>109.2</ele>
        <time>2026-08-15T08:34:55Z</time>
      </trkpt>
      <trkpt lat="44.52313" lon="0.77578">
        <ele>109.2</ele>
        <time>2026-08-15T08:34:56Z</time>
      </trkpt>
      <trkpt lat="44.5231" lon="0.77578">
        <ele>109.4</ele>
        <time>2026-08-15T08:34:57Z</time>
      </trkpt>
      <trkpt lat="44.52305" lon="0.77578">
        <ele>109.4</ele>
        <time>2026-08-15T08:34:58Z</time>
      </trkpt>
      <trkpt lat="44.52302" lon="0.77578">
        <ele>109.4</ele>
        <time>2026-08-15T08:34:59Z</time>
      </trkpt>
      <trkpt lat="44.52298" lon="0.77578">
        <ele>109.4</ele>
        <time>2026-08-15T08:35:00Z</time>
      </trkpt>
      <trkpt lat="44.52295" lon="0.77578">
        <ele>109.4</ele>
        <time>2026-08-15T08:35:01Z</time>
      </trkpt>
      <trkpt lat="44.52291" lon="0.77578">
        <ele>109.2</ele>
        <time>2026-08-15T08:35:02Z</time>
      </trkpt>
      <trkpt lat="44.52288" lon="0.77578">
        <ele>109.2</ele>
        <time>2026-08-15T08:35:03Z</time>
      </trkpt>
      <trkpt lat="44.52284" lon="0.77578">
        <ele>109.2</ele>
        <time>2026-08-15T08:35:04Z</time>
      </trkpt>
      <trkpt lat="44.5228" lon="0.77578">
        <ele>109</ele>
        <time>2026-08-15T08:35:05Z</time>
      </trkpt>
      <trkpt lat="44.52276" lon="0.77578">
        <ele>109</ele>
        <time>2026-08-15T08:35:06Z</time>
      </trkpt>
      <trkpt lat="44.52272" lon="0.77579">
        <ele>108.8</ele>
        <time>2026-08-15T08:35:07Z</time>
      </trkpt>
      <trkpt lat="44.52267" lon="0.77579">
        <ele>108.6</ele>
        <time>2026-08-15T08:35:08Z</time>
      </trkpt>
      <trkpt lat="44.52263" lon="0.7758">
        <ele>108.6</ele>
        <time>2026-08-15T08:35:09Z</time>
      </trkpt>
      <trkpt lat="44.52258" lon="0.7758">
        <ele>108.4</ele>
        <time>2026-08-15T08:35:10Z</time>
      </trkpt>
      <trkpt lat="44.52253" lon="0.7758">
        <ele>108</ele>
        <time>2026-08-15T08:35:11Z</time>
      </trkpt>
      <trkpt lat="44.52248" lon="0.7758">
        <ele>107.8</ele>
        <time>2026-08-15T08:35:12Z</time>
      </trkpt>
      <trkpt lat="44.52242" lon="0.7758">
        <ele>107.6</ele>
        <time>2026-08-15T08:35:13Z</time>
      </trkpt>
      <trkpt lat="44.52234" lon="0.7758">
        <ele>107.2</ele>
        <time>2026-08-15T08:35:14Z</time>
      </trkpt>
      <trkpt lat="44.52228" lon="0.7758">
        <ele>106.6</ele>
        <time>2026-08-15T08:35:15Z</time>
      </trkpt>
      <trkpt lat="44.52221" lon="0.7758">
        <ele>106</ele>
        <time>2026-08-15T08:35:16Z</time>
      </trkpt>
      <trkpt lat="44.52215" lon="0.77581">
        <ele>105.6</ele>
        <time>2026-08-15T08:35:17Z</time>
      </trkpt>
      <trkpt lat="44.52208" lon="0.77581">
        <ele>105</ele>
        <time>2026-08-15T08:35:18Z</time>
      </trkpt>
      <trkpt lat="44.52202" lon="0.77581">
        <ele>104.6</ele>
        <time>2026-08-15T08:35:19Z</time>
      </trkpt>
      <trkpt lat="44.52195" lon="0.77581">
        <ele>104.4</ele>
        <time>2026-08-15T08:35:20Z</time>
      </trkpt>
      <trkpt lat="44.52188" lon="0.77582">
        <ele>104</ele>
        <time>2026-08-15T08:35:21Z</time>
      </trkpt>
      <trkpt lat="44.52181" lon="0.77582">
        <ele>103.8</ele>
        <time>2026-08-15T08:35:22Z</time>
      </trkpt>
      <trkpt lat="44.52175" lon="0.77582">
        <ele>103.6</ele>
        <time>2026-08-15T08:35:23Z</time>
      </trkpt>
      <trkpt lat="44.52168" lon="0.77582">
        <ele>103.2</ele>
        <time>2026-08-15T08:35:24Z</time>
      </trkpt>
      <trkpt lat="44.52162" lon="0.77582">
        <ele>103</ele>
        <time>2026-08-15T08:35:25Z</time>
      </trkpt>
      <trkpt lat="44.52156" lon="0.77583">
        <ele>102.8</ele>
        <time>2026-08-15T08:35:26Z</time>
      </trkpt>
      <trkpt lat="44.5215" lon="0.77583">
        <ele>102.8</ele>
        <time>2026-08-15T08:35:27Z</time>
      </trkpt>
      <trkpt lat="44.52144" lon="0.77583">
        <ele>102.6</ele>
        <time>2026-08-15T08:35:28Z</time>
      </trkpt>
      <trkpt lat="44.52138" lon="0.77582">
        <ele>102.6</ele>
        <time>2026-08-15T08:35:29Z</time>
      </trkpt>
      <trkpt lat="44.52132" lon="0.77582">
        <ele>102.6</ele>
        <time>2026-08-15T08:35:30Z</time>
      </trkpt>
      <trkpt lat="44.52126" lon="0.77582">
        <ele>102.4</ele>
        <time>2026-08-15T08:35:31Z</time>
      </trkpt>
      <trkpt lat="44.5212" lon="0.77582">
        <ele>102</ele>
        <time>2026-08-15T08:35:32Z</time>
      </trkpt>
      <trkpt lat="44.52114" lon="0.77582">
        <ele>102</ele>
        <time>2026-08-15T08:35:33Z</time>
      </trkpt>
      <trkpt lat="44.52108" lon="0.77582">
        <ele>101.8</ele>
        <time>2026-08-15T08:35:34Z</time>
      </trkpt>
      <trkpt lat="44.52102" lon="0.77582">
        <ele>101.6</ele>
        <time>2026-08-15T08:35:35Z</time>
      </trkpt>
      <trkpt lat="44.52096" lon="0.77582">
        <ele>101.6</ele>
        <time>2026-08-15T08:35:36Z</time>
      </trkpt>
      <trkpt lat="44.52091" lon="0.77585">
        <ele>101.6</ele>
        <time>2026-08-15T08:35:37Z</time>
      </trkpt>
      <trkpt lat="44.52087" lon="0.7759">
        <ele>101.4</ele>
        <time>2026-08-15T08:35:38Z</time>
      </trkpt>
      <trkpt lat="44.52085" lon="0.77597">
        <ele>101.4</ele>
        <time>2026-08-15T08:35:39Z</time>
      </trkpt>
      <trkpt lat="44.52085" lon="0.77605">
        <ele>101.2</ele>
        <time>2026-08-15T08:35:40Z</time>
      </trkpt>
      <trkpt lat="44.52085" lon="0.77613">
        <ele>101</ele>
        <time>2026-08-15T08:35:41Z</time>
      </trkpt>
      <trkpt lat="44.52086" lon="0.77621">
        <ele>101</ele>
        <time>2026-08-15T08:35:42Z</time>
      </trkpt>
      <trkpt lat="44.52086" lon="0.77629">
        <ele>101</ele>
        <time>2026-08-15T08:35:43Z</time>
      </trkpt>
      <trkpt lat="44.52087" lon="0.77637">
        <ele>101.2</ele>
        <time>2026-08-15T08:35:44Z</time>
      </trkpt>
      <trkpt lat="44.52087" lon="0.77644">
        <ele>101.4</ele>
        <time>2026-08-15T08:35:45Z</time>
      </trkpt>
      <trkpt lat="44.52087" lon="0.77652">
        <ele>101.4</ele>
        <time>2026-08-15T08:35:46Z</time>
      </trkpt>
      <trkpt lat="44.52087" lon="0.77657">
        <ele>101.4</ele>
        <time>2026-08-15T08:35:47Z</time>
      </trkpt>
      <trkpt lat="44.52087" lon="0.77663">
        <ele>101.6</ele>
        <time>2026-08-15T08:35:48Z</time>
      </trkpt>
      <trkpt lat="44.52087" lon="0.77669">
        <ele>101.6</ele>
        <time>2026-08-15T08:35:49Z</time>
      </trkpt>
      <trkpt lat="44.52086" lon="0.77675">
        <ele>101.6</ele>
        <time>2026-08-15T08:35:50Z</time>
      </trkpt>
      <trkpt lat="44.52084" lon="0.77681">
        <ele>101.8</ele>
        <time>2026-08-15T08:35:51Z</time>
      </trkpt>
      <trkpt lat="44.52081" lon="0.77684">
        <ele>101.8</ele>
        <time>2026-08-15T08:35:52Z</time>
      </trkpt>
      <trkpt lat="44.52077" lon="0.77686">
        <ele>102</ele>
        <time>2026-08-15T08:35:53Z</time>
      </trkpt>
      <trkpt lat="44.52072" lon="0.77686">
        <ele>102</ele>
        <time>2026-08-15T08:35:54Z</time>
      </trkpt>
      <trkpt lat="44.52066" lon="0.77686">
        <ele>102</ele>
        <time>2026-08-15T08:35:55Z</time>
      </trkpt>
      <trkpt lat="44.5206" lon="0.77685">
        <ele>102</ele>
        <time>2026-08-15T08:35:56Z</time>
      </trkpt>
      <trkpt lat="44.52053" lon="0.77683">
        <ele>102</ele>
        <time>2026-08-15T08:35:57Z</time>
      </trkpt>
      <trkpt lat="44.52047" lon="0.77682">
        <ele>101.6</ele>
        <time>2026-08-15T08:35:58Z</time>
      </trkpt>
      <trkpt lat="44.52041" lon="0.77681">
        <ele>101.6</ele>
        <time>2026-08-15T08:35:59Z</time>
      </trkpt>
      <trkpt lat="44.52035" lon="0.77681">
        <ele>101.6</ele>
        <time>2026-08-15T08:36:00Z</time>
      </trkpt>
      <trkpt lat="44.52029" lon="0.7768">
        <ele>101.2</ele>
        <time>2026-08-15T08:36:01Z</time>
      </trkpt>
      <trkpt lat="44.52024" lon="0.7768">
        <ele>101</ele>
        <time>2026-08-15T08:36:02Z</time>
      </trkpt>
      <trkpt lat="44.52018" lon="0.7768">
        <ele>101</ele>
        <time>2026-08-15T08:36:03Z</time>
      </trkpt>
      <trkpt lat="44.52012" lon="0.7768">
        <ele>100.8</ele>
        <time>2026-08-15T08:36:04Z</time>
      </trkpt>
      <trkpt lat="44.52007" lon="0.7768">
        <ele>100.8</ele>
        <time>2026-08-15T08:36:05Z</time>
      </trkpt>
      <trkpt lat="44.52002" lon="0.77679">
        <ele>100.8</ele>
        <time>2026-08-15T08:36:06Z</time>
      </trkpt>
      <trkpt lat="44.51999" lon="0.77678">
        <ele>100.8</ele>
        <time>2026-08-15T08:36:07Z</time>
      </trkpt>
      <trkpt lat="44.51995" lon="0.77678">
        <ele>100.8</ele>
        <time>2026-08-15T08:36:08Z</time>
      </trkpt>
      <trkpt lat="44.51991" lon="0.77676">
        <ele>101</ele>
        <time>2026-08-15T08:36:09Z</time>
      </trkpt>
      <trkpt lat="44.51987" lon="0.77674">
        <ele>101</ele>
        <time>2026-08-15T08:36:10Z</time>
      </trkpt>
      <trkpt lat="44.51984" lon="0.77672">
        <ele>101</ele>
        <time>2026-08-15T08:36:11Z</time>
      </trkpt>
      <trkpt lat="44.51981" lon="0.77668">
        <ele>101</ele>
        <time>2026-08-15T08:36:12Z</time>
      </trkpt>
      <trkpt lat="44.5198" lon="0.77662">
        <ele>100.6</ele>
        <time>2026-08-15T08:36:13Z</time>
      </trkpt>
      <trkpt lat="44.51978" lon="0.77655">
        <ele>100.2</ele>
        <time>2026-08-15T08:36:14Z</time>
      </trkpt>
      <trkpt lat="44.51977" lon="0.77644">
        <ele>100</ele>
        <time>2026-08-15T08:36:15Z</time>
      </trkpt>
      <trkpt lat="44.51976" lon="0.77635">
        <ele>99.4</ele>
        <time>2026-08-15T08:36:16Z</time>
      </trkpt>
      <trkpt lat="44.51974" lon="0.77626">
        <ele>98.6</ele>
        <time>2026-08-15T08:36:17Z</time>
      </trkpt>
      <trkpt lat="44.51972" lon="0.77619">
        <ele>98.4</ele>
        <time>2026-08-15T08:36:18Z</time>
      </trkpt>
      <trkpt lat="44.5197" lon="0.77614">
        <ele>98</ele>
        <time>2026-08-15T08:36:19Z</time>
      </trkpt>
      <trkpt lat="44.51967" lon="0.77612">
        <ele>97.6</ele>
        <time>2026-08-15T08:36:20Z</time>
      </trkpt>
      <trkpt lat="44.51963" lon="0.7761">
        <ele>97.2</ele>
        <time>2026-08-15T08:36:21Z</time>
      </trkpt>
      <trkpt lat="44.51959" lon="0.7761">
        <ele>97</ele>
        <time>2026-08-15T08:36:22Z</time>
      </trkpt>
      <trkpt lat="44.51954" lon="0.7761">
        <ele>96.6</ele>
        <time>2026-08-15T08:36:23Z</time>
      </trkpt>
      <trkpt lat="44.51948" lon="0.7761">
        <ele>96.4</ele>
        <time>2026-08-15T08:36:24Z</time>
      </trkpt>
      <trkpt lat="44.51943" lon="0.7761">
        <ele>96</ele>
        <time>2026-08-15T08:36:25Z</time>
      </trkpt>
      <trkpt lat="44.51935" lon="0.7761">
        <ele>96</ele>
        <time>2026-08-15T08:36:26Z</time>
      </trkpt>
      <trkpt lat="44.51929" lon="0.7761">
        <ele>95.8</ele>
        <time>2026-08-15T08:36:27Z</time>
      </trkpt>
      <trkpt lat="44.51923" lon="0.77611">
        <ele>95.6</ele>
        <time>2026-08-15T08:36:28Z</time>
      </trkpt>
      <trkpt lat="44.51917" lon="0.77612">
        <ele>95.6</ele>
        <time>2026-08-15T08:36:29Z</time>
      </trkpt>
      <trkpt lat="44.51912" lon="0.77614">
        <ele>95.6</ele>
        <time>2026-08-15T08:36:30Z</time>
      </trkpt>
      <trkpt lat="44.51908" lon="0.77618">
        <ele>95.4</ele>
        <time>2026-08-15T08:36:31Z</time>
      </trkpt>
      <trkpt lat="44.51905" lon="0.77623">
        <ele>95.4</ele>
        <time>2026-08-15T08:36:32Z</time>
      </trkpt>
      <trkpt lat="44.51903" lon="0.77627">
        <ele>95.4</ele>
        <time>2026-08-15T08:36:33Z</time>
      </trkpt>
      <trkpt lat="44.51901" lon="0.77633">
        <ele>95.6</ele>
        <time>2026-08-15T08:36:34Z</time>
      </trkpt>
      <trkpt lat="44.519" lon="0.7764">
        <ele>95.6</ele>
        <time>2026-08-15T08:36:35Z</time>
      </trkpt>
      <trkpt lat="44.51898" lon="0.77647">
        <ele>95.8</ele>
        <time>2026-08-15T08:36:36Z</time>
      </trkpt>
      <trkpt lat="44.51896" lon="0.77654">
        <ele>95.8</ele>
        <time>2026-08-15T08:36:37Z</time>
      </trkpt>
      <trkpt lat="44.51894" lon="0.7766">
        <ele>96</ele>
        <time>2026-08-15T08:36:38Z</time>
      </trkpt>
      <trkpt lat="44.51893" lon="0.77667">
        <ele>96</ele>
        <time>2026-08-15T08:36:39Z</time>
      </trkpt>
      <trkpt lat="44.51891" lon="0.77673">
        <ele>96</ele>
        <time>2026-08-15T08:36:40Z</time>
      </trkpt>
      <trkpt lat="44.51889" lon="0.77679">
        <ele>96.2</ele>
        <time>2026-08-15T08:36:41Z</time>
      </trkpt>
      <trkpt lat="44.51887" lon="0.77685">
        <ele>96.4</ele>
        <time>2026-08-15T08:36:42Z</time>
      </trkpt>
      <trkpt lat="44.51885" lon="0.77691">
        <ele>96.4</ele>
        <time>2026-08-15T08:36:43Z</time>
      </trkpt>
      <trkpt lat="44.51884" lon="0.77697">
        <ele>96.6</ele>
        <time>2026-08-15T08:36:44Z</time>
      </trkpt>
      <trkpt lat="44.51882" lon="0.77702">
        <ele>96.8</ele>
        <time>2026-08-15T08:36:45Z</time>
      </trkpt>
      <trkpt lat="44.5188" lon="0.77707">
        <ele>97</ele>
        <time>2026-08-15T08:36:46Z</time>
      </trkpt>
      <trkpt lat="44.51878" lon="0.77712">
        <ele>97.2</ele>
        <time>2026-08-15T08:36:47Z</time>
      </trkpt>
      <trkpt lat="44.51876" lon="0.77717">
        <ele>97.4</ele>
        <time>2026-08-15T08:36:48Z</time>
      </trkpt>
      <trkpt lat="44.51874" lon="0.77722">
        <ele>97.6</ele>
        <time>2026-08-15T08:36:49Z</time>
      </trkpt>
      <trkpt lat="44.51871" lon="0.77727">
        <ele>97.8</ele>
        <time>2026-08-15T08:36:50Z</time>
      </trkpt>
      <trkpt lat="44.51869" lon="0.77732">
        <ele>98</ele>
        <time>2026-08-15T08:36:51Z</time>
      </trkpt>
      <trkpt lat="44.51866" lon="0.77738">
        <ele>98</ele>
        <time>2026-08-15T08:36:52Z</time>
      </trkpt>
      <trkpt lat="44.51864" lon="0.77743">
        <ele>98.2</ele>
        <time>2026-08-15T08:36:53Z</time>
      </trkpt>
      <trkpt lat="44.51861" lon="0.77748">
        <ele>98.4</ele>
        <time>2026-08-15T08:36:54Z</time>
      </trkpt>
      <trkpt lat="44.51858" lon="0.77753">
        <ele>98.4</ele>
        <time>2026-08-15T08:36:55Z</time>
      </trkpt>
      <trkpt lat="44.51855" lon="0.77759">
        <ele>98.4</ele>
        <time>2026-08-15T08:36:56Z</time>
      </trkpt>
      <trkpt lat="44.51852" lon="0.77764">
        <ele>98.6</ele>
        <time>2026-08-15T08:36:57Z</time>
      </trkpt>
      <trkpt lat="44.51849" lon="0.77769">
        <ele>98.6</ele>
        <time>2026-08-15T08:36:58Z</time>
      </trkpt>
      <trkpt lat="44.51846" lon="0.77774">
        <ele>98.6</ele>
        <time>2026-08-15T08:36:59Z</time>
      </trkpt>
      <trkpt lat="44.51843" lon="0.77778">
        <ele>99</ele>
        <time>2026-08-15T08:37:00Z</time>
      </trkpt>
      <trkpt lat="44.5184" lon="0.77782">
        <ele>99</ele>
        <time>2026-08-15T08:37:01Z</time>
      </trkpt>
      <trkpt lat="44.51838" lon="0.77786">
        <ele>99.4</ele>
        <time>2026-08-15T08:37:02Z</time>
      </trkpt>
      <trkpt lat="44.51835" lon="0.7779">
        <ele>99.6</ele>
        <time>2026-08-15T08:37:03Z</time>
      </trkpt>
      <trkpt lat="44.51833" lon="0.77794">
        <ele>99.6</ele>
        <time>2026-08-15T08:37:04Z</time>
      </trkpt>
      <trkpt lat="44.5183" lon="0.77798">
        <ele>100</ele>
        <time>2026-08-15T08:37:05Z</time>
      </trkpt>
      <trkpt lat="44.51828" lon="0.77801">
        <ele>100.4</ele>
        <time>2026-08-15T08:37:06Z</time>
      </trkpt>
      <trkpt lat="44.51826" lon="0.77805">
        <ele>100.6</ele>
        <time>2026-08-15T08:37:07Z</time>
      </trkpt>
      <trkpt lat="44.51824" lon="0.77808">
        <ele>101</ele>
        <time>2026-08-15T08:37:08Z</time>
      </trkpt>
      <trkpt lat="44.51822" lon="0.77812">
        <ele>101.2</ele>
        <time>2026-08-15T08:37:09Z</time>
      </trkpt>
      <trkpt lat="44.5182" lon="0.77816">
        <ele>101.4</ele>
        <time>2026-08-15T08:37:10Z</time>
      </trkpt>
      <trkpt lat="44.51818" lon="0.7782">
        <ele>101.6</ele>
        <time>2026-08-15T08:37:11Z</time>
      </trkpt>
      <trkpt lat="44.51815" lon="0.77824">
        <ele>102</ele>
        <time>2026-08-15T08:37:12Z</time>
      </trkpt>
      <trkpt lat="44.51813" lon="0.77828">
        <ele>102.4</ele>
        <time>2026-08-15T08:37:13Z</time>
      </trkpt>
      <trkpt lat="44.51811" lon="0.77832">
        <ele>102.6</ele>
        <time>2026-08-15T08:37:14Z</time>
      </trkpt>
      <trkpt lat="44.51808" lon="0.77836">
        <ele>102.6</ele>
        <time>2026-08-15T08:37:15Z</time>
      </trkpt>
      <trkpt lat="44.51806" lon="0.77841">
        <ele>102.6</ele>
        <time>2026-08-15T08:37:16Z</time>
      </trkpt>
      <trkpt lat="44.51804" lon="0.77846">
        <ele>102.6</ele>
        <time>2026-08-15T08:37:17Z</time>
      </trkpt>
      <trkpt lat="44.51801" lon="0.7785">
        <ele>102.8</ele>
        <time>2026-08-15T08:37:18Z</time>
      </trkpt>
      <trkpt lat="44.51799" lon="0.77855">
        <ele>102.8</ele>
        <time>2026-08-15T08:37:19Z</time>
      </trkpt>
      <trkpt lat="44.51796" lon="0.7786">
        <ele>102.8</ele>
        <time>2026-08-15T08:37:20Z</time>
      </trkpt>
      <trkpt lat="44.51794" lon="0.77865">
        <ele>102.8</ele>
        <time>2026-08-15T08:37:21Z</time>
      </trkpt>
      <trkpt lat="44.51791" lon="0.7787">
        <ele>102.8</ele>
        <time>2026-08-15T08:37:22Z</time>
      </trkpt>
      <trkpt lat="44.51788" lon="0.77875">
        <ele>103</ele>
        <time>2026-08-15T08:37:23Z</time>
      </trkpt>
      <trkpt lat="44.51786" lon="0.77879">
        <ele>103</ele>
        <time>2026-08-15T08:37:24Z</time>
      </trkpt>
      <trkpt lat="44.51783" lon="0.77884">
        <ele>103</ele>
        <time>2026-08-15T08:37:25Z</time>
      </trkpt>
      <trkpt lat="44.5178" lon="0.77889">
        <ele>103.4</ele>
        <time>2026-08-15T08:37:26Z</time>
      </trkpt>
      <trkpt lat="44.51777" lon="0.77893">
        <ele>103.4</ele>
        <time>2026-08-15T08:37:27Z</time>
      </trkpt>
      <trkpt lat="44.51773" lon="0.77897">
        <ele>103.4</ele>
        <time>2026-08-15T08:37:28Z</time>
      </trkpt>
      <trkpt lat="44.5177" lon="0.77901">
        <ele>103.4</ele>
        <time>2026-08-15T08:37:29Z</time>
      </trkpt>
      <trkpt lat="44.51767" lon="0.77905">
        <ele>103.6</ele>
        <time>2026-08-15T08:37:30Z</time>
      </trkpt>
      <trkpt lat="44.51763" lon="0.77908">
        <ele>103.6</ele>
        <time>2026-08-15T08:37:31Z</time>
      </trkpt>
      <trkpt lat="44.51759" lon="0.77912">
        <ele>103.6</ele>
        <time>2026-08-15T08:37:32Z</time>
      </trkpt>
      <trkpt lat="44.51756" lon="0.77915">
        <ele>103.6</ele>
        <time>2026-08-15T08:37:33Z</time>
      </trkpt>
      <trkpt lat="44.51752" lon="0.77918">
        <ele>103.6</ele>
        <time>2026-08-15T08:37:34Z</time>
      </trkpt>
      <trkpt lat="44.51748" lon="0.77921">
        <ele>103.6</ele>
        <time>2026-08-15T08:37:35Z</time>
      </trkpt>
      <trkpt lat="44.51744" lon="0.77925">
        <ele>103.6</ele>
        <time>2026-08-15T08:37:36Z</time>
      </trkpt>
      <trkpt lat="44.5174" lon="0.77928">
        <ele>103.6</ele>
        <time>2026-08-15T08:37:37Z</time>
      </trkpt>
      <trkpt lat="44.51736" lon="0.77931">
        <ele>103.6</ele>
        <time>2026-08-15T08:37:38Z</time>
      </trkpt>
      <trkpt lat="44.51733" lon="0.77935">
        <ele>103.6</ele>
        <time>2026-08-15T08:37:39Z</time>
      </trkpt>
      <trkpt lat="44.51729" lon="0.77938">
        <ele>103.6</ele>
        <time>2026-08-15T08:37:40Z</time>
      </trkpt>
      <trkpt lat="44.51725" lon="0.77942">
        <ele>103.6</ele>
        <time>2026-08-15T08:37:41Z</time>
      </trkpt>
      <trkpt lat="44.51721" lon="0.77945">
        <ele>103.8</ele>
        <time>2026-08-15T08:37:42Z</time>
      </trkpt>
      <trkpt lat="44.51717" lon="0.77949">
        <ele>103.8</ele>
        <time>2026-08-15T08:37:43Z</time>
      </trkpt>
      <trkpt lat="44.51713" lon="0.77952">
        <ele>103.8</ele>
        <time>2026-08-15T08:37:44Z</time>
      </trkpt>
      <trkpt lat="44.51709" lon="0.77956">
        <ele>104</ele>
        <time>2026-08-15T08:37:45Z</time>
      </trkpt>
      <trkpt lat="44.51705" lon="0.77959">
        <ele>104</ele>
        <time>2026-08-15T08:37:46Z</time>
      </trkpt>
      <trkpt lat="44.51701" lon="0.77963">
        <ele>104</ele>
        <time>2026-08-15T08:37:47Z</time>
      </trkpt>
      <trkpt lat="44.51697" lon="0.77967">
        <ele>104</ele>
        <time>2026-08-15T08:37:48Z</time>
      </trkpt>
      <trkpt lat="44.51693" lon="0.7797">
        <ele>104.2</ele>
        <time>2026-08-15T08:37:49Z</time>
      </trkpt>
      <trkpt lat="44.51689" lon="0.77974">
        <ele>104.4</ele>
        <time>2026-08-15T08:37:50Z</time>
      </trkpt>
      <trkpt lat="44.51685" lon="0.77977">
        <ele>104.4</ele>
        <time>2026-08-15T08:37:51Z</time>
      </trkpt>
      <trkpt lat="44.51681" lon="0.77981">
        <ele>104.6</ele>
        <time>2026-08-15T08:37:52Z</time>
      </trkpt>
      <trkpt lat="44.51678" lon="0.77985">
        <ele>104.6</ele>
        <time>2026-08-15T08:37:53Z</time>
      </trkpt>
      <trkpt lat="44.51674" lon="0.77989">
        <ele>104.6</ele>
        <time>2026-08-15T08:37:54Z</time>
      </trkpt>
      <trkpt lat="44.5167" lon="0.77992">
        <ele>104.8</ele>
        <time>2026-08-15T08:37:55Z</time>
      </trkpt>
      <trkpt lat="44.51666" lon="0.77996">
        <ele>105</ele>
        <time>2026-08-15T08:37:56Z</time>
      </trkpt>
      <trkpt lat="44.51663" lon="0.78">
        <ele>105</ele>
        <time>2026-08-15T08:37:57Z</time>
      </trkpt>
      <trkpt lat="44.51659" lon="0.78004">
        <ele>105</ele>
        <time>2026-08-15T08:37:58Z</time>
      </trkpt>
      <trkpt lat="44.51655" lon="0.78008">
        <ele>105.2</ele>
        <time>2026-08-15T08:37:59Z</time>
      </trkpt>
      <trkpt lat="44.51652" lon="0.78012">
        <ele>105.4</ele>
        <time>2026-08-15T08:38:00Z</time>
      </trkpt>
      <trkpt lat="44.51648" lon="0.78016">
        <ele>105.4</ele>
        <time>2026-08-15T08:38:01Z</time>
      </trkpt>
      <trkpt lat="44.51645" lon="0.7802">
        <ele>105.4</ele>
        <time>2026-08-15T08:38:02Z</time>
      </trkpt>
      <trkpt lat="44.51641" lon="0.78024">
        <ele>105.4</ele>
        <time>2026-08-15T08:38:03Z</time>
      </trkpt>
      <trkpt lat="44.51638" lon="0.78028">
        <ele>105.6</ele>
        <time>2026-08-15T08:38:04Z</time>
      </trkpt>
      <trkpt lat="44.51634" lon="0.78032">
        <ele>105.6</ele>
        <time>2026-08-15T08:38:05Z</time>
      </trkpt>
      <trkpt lat="44.5163" lon="0.78036">
        <ele>105.6</ele>
        <time>2026-08-15T08:38:06Z</time>
      </trkpt>
      <trkpt lat="44.51627" lon="0.7804">
        <ele>105.8</ele>
        <time>2026-08-15T08:38:07Z</time>
      </trkpt>
      <trkpt lat="44.51623" lon="0.78044">
        <ele>106</ele>
        <time>2026-08-15T08:38:08Z</time>
      </trkpt>
      <trkpt lat="44.5162" lon="0.78049">
        <ele>106</ele>
        <time>2026-08-15T08:38:09Z</time>
      </trkpt>
      <trkpt lat="44.51617" lon="0.78053">
        <ele>106.2</ele>
        <time>2026-08-15T08:38:10Z</time>
      </trkpt>
      <trkpt lat="44.51613" lon="0.78057">
        <ele>106.4</ele>
        <time>2026-08-15T08:38:11Z</time>
      </trkpt>
      <trkpt lat="44.5161" lon="0.78061">
        <ele>106.6</ele>
        <time>2026-08-15T08:38:12Z</time>
      </trkpt>
      <trkpt lat="44.51606" lon="0.78066">
        <ele>106.6</ele>
        <time>2026-08-15T08:38:13Z</time>
      </trkpt>
      <trkpt lat="44.51603" lon="0.7807">
        <ele>107</ele>
        <time>2026-08-15T08:38:14Z</time>
      </trkpt>
      <trkpt lat="44.51599" lon="0.78074">
        <ele>107</ele>
        <time>2026-08-15T08:38:15Z</time>
      </trkpt>
      <trkpt lat="44.51596" lon="0.78079">
        <ele>107.2</ele>
        <time>2026-08-15T08:38:16Z</time>
      </trkpt>
      <trkpt lat="44.51592" lon="0.78083">
        <ele>107.4</ele>
        <time>2026-08-15T08:38:17Z</time>
      </trkpt>
      <trkpt lat="44.51589" lon="0.78087">
        <ele>107.6</ele>
        <time>2026-08-15T08:38:18Z</time>
      </trkpt>
      <trkpt lat="44.51586" lon="0.78091">
        <ele>107.6</ele>
        <time>2026-08-15T08:38:19Z</time>
      </trkpt>
      <trkpt lat="44.51582" lon="0.78096">
        <ele>107.8</ele>
        <time>2026-08-15T08:38:20Z</time>
      </trkpt>
      <trkpt lat="44.51579" lon="0.781">
        <ele>108</ele>
        <time>2026-08-15T08:38:21Z</time>
      </trkpt>
      <trkpt lat="44.51575" lon="0.78105">
        <ele>108</ele>
        <time>2026-08-15T08:38:22Z</time>
      </trkpt>
      <trkpt lat="44.51572" lon="0.78109">
        <ele>108.4</ele>
        <time>2026-08-15T08:38:23Z</time>
      </trkpt>
      <trkpt lat="44.51568" lon="0.78114">
        <ele>108.4</ele>
        <time>2026-08-15T08:38:24Z</time>
      </trkpt>
      <trkpt lat="44.51565" lon="0.78119">
        <ele>108.6</ele>
        <time>2026-08-15T08:38:25Z</time>
      </trkpt>
      <trkpt lat="44.51562" lon="0.78124">
        <ele>108.6</ele>
        <time>2026-08-15T08:38:26Z</time>
      </trkpt>
      <trkpt lat="44.51558" lon="0.78129">
        <ele>108.6</ele>
        <time>2026-08-15T08:38:27Z</time>
      </trkpt>
      <trkpt lat="44.51555" lon="0.78135">
        <ele>108.8</ele>
        <time>2026-08-15T08:38:28Z</time>
      </trkpt>
      <trkpt lat="44.51552" lon="0.7814">
        <ele>109</ele>
        <time>2026-08-15T08:38:29Z</time>
      </trkpt>
      <trkpt lat="44.51549" lon="0.78145">
        <ele>109</ele>
        <time>2026-08-15T08:38:30Z</time>
      </trkpt>
      <trkpt lat="44.51546" lon="0.78151">
        <ele>109</ele>
        <time>2026-08-15T08:38:31Z</time>
      </trkpt>
      <trkpt lat="44.51543" lon="0.78156">
        <ele>109</ele>
        <time>2026-08-15T08:38:32Z</time>
      </trkpt>
      <trkpt lat="44.5154" lon="0.78162">
        <ele>109</ele>
        <time>2026-08-15T08:38:33Z</time>
      </trkpt>
      <trkpt lat="44.51538" lon="0.78167">
        <ele>109.2</ele>
        <time>2026-08-15T08:38:34Z</time>
      </trkpt>
      <trkpt lat="44.51535" lon="0.78172">
        <ele>109.4</ele>
        <time>2026-08-15T08:38:35Z</time>
      </trkpt>
      <trkpt lat="44.51532" lon="0.78178">
        <ele>109.4</ele>
        <time>2026-08-15T08:38:36Z</time>
      </trkpt>
      <trkpt lat="44.51529" lon="0.78183">
        <ele>109.4</ele>
        <time>2026-08-15T08:38:37Z</time>
      </trkpt>
      <trkpt lat="44.51526" lon="0.78188">
        <ele>109.6</ele>
        <time>2026-08-15T08:38:38Z</time>
      </trkpt>
      <trkpt lat="44.51523" lon="0.78194">
        <ele>109.6</ele>
        <time>2026-08-15T08:38:39Z</time>
      </trkpt>
      <trkpt lat="44.5152" lon="0.78199">
        <ele>109.8</ele>
        <time>2026-08-15T08:38:40Z</time>
      </trkpt>
      <trkpt lat="44.51518" lon="0.78204">
        <ele>110</ele>
        <time>2026-08-15T08:38:41Z</time>
      </trkpt>
      <trkpt lat="44.51515" lon="0.78209">
        <ele>110</ele>
        <time>2026-08-15T08:38:42Z</time>
      </trkpt>
      <trkpt lat="44.51512" lon="0.78214">
        <ele>110.4</ele>
        <time>2026-08-15T08:38:43Z</time>
      </trkpt>
      <trkpt lat="44.5151" lon="0.78219">
        <ele>110.4</ele>
        <time>2026-08-15T08:38:44Z</time>
      </trkpt>
      <trkpt lat="44.51507" lon="0.78224">
        <ele>110.6</ele>
        <time>2026-08-15T08:38:45Z</time>
      </trkpt>
      <trkpt lat="44.51504" lon="0.78229">
        <ele>110.8</ele>
        <time>2026-08-15T08:38:46Z</time>
      </trkpt>
      <trkpt lat="44.51502" lon="0.78234">
        <ele>111</ele>
        <time>2026-08-15T08:38:47Z</time>
      </trkpt>
      <trkpt lat="44.51499" lon="0.78239">
        <ele>111</ele>
        <time>2026-08-15T08:38:48Z</time>
      </trkpt>
      <trkpt lat="44.51496" lon="0.78244">
        <ele>111</ele>
        <time>2026-08-15T08:38:49Z</time>
      </trkpt>
      <trkpt lat="44.51494" lon="0.78248">
        <ele>111.2</ele>
        <time>2026-08-15T08:38:50Z</time>
      </trkpt>
      <trkpt lat="44.51491" lon="0.78253">
        <ele>111.4</ele>
        <time>2026-08-15T08:38:51Z</time>
      </trkpt>
      <trkpt lat="44.51489" lon="0.78258">
        <ele>111.6</ele>
        <time>2026-08-15T08:38:52Z</time>
      </trkpt>
      <trkpt lat="44.51486" lon="0.78263">
        <ele>111.6</ele>
        <time>2026-08-15T08:38:53Z</time>
      </trkpt>
      <trkpt lat="44.51484" lon="0.78268">
        <ele>111.6</ele>
        <time>2026-08-15T08:38:54Z</time>
      </trkpt>
      <trkpt lat="44.51481" lon="0.78273">
        <ele>111.8</ele>
        <time>2026-08-15T08:38:55Z</time>
      </trkpt>
      <trkpt lat="44.51479" lon="0.78278">
        <ele>112</ele>
        <time>2026-08-15T08:38:56Z</time>
      </trkpt>
      <trkpt lat="44.51477" lon="0.78282">
        <ele>112</ele>
        <time>2026-08-15T08:38:57Z</time>
      </trkpt>
      <trkpt lat="44.51474" lon="0.78287">
        <ele>112.2</ele>
        <time>2026-08-15T08:38:58Z</time>
      </trkpt>
      <trkpt lat="44.51472" lon="0.78292">
        <ele>112.4</ele>
        <time>2026-08-15T08:38:59Z</time>
      </trkpt>
      <trkpt lat="44.5147" lon="0.78297">
        <ele>112.4</ele>
        <time>2026-08-15T08:39:00Z</time>
      </trkpt>
      <trkpt lat="44.51468" lon="0.78302">
        <ele>112.6</ele>
        <time>2026-08-15T08:39:01Z</time>
      </trkpt>
      <trkpt lat="44.51466" lon="0.78307">
        <ele>112.8</ele>
        <time>2026-08-15T08:39:02Z</time>
      </trkpt>
      <trkpt lat="44.51464" lon="0.78312">
        <ele>113</ele>
        <time>2026-08-15T08:39:03Z</time>
      </trkpt>
      <trkpt lat="44.51463" lon="0.78317">
        <ele>113.4</ele>
        <time>2026-08-15T08:39:04Z</time>
      </trkpt>
      <trkpt lat="44.51461" lon="0.78322">
        <ele>113.6</ele>
        <time>2026-08-15T08:39:05Z</time>
      </trkpt>
      <trkpt lat="44.51459" lon="0.78327">
        <ele>113.6</ele>
        <time>2026-08-15T08:39:06Z</time>
      </trkpt>
      <trkpt lat="44.51458" lon="0.78332">
        <ele>113.8</ele>
        <time>2026-08-15T08:39:07Z</time>
      </trkpt>
      <trkpt lat="44.51457" lon="0.78338">
        <ele>114</ele>
        <time>2026-08-15T08:39:08Z</time>
      </trkpt>
      <trkpt lat="44.51456" lon="0.78343">
        <ele>114.4</ele>
        <time>2026-08-15T08:39:09Z</time>
      </trkpt>
      <trkpt lat="44.51454" lon="0.78349">
        <ele>114.6</ele>
        <time>2026-08-15T08:39:10Z</time>
      </trkpt>
      <trkpt lat="44.51453" lon="0.78354">
        <ele>114.8</ele>
        <time>2026-08-15T08:39:11Z</time>
      </trkpt>
      <trkpt lat="44.51451" lon="0.7836">
        <ele>115</ele>
        <time>2026-08-15T08:39:12Z</time>
      </trkpt>
      <trkpt lat="44.51449" lon="0.78365">
        <ele>115</ele>
        <time>2026-08-15T08:39:13Z</time>
      </trkpt>
      <trkpt lat="44.51447" lon="0.78371">
        <ele>115</ele>
        <time>2026-08-15T08:39:14Z</time>
      </trkpt>
      <trkpt lat="44.51445" lon="0.78376">
        <ele>115.2</ele>
        <time>2026-08-15T08:39:15Z</time>
      </trkpt>
      <trkpt lat="44.51443" lon="0.78381">
        <ele>115.2</ele>
        <time>2026-08-15T08:39:16Z</time>
      </trkpt>
      <trkpt lat="44.51441" lon="0.78387">
        <ele>115.4</ele>
        <time>2026-08-15T08:39:17Z</time>
      </trkpt>
      <trkpt lat="44.5144" lon="0.78393">
        <ele>115.4</ele>
        <time>2026-08-15T08:39:18Z</time>
      </trkpt>
      <trkpt lat="44.51438" lon="0.78399">
        <ele>115.4</ele>
        <time>2026-08-15T08:39:19Z</time>
      </trkpt>
      <trkpt lat="44.51436" lon="0.78404">
        <ele>115.4</ele>
        <time>2026-08-15T08:39:20Z</time>
      </trkpt>
      <trkpt lat="44.51434" lon="0.78411">
        <ele>115.6</ele>
        <time>2026-08-15T08:39:21Z</time>
      </trkpt>
      <trkpt lat="44.51432" lon="0.78417">
        <ele>115.6</ele>
        <time>2026-08-15T08:39:22Z</time>
      </trkpt>
      <trkpt lat="44.5143" lon="0.78423">
        <ele>115.6</ele>
        <time>2026-08-15T08:39:23Z</time>
      </trkpt>
      <trkpt lat="44.51428" lon="0.78429">
        <ele>115.8</ele>
        <time>2026-08-15T08:39:24Z</time>
      </trkpt>
      <trkpt lat="44.51426" lon="0.78436">
        <ele>115.8</ele>
        <time>2026-08-15T08:39:25Z</time>
      </trkpt>
      <trkpt lat="44.51424" lon="0.78442">
        <ele>116</ele>
        <time>2026-08-15T08:39:26Z</time>
      </trkpt>
      <trkpt lat="44.51422" lon="0.78448">
        <ele>116</ele>
        <time>2026-08-15T08:39:27Z</time>
      </trkpt>
      <trkpt lat="44.5142" lon="0.78454">
        <ele>116</ele>
        <time>2026-08-15T08:39:28Z</time>
      </trkpt>
      <trkpt lat="44.51418" lon="0.7846">
        <ele>116</ele>
        <time>2026-08-15T08:39:29Z</time>
      </trkpt>
      <trkpt lat="44.51416" lon="0.78467">
        <ele>116</ele>
        <time>2026-08-15T08:39:30Z</time>
      </trkpt>
      <trkpt lat="44.51414" lon="0.78473">
        <ele>115.8</ele>
        <time>2026-08-15T08:39:31Z</time>
      </trkpt>
      <trkpt lat="44.51412" lon="0.7848">
        <ele>115.8</ele>
        <time>2026-08-15T08:39:32Z</time>
      </trkpt>
      <trkpt lat="44.5141" lon="0.78487">
        <ele>115.6</ele>
        <time>2026-08-15T08:39:33Z</time>
      </trkpt>
      <trkpt lat="44.51408" lon="0.78494">
        <ele>115.6</ele>
        <time>2026-08-15T08:39:34Z</time>
      </trkpt>
      <trkpt lat="44.51406" lon="0.78501">
        <ele>115.6</ele>
        <time>2026-08-15T08:39:35Z</time>
      </trkpt>
      <trkpt lat="44.51405" lon="0.78507">
        <ele>115.6</ele>
        <time>2026-08-15T08:39:36Z</time>
      </trkpt>
      <trkpt lat="44.51403" lon="0.78514">
        <ele>115.6</ele>
        <time>2026-08-15T08:39:37Z</time>
      </trkpt>
      <trkpt lat="44.51401" lon="0.78521">
        <ele>115.6</ele>
        <time>2026-08-15T08:39:38Z</time>
      </trkpt>
      <trkpt lat="44.51399" lon="0.78527">
        <ele>115.6</ele>
        <time>2026-08-15T08:39:39Z</time>
      </trkpt>
      <trkpt lat="44.51397" lon="0.78534">
        <ele>115.6</ele>
        <time>2026-08-15T08:39:40Z</time>
      </trkpt>
      <trkpt lat="44.51396" lon="0.7854">
        <ele>115.6</ele>
        <time>2026-08-15T08:39:41Z</time>
      </trkpt>
      <trkpt lat="44.51394" lon="0.78546">
        <ele>115.6</ele>
        <time>2026-08-15T08:39:42Z</time>
      </trkpt>
      <trkpt lat="44.51392" lon="0.78552">
        <ele>115.6</ele>
        <time>2026-08-15T08:39:43Z</time>
      </trkpt>
      <trkpt lat="44.5139" lon="0.78558">
        <ele>115.6</ele>
        <time>2026-08-15T08:39:44Z</time>
      </trkpt>
      <trkpt lat="44.51387" lon="0.78564">
        <ele>115.6</ele>
        <time>2026-08-15T08:39:45Z</time>
      </trkpt>
      <trkpt lat="44.51385" lon="0.7857">
        <ele>115.4</ele>
        <time>2026-08-15T08:39:46Z</time>
      </trkpt>
      <trkpt lat="44.51382" lon="0.78576">
        <ele>115.4</ele>
        <time>2026-08-15T08:39:47Z</time>
      </trkpt>
      <trkpt lat="44.51379" lon="0.78582">
        <ele>115.4</ele>
        <time>2026-08-15T08:39:48Z</time>
      </trkpt>
      <trkpt lat="44.51376" lon="0.78589">
        <ele>115.4</ele>
        <time>2026-08-15T08:39:49Z</time>
      </trkpt>
      <trkpt lat="44.51374" lon="0.78595">
        <ele>115.4</ele>
        <time>2026-08-15T08:39:50Z</time>
      </trkpt>
      <trkpt lat="44.51371" lon="0.78601">
        <ele>115.4</ele>
        <time>2026-08-15T08:39:51Z</time>
      </trkpt>
      <trkpt lat="44.51369" lon="0.78608">
        <ele>115.4</ele>
        <time>2026-08-15T08:39:52Z</time>
      </trkpt>
      <trkpt lat="44.51366" lon="0.78614">
        <ele>115.4</ele>
        <time>2026-08-15T08:39:53Z</time>
      </trkpt>
      <trkpt lat="44.51363" lon="0.7862">
        <ele>115.4</ele>
        <time>2026-08-15T08:39:54Z</time>
      </trkpt>
      <trkpt lat="44.5136" lon="0.78626">
        <ele>115.4</ele>
        <time>2026-08-15T08:39:55Z</time>
      </trkpt>
      <trkpt lat="44.51357" lon="0.78632">
        <ele>115.4</ele>
        <time>2026-08-15T08:39:56Z</time>
      </trkpt>
      <trkpt lat="44.51354" lon="0.78638">
        <ele>115.4</ele>
        <time>2026-08-15T08:39:57Z</time>
      </trkpt>
      <trkpt lat="44.51351" lon="0.78644">
        <ele>115.4</ele>
        <time>2026-08-15T08:39:58Z</time>
      </trkpt>
      <trkpt lat="44.51347" lon="0.7865">
        <ele>115.2</ele>
        <time>2026-08-15T08:39:59Z</time>
      </trkpt>
      <trkpt lat="44.51344" lon="0.78655">
        <ele>115</ele>
        <time>2026-08-15T08:40:00Z</time>
      </trkpt>
      <trkpt lat="44.51341" lon="0.78661">
        <ele>115</ele>
        <time>2026-08-15T08:40:01Z</time>
      </trkpt>
      <trkpt lat="44.51338" lon="0.78666">
        <ele>114.8</ele>
        <time>2026-08-15T08:40:02Z</time>
      </trkpt>
      <trkpt lat="44.51334" lon="0.78671">
        <ele>114.8</ele>
        <time>2026-08-15T08:40:03Z</time>
      </trkpt>
      <trkpt lat="44.5133" lon="0.78676">
        <ele>114.6</ele>
        <time>2026-08-15T08:40:04Z</time>
      </trkpt>
      <trkpt lat="44.51327" lon="0.78681">
        <ele>114.6</ele>
        <time>2026-08-15T08:40:05Z</time>
      </trkpt>
      <trkpt lat="44.51323" lon="0.78686">
        <ele>114.6</ele>
        <time>2026-08-15T08:40:06Z</time>
      </trkpt>
      <trkpt lat="44.5132" lon="0.78691">
        <ele>114.6</ele>
        <time>2026-08-15T08:40:07Z</time>
      </trkpt>
      <trkpt lat="44.51317" lon="0.78696">
        <ele>114.6</ele>
        <time>2026-08-15T08:40:08Z</time>
      </trkpt>
      <trkpt lat="44.51314" lon="0.78701">
        <ele>114.6</ele>
        <time>2026-08-15T08:40:09Z</time>
      </trkpt>
      <trkpt lat="44.51311" lon="0.78706">
        <ele>114.6</ele>
        <time>2026-08-15T08:40:10Z</time>
      </trkpt>
      <trkpt lat="44.51308" lon="0.78711">
        <ele>114.6</ele>
        <time>2026-08-15T08:40:11Z</time>
      </trkpt>
      <trkpt lat="44.51305" lon="0.78716">
        <ele>114.6</ele>
        <time>2026-08-15T08:40:12Z</time>
      </trkpt>
      <trkpt lat="44.51302" lon="0.7872">
        <ele>114.6</ele>
        <time>2026-08-15T08:40:13Z</time>
      </trkpt>
      <trkpt lat="44.51299" lon="0.78725">
        <ele>114.8</ele>
        <time>2026-08-15T08:40:14Z</time>
      </trkpt>
      <trkpt lat="44.51296" lon="0.7873">
        <ele>115</ele>
        <time>2026-08-15T08:40:15Z</time>
      </trkpt>
      <trkpt lat="44.51293" lon="0.78734">
        <ele>115</ele>
        <time>2026-08-15T08:40:16Z</time>
      </trkpt>
      <trkpt lat="44.5129" lon="0.78739">
        <ele>115</ele>
        <time>2026-08-15T08:40:17Z</time>
      </trkpt>
      <trkpt lat="44.51287" lon="0.78743">
        <ele>115</ele>
        <time>2026-08-15T08:40:18Z</time>
      </trkpt>
      <trkpt lat="44.51284" lon="0.78747">
        <ele>115</ele>
        <time>2026-08-15T08:40:19Z</time>
      </trkpt>
      <trkpt lat="44.51281" lon="0.78751">
        <ele>115.2</ele>
        <time>2026-08-15T08:40:20Z</time>
      </trkpt>
      <trkpt lat="44.51277" lon="0.78754">
        <ele>115.4</ele>
        <time>2026-08-15T08:40:21Z</time>
      </trkpt>
      <trkpt lat="44.51273" lon="0.78757">
        <ele>115.6</ele>
        <time>2026-08-15T08:40:22Z</time>
      </trkpt>
      <trkpt lat="44.5127" lon="0.7876">
        <ele>115.8</ele>
        <time>2026-08-15T08:40:23Z</time>
      </trkpt>
      <trkpt lat="44.51266" lon="0.78763">
        <ele>116</ele>
        <time>2026-08-15T08:40:24Z</time>
      </trkpt>
      <trkpt lat="44.51263" lon="0.78766">
        <ele>116</ele>
        <time>2026-08-15T08:40:25Z</time>
      </trkpt>
      <trkpt lat="44.5126" lon="0.78768">
        <ele>116.4</ele>
        <time>2026-08-15T08:40:26Z</time>
      </trkpt>
      <trkpt lat="44.51256" lon="0.78771">
        <ele>116.6</ele>
        <time>2026-08-15T08:40:27Z</time>
      </trkpt>
      <trkpt lat="44.51253" lon="0.78773">
        <ele>116.6</ele>
        <time>2026-08-15T08:40:28Z</time>
      </trkpt>
      <trkpt lat="44.5125" lon="0.78776">
        <ele>116.8</ele>
        <time>2026-08-15T08:40:29Z</time>
      </trkpt>
      <trkpt lat="44.51247" lon="0.78778">
        <ele>117</ele>
        <time>2026-08-15T08:40:30Z</time>
      </trkpt>
      <trkpt lat="44.51244" lon="0.7878">
        <ele>117.4</ele>
        <time>2026-08-15T08:40:31Z</time>
      </trkpt>
      <trkpt lat="44.51241" lon="0.78783">
        <ele>117.6</ele>
        <time>2026-08-15T08:40:32Z</time>
      </trkpt>
      <trkpt lat="44.51238" lon="0.78784">
        <ele>117.6</ele>
        <time>2026-08-15T08:40:33Z</time>
      </trkpt>
      <trkpt lat="44.51235" lon="0.78786">
        <ele>118</ele>
        <time>2026-08-15T08:40:34Z</time>
      </trkpt>
      <trkpt lat="44.51232" lon="0.78788">
        <ele>118</ele>
        <time>2026-08-15T08:40:35Z</time>
      </trkpt>
      <trkpt lat="44.51228" lon="0.7879">
        <ele>118.4</ele>
        <time>2026-08-15T08:40:36Z</time>
      </trkpt>
      <trkpt lat="44.51225" lon="0.78792">
        <ele>118.4</ele>
        <time>2026-08-15T08:40:37Z</time>
      </trkpt>
      <trkpt lat="44.51222" lon="0.78794">
        <ele>118.6</ele>
        <time>2026-08-15T08:40:38Z</time>
      </trkpt>
      <trkpt lat="44.51219" lon="0.78796">
        <ele>118.6</ele>
        <time>2026-08-15T08:40:39Z</time>
      </trkpt>
      <trkpt lat="44.51216" lon="0.78798">
        <ele>119</ele>
        <time>2026-08-15T08:40:40Z</time>
      </trkpt>
      <trkpt lat="44.51212" lon="0.78801">
        <ele>119</ele>
        <time>2026-08-15T08:40:41Z</time>
      </trkpt>
      <trkpt lat="44.51209" lon="0.78803">
        <ele>119</ele>
        <time>2026-08-15T08:40:42Z</time>
      </trkpt>
      <trkpt lat="44.51206" lon="0.78805">
        <ele>119.4</ele>
        <time>2026-08-15T08:40:43Z</time>
      </trkpt>
      <trkpt lat="44.51203" lon="0.78808">
        <ele>119.6</ele>
        <time>2026-08-15T08:40:44Z</time>
      </trkpt>
      <trkpt lat="44.512" lon="0.78811">
        <ele>119.6</ele>
        <time>2026-08-15T08:40:45Z</time>
      </trkpt>
      <trkpt lat="44.51197" lon="0.78814">
        <ele>120</ele>
        <time>2026-08-15T08:40:46Z</time>
      </trkpt>
      <trkpt lat="44.51194" lon="0.78817">
        <ele>120</ele>
        <time>2026-08-15T08:40:47Z</time>
      </trkpt>
      <trkpt lat="44.51191" lon="0.7882">
        <ele>120.4</ele>
        <time>2026-08-15T08:40:48Z</time>
      </trkpt>
      <trkpt lat="44.51188" lon="0.78823">
        <ele>120.4</ele>
        <time>2026-08-15T08:40:49Z</time>
      </trkpt>
      <trkpt lat="44.51185" lon="0.78827">
        <ele>120.6</ele>
        <time>2026-08-15T08:40:50Z</time>
      </trkpt>
      <trkpt lat="44.51182" lon="0.7883">
        <ele>120.6</ele>
        <time>2026-08-15T08:40:51Z</time>
      </trkpt>
      <trkpt lat="44.5118" lon="0.78833">
        <ele>121</ele>
        <time>2026-08-15T08:40:52Z</time>
      </trkpt>
      <trkpt lat="44.51177" lon="0.78837">
        <ele>121.2</ele>
        <time>2026-08-15T08:40:53Z</time>
      </trkpt>
      <trkpt lat="44.51175" lon="0.7884">
        <ele>121.4</ele>
        <time>2026-08-15T08:40:54Z</time>
      </trkpt>
      <trkpt lat="44.51172" lon="0.78844">
        <ele>121.6</ele>
        <time>2026-08-15T08:40:55Z</time>
      </trkpt>
      <trkpt lat="44.5117" lon="0.78848">
        <ele>121.8</ele>
        <time>2026-08-15T08:40:56Z</time>
      </trkpt>
      <trkpt lat="44.51168" lon="0.78851">
        <ele>122</ele>
        <time>2026-08-15T08:40:57Z</time>
      </trkpt>
      <trkpt lat="44.51165" lon="0.78855">
        <ele>122</ele>
        <time>2026-08-15T08:40:58Z</time>
      </trkpt>
      <trkpt lat="44.51163" lon="0.78858">
        <ele>122.2</ele>
        <time>2026-08-15T08:40:59Z</time>
      </trkpt>
      <trkpt lat="44.51161" lon="0.78862">
        <ele>122.4</ele>
        <time>2026-08-15T08:41:00Z</time>
      </trkpt>
      <trkpt lat="44.51159" lon="0.78865">
        <ele>122.6</ele>
        <time>2026-08-15T08:41:01Z</time>
      </trkpt>
      <trkpt lat="44.51157" lon="0.78869">
        <ele>122.6</ele>
        <time>2026-08-15T08:41:02Z</time>
      </trkpt>
      <trkpt lat="44.51155" lon="0.78873">
        <ele>123</ele>
        <time>2026-08-15T08:41:03Z</time>
      </trkpt>
      <trkpt lat="44.51152" lon="0.78877">
        <ele>123</ele>
        <time>2026-08-15T08:41:04Z</time>
      </trkpt>
      <trkpt lat="44.5115" lon="0.78881">
        <ele>123.4</ele>
        <time>2026-08-15T08:41:05Z</time>
      </trkpt>
      <trkpt lat="44.51148" lon="0.78884">
        <ele>123.4</ele>
        <time>2026-08-15T08:41:06Z</time>
      </trkpt>
      <trkpt lat="44.51146" lon="0.78888">
        <ele>123.6</ele>
        <time>2026-08-15T08:41:07Z</time>
      </trkpt>
      <trkpt lat="44.51144" lon="0.78891">
        <ele>123.6</ele>
        <time>2026-08-15T08:41:08Z</time>
      </trkpt>
      <trkpt lat="44.51143" lon="0.78895">
        <ele>123.6</ele>
        <time>2026-08-15T08:41:09Z</time>
      </trkpt>
      <trkpt lat="44.51141" lon="0.78899">
        <ele>123.8</ele>
        <time>2026-08-15T08:41:10Z</time>
      </trkpt>
      <trkpt lat="44.51139" lon="0.78903">
        <ele>124</ele>
        <time>2026-08-15T08:41:11Z</time>
      </trkpt>
      <trkpt lat="44.51137" lon="0.78907">
        <ele>124</ele>
        <time>2026-08-15T08:41:12Z</time>
      </trkpt>
      <trkpt lat="44.51135" lon="0.78911">
        <ele>124</ele>
        <time>2026-08-15T08:41:13Z</time>
      </trkpt>
      <trkpt lat="44.51133" lon="0.78916">
        <ele>124.2</ele>
        <time>2026-08-15T08:41:14Z</time>
      </trkpt>
      <trkpt lat="44.51131" lon="0.7892">
        <ele>124.4</ele>
        <time>2026-08-15T08:41:15Z</time>
      </trkpt>
      <trkpt lat="44.51129" lon="0.78924">
        <ele>124.4</ele>
        <time>2026-08-15T08:41:16Z</time>
      </trkpt>
      <trkpt lat="44.51127" lon="0.78928">
        <ele>124.6</ele>
        <time>2026-08-15T08:41:17Z</time>
      </trkpt>
      <trkpt lat="44.51125" lon="0.78932">
        <ele>124.6</ele>
        <time>2026-08-15T08:41:18Z</time>
      </trkpt>
      <trkpt lat="44.51123" lon="0.78936">
        <ele>124.6</ele>
        <time>2026-08-15T08:41:19Z</time>
      </trkpt>
      <trkpt lat="44.51121" lon="0.7894">
        <ele>125</ele>
        <time>2026-08-15T08:41:20Z</time>
      </trkpt>
      <trkpt lat="44.51119" lon="0.78944">
        <ele>125</ele>
        <time>2026-08-15T08:41:21Z</time>
      </trkpt>
      <trkpt lat="44.51117" lon="0.78948">
        <ele>125</ele>
        <time>2026-08-15T08:41:22Z</time>
      </trkpt>
      <trkpt lat="44.51115" lon="0.78952">
        <ele>125.4</ele>
        <time>2026-08-15T08:41:23Z</time>
      </trkpt>
      <trkpt lat="44.51113" lon="0.78957">
        <ele>125.4</ele>
        <time>2026-08-15T08:41:24Z</time>
      </trkpt>
      <trkpt lat="44.51111" lon="0.78961">
        <ele>125.4</ele>
        <time>2026-08-15T08:41:25Z</time>
      </trkpt>
      <trkpt lat="44.51109" lon="0.78965">
        <ele>125.6</ele>
        <time>2026-08-15T08:41:26Z</time>
      </trkpt>
      <trkpt lat="44.51107" lon="0.7897">
        <ele>125.6</ele>
        <time>2026-08-15T08:41:27Z</time>
      </trkpt>
      <trkpt lat="44.51105" lon="0.78974">
        <ele>125.6</ele>
        <time>2026-08-15T08:41:28Z</time>
      </trkpt>
      <trkpt lat="44.51103" lon="0.78978">
        <ele>125.6</ele>
        <time>2026-08-15T08:41:29Z</time>
      </trkpt>
      <trkpt lat="44.511" lon="0.78983">
        <ele>125.6</ele>
        <time>2026-08-15T08:41:30Z</time>
      </trkpt>
      <trkpt lat="44.51098" lon="0.78987">
        <ele>126</ele>
        <time>2026-08-15T08:41:31Z</time>
      </trkpt>
      <trkpt lat="44.51096" lon="0.78991">
        <ele>126</ele>
        <time>2026-08-15T08:41:32Z</time>
      </trkpt>
      <trkpt lat="44.51094" lon="0.78995">
        <ele>126.2</ele>
        <time>2026-08-15T08:41:33Z</time>
      </trkpt>
      <trkpt lat="44.51092" lon="0.79">
        <ele>126.4</ele>
        <time>2026-08-15T08:41:34Z</time>
      </trkpt>
      <trkpt lat="44.5109" lon="0.79004">
        <ele>126.6</ele>
        <time>2026-08-15T08:41:35Z</time>
      </trkpt>
      <trkpt lat="44.51088" lon="0.79008">
        <ele>126.6</ele>
        <time>2026-08-15T08:41:36Z</time>
      </trkpt>
      <trkpt lat="44.51086" lon="0.79013">
        <ele>126.6</ele>
        <time>2026-08-15T08:41:37Z</time>
      </trkpt>
      <trkpt lat="44.51084" lon="0.79017">
        <ele>126.6</ele>
        <time>2026-08-15T08:41:38Z</time>
      </trkpt>
      <trkpt lat="44.51082" lon="0.79021">
        <ele>126.6</ele>
        <time>2026-08-15T08:41:39Z</time>
      </trkpt>
      <trkpt lat="44.5108" lon="0.79025">
        <ele>126.6</ele>
        <time>2026-08-15T08:41:40Z</time>
      </trkpt>
      <trkpt lat="44.51079" lon="0.7903">
        <ele>126.8</ele>
        <time>2026-08-15T08:41:41Z</time>
      </trkpt>
      <trkpt lat="44.51077" lon="0.79034">
        <ele>127.2</ele>
        <time>2026-08-15T08:41:42Z</time>
      </trkpt>
      <trkpt lat="44.51075" lon="0.79038">
        <ele>127.4</ele>
        <time>2026-08-15T08:41:43Z</time>
      </trkpt>
      <trkpt lat="44.51073" lon="0.79043">
        <ele>127.6</ele>
        <time>2026-08-15T08:41:44Z</time>
      </trkpt>
      <trkpt lat="44.51071" lon="0.79047">
        <ele>127.6</ele>
        <time>2026-08-15T08:41:45Z</time>
      </trkpt>
      <trkpt lat="44.51069" lon="0.79051">
        <ele>127.8</ele>
        <time>2026-08-15T08:41:46Z</time>
      </trkpt>
      <trkpt lat="44.51067" lon="0.79056">
        <ele>128</ele>
        <time>2026-08-15T08:41:47Z</time>
      </trkpt>
      <trkpt lat="44.51065" lon="0.7906">
        <ele>128</ele>
        <time>2026-08-15T08:41:48Z</time>
      </trkpt>
      <trkpt lat="44.51063" lon="0.79065">
        <ele>128</ele>
        <time>2026-08-15T08:41:49Z</time>
      </trkpt>
      <trkpt lat="44.51061" lon="0.79069">
        <ele>128.2</ele>
        <time>2026-08-15T08:41:50Z</time>
      </trkpt>
      <trkpt lat="44.51059" lon="0.79073">
        <ele>128.2</ele>
        <time>2026-08-15T08:41:51Z</time>
      </trkpt>
      <trkpt lat="44.51057" lon="0.79077">
        <ele>128.4</ele>
        <time>2026-08-15T08:41:52Z</time>
      </trkpt>
      <trkpt lat="44.51055" lon="0.79081">
        <ele>128.6</ele>
        <time>2026-08-15T08:41:53Z</time>
      </trkpt>
      <trkpt lat="44.51053" lon="0.79086">
        <ele>128.6</ele>
        <time>2026-08-15T08:41:54Z</time>
      </trkpt>
      <trkpt lat="44.51051" lon="0.7909">
        <ele>128.8</ele>
        <time>2026-08-15T08:41:55Z</time>
      </trkpt>
      <trkpt lat="44.51049" lon="0.79094">
        <ele>129.2</ele>
        <time>2026-08-15T08:41:56Z</time>
      </trkpt>
      <trkpt lat="44.51047" lon="0.79098">
        <ele>129.2</ele>
        <time>2026-08-15T08:41:57Z</time>
      </trkpt>
      <trkpt lat="44.51045" lon="0.79102">
        <ele>129.4</ele>
        <time>2026-08-15T08:41:58Z</time>
      </trkpt>
      <trkpt lat="44.51044" lon="0.79105">
        <ele>129.6</ele>
        <time>2026-08-15T08:41:59Z</time>
      </trkpt>
      <trkpt lat="44.51042" lon="0.79109">
        <ele>130.2</ele>
        <time>2026-08-15T08:42:00Z</time>
      </trkpt>
      <trkpt lat="44.5104" lon="0.79112">
        <ele>130.4</ele>
        <time>2026-08-15T08:42:01Z</time>
      </trkpt>
      <trkpt lat="44.51038" lon="0.79116">
        <ele>130.6</ele>
        <time>2026-08-15T08:42:02Z</time>
      </trkpt>
      <trkpt lat="44.51037" lon="0.79119">
        <ele>130.8</ele>
        <time>2026-08-15T08:42:03Z</time>
      </trkpt>
      <trkpt lat="44.51035" lon="0.79122">
        <ele>131.2</ele>
        <time>2026-08-15T08:42:04Z</time>
      </trkpt>
      <trkpt lat="44.51033" lon="0.79126">
        <ele>131.6</ele>
        <time>2026-08-15T08:42:05Z</time>
      </trkpt>
      <trkpt lat="44.51031" lon="0.79129">
        <ele>131.6</ele>
        <time>2026-08-15T08:42:06Z</time>
      </trkpt>
      <trkpt lat="44.51029" lon="0.79132">
        <ele>132</ele>
        <time>2026-08-15T08:42:07Z</time>
      </trkpt>
      <trkpt lat="44.51028" lon="0.79136">
        <ele>132.2</ele>
        <time>2026-08-15T08:42:08Z</time>
      </trkpt>
      <trkpt lat="44.51026" lon="0.79139">
        <ele>132.4</ele>
        <time>2026-08-15T08:42:09Z</time>
      </trkpt>
      <trkpt lat="44.51024" lon="0.79142">
        <ele>132.6</ele>
        <time>2026-08-15T08:42:10Z</time>
      </trkpt>
      <trkpt lat="44.51022" lon="0.79145">
        <ele>132.8</ele>
        <time>2026-08-15T08:42:11Z</time>
      </trkpt>
      <trkpt lat="44.51021" lon="0.79148">
        <ele>133</ele>
        <time>2026-08-15T08:42:12Z</time>
      </trkpt>
      <trkpt lat="44.51019" lon="0.79151">
        <ele>133.2</ele>
        <time>2026-08-15T08:42:13Z</time>
      </trkpt>
      <trkpt lat="44.51017" lon="0.79154">
        <ele>133.4</ele>
        <time>2026-08-15T08:42:14Z</time>
      </trkpt>
      <trkpt lat="44.51016" lon="0.79157">
        <ele>133.6</ele>
        <time>2026-08-15T08:42:15Z</time>
      </trkpt>
      <trkpt lat="44.51014" lon="0.7916">
        <ele>134</ele>
        <time>2026-08-15T08:42:16Z</time>
      </trkpt>
      <trkpt lat="44.51012" lon="0.79163">
        <ele>134.4</ele>
        <time>2026-08-15T08:42:17Z</time>
      </trkpt>
      <trkpt lat="44.5101" lon="0.79166">
        <ele>134.6</ele>
        <time>2026-08-15T08:42:18Z</time>
      </trkpt>
      <trkpt lat="44.51009" lon="0.79168">
        <ele>135.2</ele>
        <time>2026-08-15T08:42:19Z</time>
      </trkpt>
      <trkpt lat="44.51008" lon="0.7917">
        <ele>135.4</ele>
        <time>2026-08-15T08:42:20Z</time>
      </trkpt>
      <trkpt lat="44.51007" lon="0.79173">
        <ele>135.6</ele>
        <time>2026-08-15T08:42:21Z</time>
      </trkpt>
      <trkpt lat="44.51005" lon="0.79176">
        <ele>135.8</ele>
        <time>2026-08-15T08:42:22Z</time>
      </trkpt>
      <trkpt lat="44.51003" lon="0.79181">
        <ele>136.2</ele>
        <time>2026-08-15T08:42:23Z</time>
      </trkpt>
      <trkpt lat="44.51001" lon="0.79184">
        <ele>136.4</ele>
        <time>2026-08-15T08:42:24Z</time>
      </trkpt>
      <trkpt lat="44.50999" lon="0.79187">
        <ele>136.6</ele>
        <time>2026-08-15T08:42:25Z</time>
      </trkpt>
      <trkpt lat="44.50998" lon="0.79189">
        <ele>136.6</ele>
        <time>2026-08-15T08:42:26Z</time>
      </trkpt>
      <trkpt lat="44.50997" lon="0.79191">
        <ele>136.8</ele>
        <time>2026-08-15T08:42:27Z</time>
      </trkpt>
      <trkpt lat="44.50995" lon="0.79196">
        <ele>137.2</ele>
        <time>2026-08-15T08:42:28Z</time>
      </trkpt>
      <trkpt lat="44.50993" lon="0.79199">
        <ele>137.6</ele>
        <time>2026-08-15T08:42:29Z</time>
      </trkpt>
      <trkpt lat="44.50991" lon="0.79202">
        <ele>137.6</ele>
        <time>2026-08-15T08:42:30Z</time>
      </trkpt>
      <trkpt lat="44.50989" lon="0.79206">
        <ele>137.8</ele>
        <time>2026-08-15T08:42:31Z</time>
      </trkpt>
      <trkpt lat="44.50988" lon="0.79209">
        <ele>138</ele>
        <time>2026-08-15T08:42:32Z</time>
      </trkpt>
      <trkpt lat="44.50986" lon="0.79212">
        <ele>138.4</ele>
        <time>2026-08-15T08:42:33Z</time>
      </trkpt>
      <trkpt lat="44.50985" lon="0.79215">
        <ele>138.6</ele>
        <time>2026-08-15T08:42:34Z</time>
      </trkpt>
      <trkpt lat="44.50983" lon="0.79218">
        <ele>138.8</ele>
        <time>2026-08-15T08:42:35Z</time>
      </trkpt>
      <trkpt lat="44.50981" lon="0.79221">
        <ele>139</ele>
        <time>2026-08-15T08:42:36Z</time>
      </trkpt>
      <trkpt lat="44.5098" lon="0.79225">
        <ele>139.2</ele>
        <time>2026-08-15T08:42:37Z</time>
      </trkpt>
      <trkpt lat="44.50978" lon="0.79228">
        <ele>139.6</ele>
        <time>2026-08-15T08:42:38Z</time>
      </trkpt>
      <trkpt lat="44.50976" lon="0.79231">
        <ele>139.6</ele>
        <time>2026-08-15T08:42:39Z</time>
      </trkpt>
      <trkpt lat="44.50975" lon="0.79234">
        <ele>140</ele>
        <time>2026-08-15T08:42:40Z</time>
      </trkpt>
      <trkpt lat="44.50973" lon="0.79237">
        <ele>140.2</ele>
        <time>2026-08-15T08:42:41Z</time>
      </trkpt>
      <trkpt lat="44.50971" lon="0.7924">
        <ele>140.6</ele>
        <time>2026-08-15T08:42:42Z</time>
      </trkpt>
      <trkpt lat="44.5097" lon="0.79243">
        <ele>140.6</ele>
        <time>2026-08-15T08:42:43Z</time>
      </trkpt>
      <trkpt lat="44.50968" lon="0.79246">
        <ele>141</ele>
        <time>2026-08-15T08:42:44Z</time>
      </trkpt>
      <trkpt lat="44.50966" lon="0.79249">
        <ele>141.4</ele>
        <time>2026-08-15T08:42:45Z</time>
      </trkpt>
      <trkpt lat="44.50964" lon="0.79252">
        <ele>141.6</ele>
        <time>2026-08-15T08:42:46Z</time>
      </trkpt>
      <trkpt lat="44.50961" lon="0.79255">
        <ele>141.6</ele>
        <time>2026-08-15T08:42:47Z</time>
      </trkpt>
      <trkpt lat="44.50959" lon="0.79257">
        <ele>141.8</ele>
        <time>2026-08-15T08:42:48Z</time>
      </trkpt>
      <trkpt lat="44.50957" lon="0.7926">
        <ele>142.2</ele>
        <time>2026-08-15T08:42:49Z</time>
      </trkpt>
      <trkpt lat="44.50954" lon="0.79263">
        <ele>142.4</ele>
        <time>2026-08-15T08:42:50Z</time>
      </trkpt>
      <trkpt lat="44.50952" lon="0.79265">
        <ele>142.4</ele>
        <time>2026-08-15T08:42:51Z</time>
      </trkpt>
      <trkpt lat="44.5095" lon="0.79269">
        <ele>142.6</ele>
        <time>2026-08-15T08:42:52Z</time>
      </trkpt>
      <trkpt lat="44.50949" lon="0.79272">
        <ele>142.6</ele>
        <time>2026-08-15T08:42:53Z</time>
      </trkpt>
      <trkpt lat="44.50948" lon="0.79276">
        <ele>143</ele>
        <time>2026-08-15T08:42:54Z</time>
      </trkpt>
      <trkpt lat="44.50949" lon="0.7928">
        <ele>143.2</ele>
        <time>2026-08-15T08:42:55Z</time>
      </trkpt>
      <trkpt lat="44.5095" lon="0.79284">
        <ele>143.4</ele>
        <time>2026-08-15T08:42:56Z</time>
      </trkpt>
      <trkpt lat="44.50952" lon="0.79287">
        <ele>143.6</ele>
        <time>2026-08-15T08:42:57Z</time>
      </trkpt>
      <trkpt lat="44.50954" lon="0.79291">
        <ele>143.6</ele>
        <time>2026-08-15T08:42:58Z</time>
      </trkpt>
      <trkpt lat="44.50956" lon="0.79295">
        <ele>143.8</ele>
        <time>2026-08-15T08:42:59Z</time>
      </trkpt>
      <trkpt lat="44.50958" lon="0.79298">
        <ele>144</ele>
        <time>2026-08-15T08:43:00Z</time>
      </trkpt>
      <trkpt lat="44.5096" lon="0.79302">
        <ele>144.2</ele>
        <time>2026-08-15T08:43:01Z</time>
      </trkpt>
      <trkpt lat="44.50962" lon="0.79306">
        <ele>144.4</ele>
        <time>2026-08-15T08:43:02Z</time>
      </trkpt>
      <trkpt lat="44.50965" lon="0.7931">
        <ele>144.4</ele>
        <time>2026-08-15T08:43:03Z</time>
      </trkpt>
      <trkpt lat="44.50967" lon="0.79314">
        <ele>144.6</ele>
        <time>2026-08-15T08:43:04Z</time>
      </trkpt>
      <trkpt lat="44.50969" lon="0.79318">
        <ele>144.6</ele>
        <time>2026-08-15T08:43:05Z</time>
      </trkpt>
      <trkpt lat="44.50972" lon="0.79323">
        <ele>144.6</ele>
        <time>2026-08-15T08:43:06Z</time>
      </trkpt>
      <trkpt lat="44.50975" lon="0.79327">
        <ele>144.8</ele>
        <time>2026-08-15T08:43:07Z</time>
      </trkpt>
      <trkpt lat="44.50978" lon="0.79331">
        <ele>144.8</ele>
        <time>2026-08-15T08:43:08Z</time>
      </trkpt>
      <trkpt lat="44.50981" lon="0.79335">
        <ele>144.8</ele>
        <time>2026-08-15T08:43:09Z</time>
      </trkpt>
      <trkpt lat="44.50985" lon="0.79338">
        <ele>144.8</ele>
        <time>2026-08-15T08:43:10Z</time>
      </trkpt>
      <trkpt lat="44.50988" lon="0.79342">
        <ele>145</ele>
        <time>2026-08-15T08:43:11Z</time>
      </trkpt>
      <trkpt lat="44.50992" lon="0.79346">
        <ele>145</ele>
        <time>2026-08-15T08:43:12Z</time>
      </trkpt>
      <trkpt lat="44.50995" lon="0.79349">
        <ele>145</ele>
        <time>2026-08-15T08:43:13Z</time>
      </trkpt>
      <trkpt lat="44.50999" lon="0.79352">
        <ele>145</ele>
        <time>2026-08-15T08:43:14Z</time>
      </trkpt>
      <trkpt lat="44.51002" lon="0.79354">
        <ele>145</ele>
        <time>2026-08-15T08:43:15Z</time>
      </trkpt>
      <trkpt lat="44.51006" lon="0.79357">
        <ele>145</ele>
        <time>2026-08-15T08:43:16Z</time>
      </trkpt>
      <trkpt lat="44.5101" lon="0.79359">
        <ele>145</ele>
        <time>2026-08-15T08:43:17Z</time>
      </trkpt>
      <trkpt lat="44.51013" lon="0.79362">
        <ele>145</ele>
        <time>2026-08-15T08:43:18Z</time>
      </trkpt>
      <trkpt lat="44.51017" lon="0.79364">
        <ele>145</ele>
        <time>2026-08-15T08:43:19Z</time>
      </trkpt>
      <trkpt lat="44.51021" lon="0.79366">
        <ele>144.8</ele>
        <time>2026-08-15T08:43:20Z</time>
      </trkpt>
      <trkpt lat="44.51026" lon="0.79367">
        <ele>144.8</ele>
        <time>2026-08-15T08:43:21Z</time>
      </trkpt>
      <trkpt lat="44.5103" lon="0.79369">
        <ele>144.8</ele>
        <time>2026-08-15T08:43:22Z</time>
      </trkpt>
      <trkpt lat="44.51035" lon="0.79371">
        <ele>144.8</ele>
        <time>2026-08-15T08:43:23Z</time>
      </trkpt>
      <trkpt lat="44.51039" lon="0.79372">
        <ele>144.8</ele>
        <time>2026-08-15T08:43:24Z</time>
      </trkpt>
      <trkpt lat="44.51043" lon="0.79374">
        <ele>144.8</ele>
        <time>2026-08-15T08:43:25Z</time>
      </trkpt>
      <trkpt lat="44.51048" lon="0.79375">
        <ele>144.8</ele>
        <time>2026-08-15T08:43:26Z</time>
      </trkpt>
      <trkpt lat="44.51052" lon="0.79377">
        <ele>145</ele>
        <time>2026-08-15T08:43:27Z</time>
      </trkpt>
      <trkpt lat="44.51057" lon="0.79379">
        <ele>145</ele>
        <time>2026-08-15T08:43:28Z</time>
      </trkpt>
      <trkpt lat="44.51061" lon="0.7938">
        <ele>145</ele>
        <time>2026-08-15T08:43:29Z</time>
      </trkpt>
      <trkpt lat="44.51066" lon="0.79382">
        <ele>145</ele>
        <time>2026-08-15T08:43:30Z</time>
      </trkpt>
      <trkpt lat="44.5107" lon="0.79384">
        <ele>144.8</ele>
        <time>2026-08-15T08:43:31Z</time>
      </trkpt>
      <trkpt lat="44.51075" lon="0.79386">
        <ele>144.8</ele>
        <time>2026-08-15T08:43:32Z</time>
      </trkpt>
      <trkpt lat="44.5108" lon="0.79388">
        <ele>144.8</ele>
        <time>2026-08-15T08:43:33Z</time>
      </trkpt>
      <trkpt lat="44.51084" lon="0.79389">
        <ele>144.8</ele>
        <time>2026-08-15T08:43:34Z</time>
      </trkpt>
      <trkpt lat="44.51089" lon="0.79391">
        <ele>144.8</ele>
        <time>2026-08-15T08:43:35Z</time>
      </trkpt>
      <trkpt lat="44.51094" lon="0.79393">
        <ele>144.8</ele>
        <time>2026-08-15T08:43:36Z</time>
      </trkpt>
      <trkpt lat="44.51099" lon="0.79395">
        <ele>144.8</ele>
        <time>2026-08-15T08:43:37Z</time>
      </trkpt>
      <trkpt lat="44.51104" lon="0.79397">
        <ele>144.8</ele>
        <time>2026-08-15T08:43:38Z</time>
      </trkpt>
      <trkpt lat="44.51109" lon="0.79399">
        <ele>144.8</ele>
        <time>2026-08-15T08:43:39Z</time>
      </trkpt>
      <trkpt lat="44.51114" lon="0.79401">
        <ele>144.8</ele>
        <time>2026-08-15T08:43:40Z</time>
      </trkpt>
      <trkpt lat="44.51119" lon="0.79403">
        <ele>144.8</ele>
        <time>2026-08-15T08:43:41Z</time>
      </trkpt>
      <trkpt lat="44.51123" lon="0.79404">
        <ele>145</ele>
        <time>2026-08-15T08:43:42Z</time>
      </trkpt>
      <trkpt lat="44.51128" lon="0.79406">
        <ele>145</ele>
        <time>2026-08-15T08:43:43Z</time>
      </trkpt>
      <trkpt lat="44.51133" lon="0.79408">
        <ele>145.2</ele>
        <time>2026-08-15T08:43:44Z</time>
      </trkpt>
      <trkpt lat="44.51137" lon="0.7941">
        <ele>145.4</ele>
        <time>2026-08-15T08:43:45Z</time>
      </trkpt>
      <trkpt lat="44.51141" lon="0.79412">
        <ele>145.6</ele>
        <time>2026-08-15T08:43:46Z</time>
      </trkpt>
      <trkpt lat="44.51145" lon="0.79414">
        <ele>145.6</ele>
        <time>2026-08-15T08:43:47Z</time>
      </trkpt>
      <trkpt lat="44.51149" lon="0.79416">
        <ele>145.8</ele>
        <time>2026-08-15T08:43:48Z</time>
      </trkpt>
      <trkpt lat="44.51153" lon="0.79418">
        <ele>146</ele>
        <time>2026-08-15T08:43:49Z</time>
      </trkpt>
      <trkpt lat="44.51157" lon="0.7942">
        <ele>146.2</ele>
        <time>2026-08-15T08:43:50Z</time>
      </trkpt>
      <trkpt lat="44.5116" lon="0.79423">
        <ele>146.4</ele>
        <time>2026-08-15T08:43:51Z</time>
      </trkpt>
      <trkpt lat="44.51164" lon="0.79426">
        <ele>146.6</ele>
        <time>2026-08-15T08:43:52Z</time>
      </trkpt>
      <trkpt lat="44.51167" lon="0.79429">
        <ele>146.6</ele>
        <time>2026-08-15T08:43:53Z</time>
      </trkpt>
      <trkpt lat="44.51171" lon="0.79432">
        <ele>147.2</ele>
        <time>2026-08-15T08:43:54Z</time>
      </trkpt>
      <trkpt lat="44.51174" lon="0.79435">
        <ele>147.4</ele>
        <time>2026-08-15T08:43:55Z</time>
      </trkpt>
      <trkpt lat="44.51177" lon="0.79438">
        <ele>147.6</ele>
        <time>2026-08-15T08:43:56Z</time>
      </trkpt>
      <trkpt lat="44.51181" lon="0.79442">
        <ele>147.8</ele>
        <time>2026-08-15T08:43:57Z</time>
      </trkpt>
      <trkpt lat="44.51184" lon="0.79446">
        <ele>147.8</ele>
        <time>2026-08-15T08:43:58Z</time>
      </trkpt>
      <trkpt lat="44.51187" lon="0.7945">
        <ele>148</ele>
        <time>2026-08-15T08:43:59Z</time>
      </trkpt>
      <trkpt lat="44.5119" lon="0.79454">
        <ele>148.2</ele>
        <time>2026-08-15T08:44:00Z</time>
      </trkpt>
      <trkpt lat="44.51193" lon="0.79459">
        <ele>148.2</ele>
        <time>2026-08-15T08:44:01Z</time>
      </trkpt>
      <trkpt lat="44.51196" lon="0.79464">
        <ele>148.2</ele>
        <time>2026-08-15T08:44:02Z</time>
      </trkpt>
      <trkpt lat="44.51199" lon="0.79469">
        <ele>148.2</ele>
        <time>2026-08-15T08:44:03Z</time>
      </trkpt>
      <trkpt lat="44.51202" lon="0.79474">
        <ele>148.2</ele>
        <time>2026-08-15T08:44:04Z</time>
      </trkpt>
      <trkpt lat="44.51205" lon="0.7948">
        <ele>148.2</ele>
        <time>2026-08-15T08:44:05Z</time>
      </trkpt>
      <trkpt lat="44.51207" lon="0.79487">
        <ele>148.2</ele>
        <time>2026-08-15T08:44:06Z</time>
      </trkpt>
      <trkpt lat="44.5121" lon="0.79494">
        <ele>148.2</ele>
        <time>2026-08-15T08:44:07Z</time>
      </trkpt>
      <trkpt lat="44.51213" lon="0.79503">
        <ele>148</ele>
        <time>2026-08-15T08:44:08Z</time>
      </trkpt>
      <trkpt lat="44.51216" lon="0.79511">
        <ele>147.8</ele>
        <time>2026-08-15T08:44:09Z</time>
      </trkpt>
      <trkpt lat="44.51218" lon="0.79519">
        <ele>147.6</ele>
        <time>2026-08-15T08:44:10Z</time>
      </trkpt>
      <trkpt lat="44.5122" lon="0.79527">
        <ele>147.6</ele>
        <time>2026-08-15T08:44:11Z</time>
      </trkpt>
      <trkpt lat="44.51221" lon="0.79536">
        <ele>147.6</ele>
        <time>2026-08-15T08:44:12Z</time>
      </trkpt>
      <trkpt lat="44.51223" lon="0.79544">
        <ele>147.4</ele>
        <time>2026-08-15T08:44:13Z</time>
      </trkpt>
      <trkpt lat="44.51225" lon="0.79553">
        <ele>147.4</ele>
        <time>2026-08-15T08:44:14Z</time>
      </trkpt>
      <trkpt lat="44.51226" lon="0.79562">
        <ele>147.2</ele>
        <time>2026-08-15T08:44:15Z</time>
      </trkpt>
      <trkpt lat="44.51228" lon="0.79571">
        <ele>147.2</ele>
        <time>2026-08-15T08:44:16Z</time>
      </trkpt>
      <trkpt lat="44.5123" lon="0.7958">
        <ele>147</ele>
        <time>2026-08-15T08:44:17Z</time>
      </trkpt>
      <trkpt lat="44.51231" lon="0.7959">
        <ele>146.8</ele>
        <time>2026-08-15T08:44:18Z</time>
      </trkpt>
      <trkpt lat="44.51233" lon="0.796">
        <ele>146.6</ele>
        <time>2026-08-15T08:44:19Z</time>
      </trkpt>
      <trkpt lat="44.51235" lon="0.7961">
        <ele>146.4</ele>
        <time>2026-08-15T08:44:20Z</time>
      </trkpt>
      <trkpt lat="44.51236" lon="0.7962">
        <ele>146.4</ele>
        <time>2026-08-15T08:44:21Z</time>
      </trkpt>
      <trkpt lat="44.51238" lon="0.7963">
        <ele>146</ele>
        <time>2026-08-15T08:44:22Z</time>
      </trkpt>
      <trkpt lat="44.5124" lon="0.7964">
        <ele>145.8</ele>
        <time>2026-08-15T08:44:23Z</time>
      </trkpt>
      <trkpt lat="44.51242" lon="0.79651">
        <ele>145.6</ele>
        <time>2026-08-15T08:44:24Z</time>
      </trkpt>
      <trkpt lat="44.51244" lon="0.79661">
        <ele>145.4</ele>
        <time>2026-08-15T08:44:25Z</time>
      </trkpt>
      <trkpt lat="44.51245" lon="0.79671">
        <ele>145.4</ele>
        <time>2026-08-15T08:44:26Z</time>
      </trkpt>
      <trkpt lat="44.51247" lon="0.79681">
        <ele>145.2</ele>
        <time>2026-08-15T08:44:27Z</time>
      </trkpt>
      <trkpt lat="44.51248" lon="0.79691">
        <ele>145.2</ele>
        <time>2026-08-15T08:44:28Z</time>
      </trkpt>
      <trkpt lat="44.5125" lon="0.797">
        <ele>145.2</ele>
        <time>2026-08-15T08:44:29Z</time>
      </trkpt>
      <trkpt lat="44.51251" lon="0.79709">
        <ele>145.2</ele>
        <time>2026-08-15T08:44:30Z</time>
      </trkpt>
      <trkpt lat="44.51253" lon="0.79717">
        <ele>145.4</ele>
        <time>2026-08-15T08:44:31Z</time>
      </trkpt>
      <trkpt lat="44.51254" lon="0.79725">
        <ele>145.4</ele>
        <time>2026-08-15T08:44:32Z</time>
      </trkpt>
      <trkpt lat="44.51255" lon="0.79733">
        <ele>145.6</ele>
        <time>2026-08-15T08:44:33Z</time>
      </trkpt>
      <trkpt lat="44.51256" lon="0.7974">
        <ele>145.8</ele>
        <time>2026-08-15T08:44:34Z</time>
      </trkpt>
      <trkpt lat="44.51258" lon="0.79747">
        <ele>145.8</ele>
        <time>2026-08-15T08:44:35Z</time>
      </trkpt>
      <trkpt lat="44.51258" lon="0.79752">
        <ele>146.2</ele>
        <time>2026-08-15T08:44:36Z</time>
      </trkpt>
      <trkpt lat="44.51259" lon="0.79757">
        <ele>146.4</ele>
        <time>2026-08-15T08:44:37Z</time>
      </trkpt>
      <trkpt lat="44.5126" lon="0.79763">
        <ele>146.6</ele>
        <time>2026-08-15T08:44:38Z</time>
      </trkpt>
      <trkpt lat="44.51261" lon="0.79769">
        <ele>146.8</ele>
        <time>2026-08-15T08:44:39Z</time>
      </trkpt>
      <trkpt lat="44.51263" lon="0.79775">
        <ele>147.2</ele>
        <time>2026-08-15T08:44:40Z</time>
      </trkpt>
      <trkpt lat="44.51263" lon="0.7978">
        <ele>147.6</ele>
        <time>2026-08-15T08:44:41Z</time>
      </trkpt>
      <trkpt lat="44.51264" lon="0.79786">
        <ele>147.8</ele>
        <time>2026-08-15T08:44:42Z</time>
      </trkpt>
      <trkpt lat="44.51265" lon="0.79791">
        <ele>148.2</ele>
        <time>2026-08-15T08:44:43Z</time>
      </trkpt>
      <trkpt lat="44.51266" lon="0.79797">
        <ele>148.4</ele>
        <time>2026-08-15T08:44:44Z</time>
      </trkpt>
      <trkpt lat="44.51267" lon="0.79802">
        <ele>148.6</ele>
        <time>2026-08-15T08:44:45Z</time>
      </trkpt>
      <trkpt lat="44.51268" lon="0.79807">
        <ele>148.8</ele>
        <time>2026-08-15T08:44:46Z</time>
      </trkpt>
      <trkpt lat="44.5127" lon="0.79813">
        <ele>149.2</ele>
        <time>2026-08-15T08:44:47Z</time>
      </trkpt>
      <trkpt lat="44.51271" lon="0.79818">
        <ele>149.6</ele>
        <time>2026-08-15T08:44:48Z</time>
      </trkpt>
      <trkpt lat="44.51272" lon="0.79824">
        <ele>149.6</ele>
        <time>2026-08-15T08:44:49Z</time>
      </trkpt>
      <trkpt lat="44.51273" lon="0.79829">
        <ele>150</ele>
        <time>2026-08-15T08:44:50Z</time>
      </trkpt>
      <trkpt lat="44.51274" lon="0.79834">
        <ele>150.4</ele>
        <time>2026-08-15T08:44:51Z</time>
      </trkpt>
      <trkpt lat="44.51275" lon="0.7984">
        <ele>150.6</ele>
        <time>2026-08-15T08:44:52Z</time>
      </trkpt>
      <trkpt lat="44.51277" lon="0.79845">
        <ele>150.8</ele>
        <time>2026-08-15T08:44:53Z</time>
      </trkpt>
      <trkpt lat="44.51278" lon="0.79851">
        <ele>151</ele>
        <time>2026-08-15T08:44:54Z</time>
      </trkpt>
      <trkpt lat="44.5128" lon="0.79857">
        <ele>151.2</ele>
        <time>2026-08-15T08:44:55Z</time>
      </trkpt>
      <trkpt lat="44.51282" lon="0.79862">
        <ele>151.4</ele>
        <time>2026-08-15T08:44:56Z</time>
      </trkpt>
      <trkpt lat="44.51284" lon="0.79869">
        <ele>151.4</ele>
        <time>2026-08-15T08:44:57Z</time>
      </trkpt>
      <trkpt lat="44.51287" lon="0.79875">
        <ele>151.4</ele>
        <time>2026-08-15T08:44:58Z</time>
      </trkpt>
      <trkpt lat="44.51291" lon="0.79881">
        <ele>151.4</ele>
        <time>2026-08-15T08:44:59Z</time>
      </trkpt>
      <trkpt lat="44.51296" lon="0.7989">
        <ele>151.2</ele>
        <time>2026-08-15T08:45:00Z</time>
      </trkpt>
      <trkpt lat="44.513" lon="0.79898">
        <ele>150.8</ele>
        <time>2026-08-15T08:45:01Z</time>
      </trkpt>
      <trkpt lat="44.51305" lon="0.79905">
        <ele>150.6</ele>
        <time>2026-08-15T08:45:02Z</time>
      </trkpt>
      <trkpt lat="44.5131" lon="0.79911">
        <ele>150.2</ele>
        <time>2026-08-15T08:45:03Z</time>
      </trkpt>
      <trkpt lat="44.51316" lon="0.79917">
        <ele>149.6</ele>
        <time>2026-08-15T08:45:04Z</time>
      </trkpt>
      <trkpt lat="44.51322" lon="0.79924">
        <ele>149.2</ele>
        <time>2026-08-15T08:45:05Z</time>
      </trkpt>
      <trkpt lat="44.51329" lon="0.7993">
        <ele>148.6</ele>
        <time>2026-08-15T08:45:06Z</time>
      </trkpt>
      <trkpt lat="44.51335" lon="0.79935">
        <ele>148.4</ele>
        <time>2026-08-15T08:45:07Z</time>
      </trkpt>
      <trkpt lat="44.51342" lon="0.79941">
        <ele>148.2</ele>
        <time>2026-08-15T08:45:08Z</time>
      </trkpt>
      <trkpt lat="44.51349" lon="0.79947">
        <ele>147.8</ele>
        <time>2026-08-15T08:45:09Z</time>
      </trkpt>
      <trkpt lat="44.51356" lon="0.79952">
        <ele>147.6</ele>
        <time>2026-08-15T08:45:10Z</time>
      </trkpt>
      <trkpt lat="44.51363" lon="0.79958">
        <ele>147.6</ele>
        <time>2026-08-15T08:45:11Z</time>
      </trkpt>
      <trkpt lat="44.51371" lon="0.79964">
        <ele>147.4</ele>
        <time>2026-08-15T08:45:12Z</time>
      </trkpt>
      <trkpt lat="44.51378" lon="0.7997">
        <ele>146.8</ele>
        <time>2026-08-15T08:45:13Z</time>
      </trkpt>
      <trkpt lat="44.51385" lon="0.79978">
        <ele>146.6</ele>
        <time>2026-08-15T08:45:14Z</time>
      </trkpt>
      <trkpt lat="44.51391" lon="0.79986">
        <ele>146.2</ele>
        <time>2026-08-15T08:45:15Z</time>
      </trkpt>
      <trkpt lat="44.51397" lon="0.79995">
        <ele>145.8</ele>
        <time>2026-08-15T08:45:16Z</time>
      </trkpt>
      <trkpt lat="44.51402" lon="0.80005">
        <ele>145.6</ele>
        <time>2026-08-15T08:45:17Z</time>
      </trkpt>
      <trkpt lat="44.51406" lon="0.80015">
        <ele>145.4</ele>
        <time>2026-08-15T08:45:18Z</time>
      </trkpt>
      <trkpt lat="44.5141" lon="0.80026">
        <ele>145.2</ele>
        <time>2026-08-15T08:45:19Z</time>
      </trkpt>
      <trkpt lat="44.51413" lon="0.80037">
        <ele>145</ele>
        <time>2026-08-15T08:45:20Z</time>
      </trkpt>
      <trkpt lat="44.51416" lon="0.80048">
        <ele>144.8</ele>
        <time>2026-08-15T08:45:21Z</time>
      </trkpt>
      <trkpt lat="44.5142" lon="0.80058">
        <ele>144.6</ele>
        <time>2026-08-15T08:45:22Z</time>
      </trkpt>
      <trkpt lat="44.51423" lon="0.80069">
        <ele>144.4</ele>
        <time>2026-08-15T08:45:23Z</time>
      </trkpt>
      <trkpt lat="44.51427" lon="0.8008">
        <ele>144.4</ele>
        <time>2026-08-15T08:45:24Z</time>
      </trkpt>
      <trkpt lat="44.5143" lon="0.80091">
        <ele>144.2</ele>
        <time>2026-08-15T08:45:25Z</time>
      </trkpt>
      <trkpt lat="44.51434" lon="0.80101">
        <ele>144.2</ele>
        <time>2026-08-15T08:45:26Z</time>
      </trkpt>
      <trkpt lat="44.51437" lon="0.80112">
        <ele>144</ele>
        <time>2026-08-15T08:45:27Z</time>
      </trkpt>
      <trkpt lat="44.51441" lon="0.80123">
        <ele>143.8</ele>
        <time>2026-08-15T08:45:28Z</time>
      </trkpt>
      <trkpt lat="44.51444" lon="0.80133">
        <ele>143.8</ele>
        <time>2026-08-15T08:45:29Z</time>
      </trkpt>
      <trkpt lat="44.51448" lon="0.80144">
        <ele>143.8</ele>
        <time>2026-08-15T08:45:30Z</time>
      </trkpt>
      <trkpt lat="44.51451" lon="0.80154">
        <ele>143.6</ele>
        <time>2026-08-15T08:45:31Z</time>
      </trkpt>
      <trkpt lat="44.51455" lon="0.80165">
        <ele>143.6</ele>
        <time>2026-08-15T08:45:32Z</time>
      </trkpt>
      <trkpt lat="44.51458" lon="0.80175">
        <ele>143.4</ele>
        <time>2026-08-15T08:45:33Z</time>
      </trkpt>
      <trkpt lat="44.51461" lon="0.80186">
        <ele>143.2</ele>
        <time>2026-08-15T08:45:34Z</time>
      </trkpt>
      <trkpt lat="44.51465" lon="0.80196">
        <ele>142.8</ele>
        <time>2026-08-15T08:45:35Z</time>
      </trkpt>
      <trkpt lat="44.51468" lon="0.80206">
        <ele>142.6</ele>
        <time>2026-08-15T08:45:36Z</time>
      </trkpt>
      <trkpt lat="44.51471" lon="0.80216">
        <ele>142.6</ele>
        <time>2026-08-15T08:45:37Z</time>
      </trkpt>
      <trkpt lat="44.51474" lon="0.80226">
        <ele>142.6</ele>
        <time>2026-08-15T08:45:38Z</time>
      </trkpt>
      <trkpt lat="44.51477" lon="0.80235">
        <ele>142.6</ele>
        <time>2026-08-15T08:45:39Z</time>
      </trkpt>
      <trkpt lat="44.5148" lon="0.80244">
        <ele>142.4</ele>
        <time>2026-08-15T08:45:40Z</time>
      </trkpt>
      <trkpt lat="44.51483" lon="0.80254">
        <ele>142.4</ele>
        <time>2026-08-15T08:45:41Z</time>
      </trkpt>
      <trkpt lat="44.51486" lon="0.80263">
        <ele>142.4</ele>
        <time>2026-08-15T08:45:42Z</time>
      </trkpt>
      <trkpt lat="44.51489" lon="0.80271">
        <ele>142.4</ele>
        <time>2026-08-15T08:45:43Z</time>
      </trkpt>
      <trkpt lat="44.51491" lon="0.8028">
        <ele>142.4</ele>
        <time>2026-08-15T08:45:44Z</time>
      </trkpt>
      <trkpt lat="44.51494" lon="0.80288">
        <ele>142.6</ele>
        <time>2026-08-15T08:45:45Z</time>
      </trkpt>
      <trkpt lat="44.51497" lon="0.80297">
        <ele>142.6</ele>
        <time>2026-08-15T08:45:46Z</time>
      </trkpt>
      <trkpt lat="44.515" lon="0.80305">
        <ele>142.6</ele>
        <time>2026-08-15T08:45:47Z</time>
      </trkpt>
      <trkpt lat="44.51503" lon="0.80313">
        <ele>142.6</ele>
        <time>2026-08-15T08:45:48Z</time>
      </trkpt>
      <trkpt lat="44.51506" lon="0.80321">
        <ele>142.8</ele>
        <time>2026-08-15T08:45:49Z</time>
      </trkpt>
      <trkpt lat="44.51509" lon="0.80329">
        <ele>142.8</ele>
        <time>2026-08-15T08:45:50Z</time>
      </trkpt>
      <trkpt lat="44.51512" lon="0.80336">
        <ele>143</ele>
        <time>2026-08-15T08:45:51Z</time>
      </trkpt>
      <trkpt lat="44.51516" lon="0.80344">
        <ele>143.2</ele>
        <time>2026-08-15T08:45:52Z</time>
      </trkpt>
      <trkpt lat="44.51519" lon="0.80351">
        <ele>143.2</ele>
        <time>2026-08-15T08:45:53Z</time>
      </trkpt>
      <trkpt lat="44.51523" lon="0.80358">
        <ele>143.2</ele>
        <time>2026-08-15T08:45:54Z</time>
      </trkpt>
      <trkpt lat="44.51526" lon="0.80365">
        <ele>143.2</ele>
        <time>2026-08-15T08:45:55Z</time>
      </trkpt>
      <trkpt lat="44.5153" lon="0.80372">
        <ele>143.2</ele>
        <time>2026-08-15T08:45:56Z</time>
      </trkpt>
      <trkpt lat="44.51534" lon="0.80379">
        <ele>143.4</ele>
        <time>2026-08-15T08:45:57Z</time>
      </trkpt>
      <trkpt lat="44.51538" lon="0.80386">
        <ele>143.4</ele>
        <time>2026-08-15T08:45:58Z</time>
      </trkpt>
      <trkpt lat="44.51542" lon="0.80393">
        <ele>143.4</ele>
        <time>2026-08-15T08:45:59Z</time>
      </trkpt>
      <trkpt lat="44.51546" lon="0.804">
        <ele>143.6</ele>
        <time>2026-08-15T08:46:00Z</time>
      </trkpt>
      <trkpt lat="44.51551" lon="0.80406">
        <ele>143.6</ele>
        <time>2026-08-15T08:46:01Z</time>
      </trkpt>
      <trkpt lat="44.51555" lon="0.80413">
        <ele>143.6</ele>
        <time>2026-08-15T08:46:02Z</time>
      </trkpt>
      <trkpt lat="44.51559" lon="0.80419">
        <ele>143.6</ele>
        <time>2026-08-15T08:46:03Z</time>
      </trkpt>
      <trkpt lat="44.51564" lon="0.80425">
        <ele>143.8</ele>
        <time>2026-08-15T08:46:04Z</time>
      </trkpt>
      <trkpt lat="44.51568" lon="0.80431">
        <ele>143.8</ele>
        <time>2026-08-15T08:46:05Z</time>
      </trkpt>
      <trkpt lat="44.51573" lon="0.80437">
        <ele>144.2</ele>
        <time>2026-08-15T08:46:06Z</time>
      </trkpt>
      <trkpt lat="44.51577" lon="0.80443">
        <ele>144.2</ele>
        <time>2026-08-15T08:46:07Z</time>
      </trkpt>
      <trkpt lat="44.51581" lon="0.80449">
        <ele>144.4</ele>
        <time>2026-08-15T08:46:08Z</time>
      </trkpt>
      <trkpt lat="44.51586" lon="0.80455">
        <ele>144.4</ele>
        <time>2026-08-15T08:46:09Z</time>
      </trkpt>
      <trkpt lat="44.5159" lon="0.8046">
        <ele>144.6</ele>
        <time>2026-08-15T08:46:10Z</time>
      </trkpt>
      <trkpt lat="44.51595" lon="0.80465">
        <ele>144.8</ele>
        <time>2026-08-15T08:46:11Z</time>
      </trkpt>
      <trkpt lat="44.51599" lon="0.8047">
        <ele>145</ele>
        <time>2026-08-15T08:46:12Z</time>
      </trkpt>
      <trkpt lat="44.51604" lon="0.80475">
        <ele>145.2</ele>
        <time>2026-08-15T08:46:13Z</time>
      </trkpt>
      <trkpt lat="44.51608" lon="0.8048">
        <ele>145.2</ele>
        <time>2026-08-15T08:46:14Z</time>
      </trkpt>
      <trkpt lat="44.51613" lon="0.80485">
        <ele>145.4</ele>
        <time>2026-08-15T08:46:15Z</time>
      </trkpt>
      <trkpt lat="44.51617" lon="0.80489">
        <ele>145.6</ele>
        <time>2026-08-15T08:46:16Z</time>
      </trkpt>
      <trkpt lat="44.51621" lon="0.80493">
        <ele>145.6</ele>
        <time>2026-08-15T08:46:17Z</time>
      </trkpt>
      <trkpt lat="44.51625" lon="0.80498">
        <ele>145.8</ele>
        <time>2026-08-15T08:46:18Z</time>
      </trkpt>
      <trkpt lat="44.5163" lon="0.80502">
        <ele>146</ele>
        <time>2026-08-15T08:46:19Z</time>
      </trkpt>
      <trkpt lat="44.51633" lon="0.80505">
        <ele>146.2</ele>
        <time>2026-08-15T08:46:20Z</time>
      </trkpt>
      <trkpt lat="44.51636" lon="0.80509">
        <ele>146.4</ele>
        <time>2026-08-15T08:46:21Z</time>
      </trkpt>
      <trkpt lat="44.5164" lon="0.80514">
        <ele>146.6</ele>
        <time>2026-08-15T08:46:22Z</time>
      </trkpt>
      <trkpt lat="44.51644" lon="0.80518">
        <ele>146.6</ele>
        <time>2026-08-15T08:46:23Z</time>
      </trkpt>
      <trkpt lat="44.51647" lon="0.80522">
        <ele>146.8</ele>
        <time>2026-08-15T08:46:24Z</time>
      </trkpt>
      <trkpt lat="44.5165" lon="0.80525">
        <ele>147.2</ele>
        <time>2026-08-15T08:46:25Z</time>
      </trkpt>
      <trkpt lat="44.51653" lon="0.80528">
        <ele>147.4</ele>
        <time>2026-08-15T08:46:26Z</time>
      </trkpt>
      <trkpt lat="44.51656" lon="0.80532">
        <ele>147.6</ele>
        <time>2026-08-15T08:46:27Z</time>
      </trkpt>
      <trkpt lat="44.5166" lon="0.80535">
        <ele>147.6</ele>
        <time>2026-08-15T08:46:28Z</time>
      </trkpt>
      <trkpt lat="44.51664" lon="0.80539">
        <ele>147.8</ele>
        <time>2026-08-15T08:46:29Z</time>
      </trkpt>
      <trkpt lat="44.51668" lon="0.80543">
        <ele>147.8</ele>
        <time>2026-08-15T08:46:30Z</time>
      </trkpt>
      <trkpt lat="44.51672" lon="0.80547">
        <ele>148</ele>
        <time>2026-08-15T08:46:31Z</time>
      </trkpt>
      <trkpt lat="44.51676" lon="0.80552">
        <ele>148.2</ele>
        <time>2026-08-15T08:46:32Z</time>
      </trkpt>
      <trkpt lat="44.51679" lon="0.80556">
        <ele>148.2</ele>
        <time>2026-08-15T08:46:33Z</time>
      </trkpt>
      <trkpt lat="44.51683" lon="0.8056">
        <ele>148.4</ele>
        <time>2026-08-15T08:46:34Z</time>
      </trkpt>
      <trkpt lat="44.51686" lon="0.80564">
        <ele>148.4</ele>
        <time>2026-08-15T08:46:35Z</time>
      </trkpt>
      <trkpt lat="44.51689" lon="0.80569">
        <ele>148.6</ele>
        <time>2026-08-15T08:46:36Z</time>
      </trkpt>
      <trkpt lat="44.51692" lon="0.80573">
        <ele>148.8</ele>
        <time>2026-08-15T08:46:37Z</time>
      </trkpt>
      <trkpt lat="44.51695" lon="0.80578">
        <ele>149.2</ele>
        <time>2026-08-15T08:46:38Z</time>
      </trkpt>
      <trkpt lat="44.51697" lon="0.80583">
        <ele>149.4</ele>
        <time>2026-08-15T08:46:39Z</time>
      </trkpt>
      <trkpt lat="44.51699" lon="0.80588">
        <ele>149.6</ele>
        <time>2026-08-15T08:46:40Z</time>
      </trkpt>
      <trkpt lat="44.51702" lon="0.80594">
        <ele>149.8</ele>
        <time>2026-08-15T08:46:41Z</time>
      </trkpt>
      <trkpt lat="44.51704" lon="0.80599">
        <ele>149.8</ele>
        <time>2026-08-15T08:46:42Z</time>
      </trkpt>
      <trkpt lat="44.51706" lon="0.80605">
        <ele>150.2</ele>
        <time>2026-08-15T08:46:43Z</time>
      </trkpt>
      <trkpt lat="44.51708" lon="0.8061">
        <ele>150.2</ele>
        <time>2026-08-15T08:46:44Z</time>
      </trkpt>
      <trkpt lat="44.51711" lon="0.80616">
        <ele>150.2</ele>
        <time>2026-08-15T08:46:45Z</time>
      </trkpt>
      <trkpt lat="44.51713" lon="0.80622">
        <ele>150.4</ele>
        <time>2026-08-15T08:46:46Z</time>
      </trkpt>
      <trkpt lat="44.51715" lon="0.80628">
        <ele>150.6</ele>
        <time>2026-08-15T08:46:47Z</time>
      </trkpt>
      <trkpt lat="44.51717" lon="0.80634">
        <ele>150.6</ele>
        <time>2026-08-15T08:46:48Z</time>
      </trkpt>
      <trkpt lat="44.5172" lon="0.80639">
        <ele>150.6</ele>
        <time>2026-08-15T08:46:49Z</time>
      </trkpt>
      <trkpt lat="44.51722" lon="0.80645">
        <ele>150.8</ele>
        <time>2026-08-15T08:46:50Z</time>
      </trkpt>
      <trkpt lat="44.51724" lon="0.80651">
        <ele>150.8</ele>
        <time>2026-08-15T08:46:51Z</time>
      </trkpt>
      <trkpt lat="44.51726" lon="0.80657">
        <ele>150.8</ele>
        <time>2026-08-15T08:46:52Z</time>
      </trkpt>
      <trkpt lat="44.51728" lon="0.80662">
        <ele>150.8</ele>
        <time>2026-08-15T08:46:53Z</time>
      </trkpt>
      <trkpt lat="44.5173" lon="0.80668">
        <ele>150.8</ele>
        <time>2026-08-15T08:46:54Z</time>
      </trkpt>
      <trkpt lat="44.51732" lon="0.80675">
        <ele>150.8</ele>
        <time>2026-08-15T08:46:55Z</time>
      </trkpt>
      <trkpt lat="44.51734" lon="0.80681">
        <ele>150.8</ele>
        <time>2026-08-15T08:46:56Z</time>
      </trkpt>
      <trkpt lat="44.51736" lon="0.80687">
        <ele>150.8</ele>
        <time>2026-08-15T08:46:57Z</time>
      </trkpt>
      <trkpt lat="44.51738" lon="0.80693">
        <ele>150.8</ele>
        <time>2026-08-15T08:46:58Z</time>
      </trkpt>
      <trkpt lat="44.5174" lon="0.80699">
        <ele>151</ele>
        <time>2026-08-15T08:46:59Z</time>
      </trkpt>
      <trkpt lat="44.51742" lon="0.80706">
        <ele>150.8</ele>
        <time>2026-08-15T08:47:00Z</time>
      </trkpt>
      <trkpt lat="44.51745" lon="0.80712">
        <ele>150.8</ele>
        <time>2026-08-15T08:47:01Z</time>
      </trkpt>
      <trkpt lat="44.51747" lon="0.80719">
        <ele>150.8</ele>
        <time>2026-08-15T08:47:02Z</time>
      </trkpt>
      <trkpt lat="44.51749" lon="0.80726">
        <ele>150.6</ele>
        <time>2026-08-15T08:47:03Z</time>
      </trkpt>
      <trkpt lat="44.51752" lon="0.80733">
        <ele>150.6</ele>
        <time>2026-08-15T08:47:04Z</time>
      </trkpt>
      <trkpt lat="44.51755" lon="0.80742">
        <ele>150.4</ele>
        <time>2026-08-15T08:47:05Z</time>
      </trkpt>
      <trkpt lat="44.51758" lon="0.8075">
        <ele>150.2</ele>
        <time>2026-08-15T08:47:06Z</time>
      </trkpt>
      <trkpt lat="44.51761" lon="0.80757">
        <ele>149.8</ele>
        <time>2026-08-15T08:47:07Z</time>
      </trkpt>
      <trkpt lat="44.51764" lon="0.80765">
        <ele>149.6</ele>
        <time>2026-08-15T08:47:08Z</time>
      </trkpt>
      <trkpt lat="44.51767" lon="0.80773">
        <ele>149.4</ele>
        <time>2026-08-15T08:47:09Z</time>
      </trkpt>
      <trkpt lat="44.5177" lon="0.80781">
        <ele>149.4</ele>
        <time>2026-08-15T08:47:10Z</time>
      </trkpt>
      <trkpt lat="44.51773" lon="0.80788">
        <ele>149.2</ele>
        <time>2026-08-15T08:47:11Z</time>
      </trkpt>
      <trkpt lat="44.51776" lon="0.80796">
        <ele>149.2</ele>
        <time>2026-08-15T08:47:12Z</time>
      </trkpt>
      <trkpt lat="44.51779" lon="0.80803">
        <ele>149.2</ele>
        <time>2026-08-15T08:47:13Z</time>
      </trkpt>
      <trkpt lat="44.51782" lon="0.8081">
        <ele>149.2</ele>
        <time>2026-08-15T08:47:14Z</time>
      </trkpt>
      <trkpt lat="44.51784" lon="0.80817">
        <ele>149</ele>
        <time>2026-08-15T08:47:15Z</time>
      </trkpt>
      <trkpt lat="44.51787" lon="0.80823">
        <ele>149</ele>
        <time>2026-08-15T08:47:16Z</time>
      </trkpt>
      <trkpt lat="44.51789" lon="0.8083">
        <ele>148.8</ele>
        <time>2026-08-15T08:47:17Z</time>
      </trkpt>
      <trkpt lat="44.51791" lon="0.80834">
        <ele>148.8</ele>
        <time>2026-08-15T08:47:18Z</time>
      </trkpt>
      <trkpt lat="44.51792" lon="0.8084">
        <ele>148.8</ele>
        <time>2026-08-15T08:47:19Z</time>
      </trkpt>
      <trkpt lat="44.51794" lon="0.80846">
        <ele>148.8</ele>
        <time>2026-08-15T08:47:20Z</time>
      </trkpt>
      <trkpt lat="44.51795" lon="0.80852">
        <ele>148.8</ele>
        <time>2026-08-15T08:47:21Z</time>
      </trkpt>
      <trkpt lat="44.51797" lon="0.80858">
        <ele>148.8</ele>
        <time>2026-08-15T08:47:22Z</time>
      </trkpt>
      <trkpt lat="44.51798" lon="0.80864">
        <ele>148.8</ele>
        <time>2026-08-15T08:47:23Z</time>
      </trkpt>
      <trkpt lat="44.51799" lon="0.80871">
        <ele>148.8</ele>
        <time>2026-08-15T08:47:24Z</time>
      </trkpt>
      <trkpt lat="44.518" lon="0.80878">
        <ele>149</ele>
        <time>2026-08-15T08:47:25Z</time>
      </trkpt>
      <trkpt lat="44.51801" lon="0.80884">
        <ele>149</ele>
        <time>2026-08-15T08:47:26Z</time>
      </trkpt>
      <trkpt lat="44.51801" lon="0.80891">
        <ele>149</ele>
        <time>2026-08-15T08:47:27Z</time>
      </trkpt>
      <trkpt lat="44.51802" lon="0.80897">
        <ele>149</ele>
        <time>2026-08-15T08:47:28Z</time>
      </trkpt>
      <trkpt lat="44.51802" lon="0.80903">
        <ele>149</ele>
        <time>2026-08-15T08:47:29Z</time>
      </trkpt>
      <trkpt lat="44.51803" lon="0.80909">
        <ele>149.2</ele>
        <time>2026-08-15T08:47:30Z</time>
      </trkpt>
      <trkpt lat="44.51804" lon="0.80915">
        <ele>149.4</ele>
        <time>2026-08-15T08:47:31Z</time>
      </trkpt>
      <trkpt lat="44.51805" lon="0.8092">
        <ele>149.6</ele>
        <time>2026-08-15T08:47:32Z</time>
      </trkpt>
      <trkpt lat="44.51805" lon="0.80925">
        <ele>149.6</ele>
        <time>2026-08-15T08:47:33Z</time>
      </trkpt>
      <trkpt lat="44.51806" lon="0.8093">
        <ele>150</ele>
        <time>2026-08-15T08:47:34Z</time>
      </trkpt>
      <trkpt lat="44.51806" lon="0.80934">
        <ele>150.2</ele>
        <time>2026-08-15T08:47:35Z</time>
      </trkpt>
      <trkpt lat="44.51807" lon="0.80939">
        <ele>150.4</ele>
        <time>2026-08-15T08:47:36Z</time>
      </trkpt>
      <trkpt lat="44.51808" lon="0.80944">
        <ele>150.6</ele>
        <time>2026-08-15T08:47:37Z</time>
      </trkpt>
      <trkpt lat="44.51809" lon="0.80949">
        <ele>150.6</ele>
        <time>2026-08-15T08:47:38Z</time>
      </trkpt>
      <trkpt lat="44.5181" lon="0.80953">
        <ele>150.6</ele>
        <time>2026-08-15T08:47:39Z</time>
      </trkpt>
      <trkpt lat="44.51811" lon="0.80958">
        <ele>150.8</ele>
        <time>2026-08-15T08:47:40Z</time>
      </trkpt>
      <trkpt lat="44.51812" lon="0.80962">
        <ele>151.2</ele>
        <time>2026-08-15T08:47:41Z</time>
      </trkpt>
      <trkpt lat="44.51814" lon="0.80966">
        <ele>151.6</ele>
        <time>2026-08-15T08:47:42Z</time>
      </trkpt>
      <trkpt lat="44.51815" lon="0.8097">
        <ele>151.8</ele>
        <time>2026-08-15T08:47:43Z</time>
      </trkpt>
      <trkpt lat="44.51816" lon="0.80975">
        <ele>152</ele>
        <time>2026-08-15T08:47:44Z</time>
      </trkpt>
      <trkpt lat="44.51818" lon="0.80979">
        <ele>152.2</ele>
        <time>2026-08-15T08:47:45Z</time>
      </trkpt>
      <trkpt lat="44.51819" lon="0.80983">
        <ele>152.4</ele>
        <time>2026-08-15T08:47:46Z</time>
      </trkpt>
      <trkpt lat="44.5182" lon="0.80988">
        <ele>152.6</ele>
        <time>2026-08-15T08:47:47Z</time>
      </trkpt>
      <trkpt lat="44.51822" lon="0.80993">
        <ele>152.6</ele>
        <time>2026-08-15T08:47:48Z</time>
      </trkpt>
      <trkpt lat="44.51823" lon="0.80998">
        <ele>152.6</ele>
        <time>2026-08-15T08:47:49Z</time>
      </trkpt>
      <trkpt lat="44.51824" lon="0.81003">
        <ele>152.6</ele>
        <time>2026-08-15T08:47:50Z</time>
      </trkpt>
      <trkpt lat="44.51826" lon="0.81009">
        <ele>152.8</ele>
        <time>2026-08-15T08:47:51Z</time>
      </trkpt>
      <trkpt lat="44.51827" lon="0.81014">
        <ele>152.8</ele>
        <time>2026-08-15T08:47:52Z</time>
      </trkpt>
      <trkpt lat="44.51829" lon="0.8102">
        <ele>152.8</ele>
        <time>2026-08-15T08:47:53Z</time>
      </trkpt>
      <trkpt lat="44.51831" lon="0.81026">
        <ele>152.6</ele>
        <time>2026-08-15T08:47:54Z</time>
      </trkpt>
      <trkpt lat="44.51832" lon="0.81032">
        <ele>152.6</ele>
        <time>2026-08-15T08:47:55Z</time>
      </trkpt>
      <trkpt lat="44.51834" lon="0.81038">
        <ele>152.4</ele>
        <time>2026-08-15T08:47:56Z</time>
      </trkpt>
      <trkpt lat="44.51836" lon="0.81044">
        <ele>152.2</ele>
        <time>2026-08-15T08:47:57Z</time>
      </trkpt>
      <trkpt lat="44.51838" lon="0.8105">
        <ele>152.2</ele>
        <time>2026-08-15T08:47:58Z</time>
      </trkpt>
      <trkpt lat="44.5184" lon="0.81056">
        <ele>151.8</ele>
        <time>2026-08-15T08:47:59Z</time>
      </trkpt>
      <trkpt lat="44.51842" lon="0.81061">
        <ele>151.8</ele>
        <time>2026-08-15T08:48:00Z</time>
      </trkpt>
      <trkpt lat="44.51845" lon="0.81067">
        <ele>151.6</ele>
        <time>2026-08-15T08:48:01Z</time>
      </trkpt>
      <trkpt lat="44.51847" lon="0.81072">
        <ele>151.6</ele>
        <time>2026-08-15T08:48:02Z</time>
      </trkpt>
      <trkpt lat="44.51849" lon="0.81077">
        <ele>151.6</ele>
        <time>2026-08-15T08:48:03Z</time>
      </trkpt>
      <trkpt lat="44.51851" lon="0.81081">
        <ele>151.6</ele>
        <time>2026-08-15T08:48:04Z</time>
      </trkpt>
      <trkpt lat="44.51853" lon="0.81086">
        <ele>151.6</ele>
        <time>2026-08-15T08:48:05Z</time>
      </trkpt>
      <trkpt lat="44.51856" lon="0.8109">
        <ele>151.6</ele>
        <time>2026-08-15T08:48:06Z</time>
      </trkpt>
      <trkpt lat="44.51858" lon="0.81094">
        <ele>151.6</ele>
        <time>2026-08-15T08:48:07Z</time>
      </trkpt>
      <trkpt lat="44.5186" lon="0.81098">
        <ele>151.6</ele>
        <time>2026-08-15T08:48:08Z</time>
      </trkpt>
      <trkpt lat="44.51862" lon="0.81103">
        <ele>151.8</ele>
        <time>2026-08-15T08:48:09Z</time>
      </trkpt>
      <trkpt lat="44.51864" lon="0.81107">
        <ele>151.8</ele>
        <time>2026-08-15T08:48:10Z</time>
      </trkpt>
      <trkpt lat="44.51866" lon="0.81111">
        <ele>152.2</ele>
        <time>2026-08-15T08:48:11Z</time>
      </trkpt>
      <trkpt lat="44.51868" lon="0.81115">
        <ele>152.4</ele>
        <time>2026-08-15T08:48:12Z</time>
      </trkpt>
      <trkpt lat="44.5187" lon="0.81119">
        <ele>152.6</ele>
        <time>2026-08-15T08:48:13Z</time>
      </trkpt>
      <trkpt lat="44.51872" lon="0.81123">
        <ele>152.6</ele>
        <time>2026-08-15T08:48:14Z</time>
      </trkpt>
      <trkpt lat="44.51874" lon="0.81127">
        <ele>153</ele>
        <time>2026-08-15T08:48:15Z</time>
      </trkpt>
      <trkpt lat="44.51876" lon="0.81131">
        <ele>153.2</ele>
        <time>2026-08-15T08:48:16Z</time>
      </trkpt>
      <trkpt lat="44.51878" lon="0.81134">
        <ele>153.4</ele>
        <time>2026-08-15T08:48:17Z</time>
      </trkpt>
      <trkpt lat="44.5188" lon="0.81138">
        <ele>153.6</ele>
        <time>2026-08-15T08:48:18Z</time>
      </trkpt>
      <trkpt lat="44.51882" lon="0.81141">
        <ele>153.6</ele>
        <time>2026-08-15T08:48:19Z</time>
      </trkpt>
      <trkpt lat="44.51884" lon="0.81145">
        <ele>153.6</ele>
        <time>2026-08-15T08:48:20Z</time>
      </trkpt>
      <trkpt lat="44.51886" lon="0.81148">
        <ele>153.8</ele>
        <time>2026-08-15T08:48:21Z</time>
      </trkpt>
      <trkpt lat="44.51888" lon="0.81151">
        <ele>153.8</ele>
        <time>2026-08-15T08:48:22Z</time>
      </trkpt>
      <trkpt lat="44.51889" lon="0.81154">
        <ele>154.2</ele>
        <time>2026-08-15T08:48:23Z</time>
      </trkpt>
      <trkpt lat="44.51891" lon="0.81157">
        <ele>154.4</ele>
        <time>2026-08-15T08:48:24Z</time>
      </trkpt>
      <trkpt lat="44.51892" lon="0.81158">
        <ele>154.6</ele>
        <time>2026-08-15T08:48:25Z</time>
      </trkpt>
      <trkpt lat="44.51893" lon="0.81161">
        <ele>154.6</ele>
        <time>2026-08-15T08:48:26Z</time>
      </trkpt>
      <trkpt lat="44.51894" lon="0.81163">
        <ele>154.8</ele>
        <time>2026-08-15T08:48:27Z</time>
      </trkpt>
      <trkpt lat="44.51896" lon="0.81166">
        <ele>155.2</ele>
        <time>2026-08-15T08:48:28Z</time>
      </trkpt>
      <trkpt lat="44.51897" lon="0.81169">
        <ele>155.4</ele>
        <time>2026-08-15T08:48:29Z</time>
      </trkpt>
      <trkpt lat="44.51899" lon="0.81172">
        <ele>155.6</ele>
        <time>2026-08-15T08:48:30Z</time>
      </trkpt>
      <trkpt lat="44.51901" lon="0.81174">
        <ele>156</ele>
        <time>2026-08-15T08:48:31Z</time>
      </trkpt>
      <trkpt lat="44.51902" lon="0.81177">
        <ele>156.4</ele>
        <time>2026-08-15T08:48:32Z</time>
      </trkpt>
      <trkpt lat="44.51904" lon="0.8118">
        <ele>156.6</ele>
        <time>2026-08-15T08:48:33Z</time>
      </trkpt>
      <trkpt lat="44.51905" lon="0.81183">
        <ele>156.6</ele>
        <time>2026-08-15T08:48:34Z</time>
      </trkpt>
      <trkpt lat="44.51907" lon="0.81186">
        <ele>156.8</ele>
        <time>2026-08-15T08:48:35Z</time>
      </trkpt>
      <trkpt lat="44.51908" lon="0.81188">
        <ele>157.2</ele>
        <time>2026-08-15T08:48:36Z</time>
      </trkpt>
      <trkpt lat="44.5191" lon="0.81191">
        <ele>157.4</ele>
        <time>2026-08-15T08:48:37Z</time>
      </trkpt>
      <trkpt lat="44.51912" lon="0.81194">
        <ele>157.6</ele>
        <time>2026-08-15T08:48:38Z</time>
      </trkpt>
      <trkpt lat="44.51913" lon="0.81197">
        <ele>157.6</ele>
        <time>2026-08-15T08:48:39Z</time>
      </trkpt>
      <trkpt lat="44.51915" lon="0.812">
        <ele>157.8</ele>
        <time>2026-08-15T08:48:40Z</time>
      </trkpt>
      <trkpt lat="44.51916" lon="0.81203">
        <ele>158.2</ele>
        <time>2026-08-15T08:48:41Z</time>
      </trkpt>
      <trkpt lat="44.51918" lon="0.81206">
        <ele>158.4</ele>
        <time>2026-08-15T08:48:42Z</time>
      </trkpt>
      <trkpt lat="44.51919" lon="0.81209">
        <ele>158.6</ele>
        <time>2026-08-15T08:48:43Z</time>
      </trkpt>
      <trkpt lat="44.51921" lon="0.81212">
        <ele>158.6</ele>
        <time>2026-08-15T08:48:44Z</time>
      </trkpt>
      <trkpt lat="44.51922" lon="0.81215">
        <ele>158.8</ele>
        <time>2026-08-15T08:48:45Z</time>
      </trkpt>
      <trkpt lat="44.51924" lon="0.81218">
        <ele>159.2</ele>
        <time>2026-08-15T08:48:46Z</time>
      </trkpt>
      <trkpt lat="44.51925" lon="0.8122">
        <ele>159.4</ele>
        <time>2026-08-15T08:48:47Z</time>
      </trkpt>
      <trkpt lat="44.51927" lon="0.81223">
        <ele>159.6</ele>
        <time>2026-08-15T08:48:48Z</time>
      </trkpt>
      <trkpt lat="44.51929" lon="0.81225">
        <ele>159.6</ele>
        <time>2026-08-15T08:48:49Z</time>
      </trkpt>
      <trkpt lat="44.5193" lon="0.81228">
        <ele>160</ele>
        <time>2026-08-15T08:48:50Z</time>
      </trkpt>
      <trkpt lat="44.51932" lon="0.8123">
        <ele>160.4</ele>
        <time>2026-08-15T08:48:51Z</time>
      </trkpt>
      <trkpt lat="44.51933" lon="0.81233">
        <ele>160.6</ele>
        <time>2026-08-15T08:48:52Z</time>
      </trkpt>
      <trkpt lat="44.51935" lon="0.81235">
        <ele>160.6</ele>
        <time>2026-08-15T08:48:53Z</time>
      </trkpt>
      <trkpt lat="44.51936" lon="0.81238">
        <ele>160.8</ele>
        <time>2026-08-15T08:48:54Z</time>
      </trkpt>
      <trkpt lat="44.51938" lon="0.81241">
        <ele>161.2</ele>
        <time>2026-08-15T08:48:55Z</time>
      </trkpt>
      <trkpt lat="44.51939" lon="0.81243">
        <ele>161.4</ele>
        <time>2026-08-15T08:48:56Z</time>
      </trkpt>
      <trkpt lat="44.5194" lon="0.81246">
        <ele>161.6</ele>
        <time>2026-08-15T08:48:57Z</time>
      </trkpt>
      <trkpt lat="44.51942" lon="0.81248">
        <ele>162</ele>
        <time>2026-08-15T08:48:58Z</time>
      </trkpt>
      <trkpt lat="44.51944" lon="0.8125">
        <ele>162.2</ele>
        <time>2026-08-15T08:48:59Z</time>
      </trkpt>
      <trkpt lat="44.51945" lon="0.81253">
        <ele>162.4</ele>
        <time>2026-08-15T08:49:00Z</time>
      </trkpt>
      <trkpt lat="44.51947" lon="0.81255">
        <ele>162.6</ele>
        <time>2026-08-15T08:49:01Z</time>
      </trkpt>
      <trkpt lat="44.51948" lon="0.81257">
        <ele>162.8</ele>
        <time>2026-08-15T08:49:02Z</time>
      </trkpt>
      <trkpt lat="44.5195" lon="0.8126">
        <ele>163.2</ele>
        <time>2026-08-15T08:49:03Z</time>
      </trkpt>
      <trkpt lat="44.51951" lon="0.81262">
        <ele>163.4</ele>
        <time>2026-08-15T08:49:04Z</time>
      </trkpt>
      <trkpt lat="44.51953" lon="0.81264">
        <ele>163.6</ele>
        <time>2026-08-15T08:49:05Z</time>
      </trkpt>
      <trkpt lat="44.51955" lon="0.81267">
        <ele>163.6</ele>
        <time>2026-08-15T08:49:06Z</time>
      </trkpt>
      <trkpt lat="44.51956" lon="0.81269">
        <ele>163.8</ele>
        <time>2026-08-15T08:49:07Z</time>
      </trkpt>
      <trkpt lat="44.51958" lon="0.81272">
        <ele>163.8</ele>
        <time>2026-08-15T08:49:08Z</time>
      </trkpt>
      <trkpt lat="44.5196" lon="0.81274">
        <ele>164</ele>
        <time>2026-08-15T08:49:09Z</time>
      </trkpt>
      <trkpt lat="44.51961" lon="0.81277">
        <ele>164.2</ele>
        <time>2026-08-15T08:49:10Z</time>
      </trkpt>
      <trkpt lat="44.51963" lon="0.81279">
        <ele>164.4</ele>
        <time>2026-08-15T08:49:11Z</time>
      </trkpt>
      <trkpt lat="44.51965" lon="0.81281">
        <ele>164.4</ele>
        <time>2026-08-15T08:49:12Z</time>
      </trkpt>
      <trkpt lat="44.51967" lon="0.81284">
        <ele>164.6</ele>
        <time>2026-08-15T08:49:13Z</time>
      </trkpt>
      <trkpt lat="44.51968" lon="0.81286">
        <ele>164.6</ele>
        <time>2026-08-15T08:49:14Z</time>
      </trkpt>
      <trkpt lat="44.5197" lon="0.81289">
        <ele>164.6</ele>
        <time>2026-08-15T08:49:15Z</time>
      </trkpt>
      <trkpt lat="44.51972" lon="0.81291">
        <ele>164.8</ele>
        <time>2026-08-15T08:49:16Z</time>
      </trkpt>
      <trkpt lat="44.51974" lon="0.81294">
        <ele>164.8</ele>
        <time>2026-08-15T08:49:17Z</time>
      </trkpt>
      <trkpt lat="44.51975" lon="0.81296">
        <ele>165.2</ele>
        <time>2026-08-15T08:49:18Z</time>
      </trkpt>
      <trkpt lat="44.51977" lon="0.81299">
        <ele>165.2</ele>
        <time>2026-08-15T08:49:19Z</time>
      </trkpt>
      <trkpt lat="44.51979" lon="0.81302">
        <ele>165.4</ele>
        <time>2026-08-15T08:49:20Z</time>
      </trkpt>
      <trkpt lat="44.5198" lon="0.81304">
        <ele>165.6</ele>
        <time>2026-08-15T08:49:21Z</time>
      </trkpt>
      <trkpt lat="44.51982" lon="0.81307">
        <ele>165.6</ele>
        <time>2026-08-15T08:49:22Z</time>
      </trkpt>
      <trkpt lat="44.51984" lon="0.8131">
        <ele>165.6</ele>
        <time>2026-08-15T08:49:23Z</time>
      </trkpt>
      <trkpt lat="44.51985" lon="0.81312">
        <ele>165.8</ele>
        <time>2026-08-15T08:49:24Z</time>
      </trkpt>
      <trkpt lat="44.51987" lon="0.81315">
        <ele>165.8</ele>
        <time>2026-08-15T08:49:25Z</time>
      </trkpt>
      <trkpt lat="44.51989" lon="0.81317">
        <ele>166</ele>
        <time>2026-08-15T08:49:26Z</time>
      </trkpt>
      <trkpt lat="44.51991" lon="0.8132">
        <ele>166</ele>
        <time>2026-08-15T08:49:27Z</time>
      </trkpt>
      <trkpt lat="44.51992" lon="0.81323">
        <ele>166.2</ele>
        <time>2026-08-15T08:49:28Z</time>
      </trkpt>
      <trkpt lat="44.51995" lon="0.81328">
        <ele>166.2</ele>
        <time>2026-08-15T08:49:29Z</time>
      </trkpt>
      <trkpt lat="44.51998" lon="0.81332">
        <ele>166.4</ele>
        <time>2026-08-15T08:49:30Z</time>
      </trkpt>
      <trkpt lat="44.52" lon="0.81335">
        <ele>166.4</ele>
        <time>2026-08-15T08:49:31Z</time>
      </trkpt>
      <trkpt lat="44.52001" lon="0.81338">
        <ele>166.6</ele>
        <time>2026-08-15T08:49:32Z</time>
      </trkpt>
      <trkpt lat="44.52003" lon="0.81341">
        <ele>166.6</ele>
        <time>2026-08-15T08:49:33Z</time>
      </trkpt>
      <trkpt lat="44.52005" lon="0.81344">
        <ele>166.8</ele>
        <time>2026-08-15T08:49:34Z</time>
      </trkpt>
      <trkpt lat="44.52007" lon="0.81347">
        <ele>167</ele>
        <time>2026-08-15T08:49:35Z</time>
      </trkpt>
      <trkpt lat="44.52009" lon="0.81351">
        <ele>167.2</ele>
        <time>2026-08-15T08:49:36Z</time>
      </trkpt>
      <trkpt lat="44.5201" lon="0.81354">
        <ele>167.2</ele>
        <time>2026-08-15T08:49:37Z</time>
      </trkpt>
      <trkpt lat="44.52012" lon="0.81358">
        <ele>167.4</ele>
        <time>2026-08-15T08:49:38Z</time>
      </trkpt>
      <trkpt lat="44.52014" lon="0.81361">
        <ele>167.4</ele>
        <time>2026-08-15T08:49:39Z</time>
      </trkpt>
      <trkpt lat="44.52015" lon="0.81365">
        <ele>167.4</ele>
        <time>2026-08-15T08:49:40Z</time>
      </trkpt>
      <trkpt lat="44.52017" lon="0.81368">
        <ele>167.6</ele>
        <time>2026-08-15T08:49:41Z</time>
      </trkpt>
      <trkpt lat="44.52018" lon="0.81372">
        <ele>167.6</ele>
        <time>2026-08-15T08:49:42Z</time>
      </trkpt>
      <trkpt lat="44.5202" lon="0.81375">
        <ele>167.8</ele>
        <time>2026-08-15T08:49:43Z</time>
      </trkpt>
      <trkpt lat="44.52021" lon="0.81379">
        <ele>168</ele>
        <time>2026-08-15T08:49:44Z</time>
      </trkpt>
      <trkpt lat="44.52022" lon="0.81382">
        <ele>168.4</ele>
        <time>2026-08-15T08:49:45Z</time>
      </trkpt>
      <trkpt lat="44.52024" lon="0.81385">
        <ele>168.6</ele>
        <time>2026-08-15T08:49:46Z</time>
      </trkpt>
      <trkpt lat="44.52025" lon="0.81387">
        <ele>168.8</ele>
        <time>2026-08-15T08:49:47Z</time>
      </trkpt>
      <trkpt lat="44.52026" lon="0.81389">
        <ele>169.2</ele>
        <time>2026-08-15T08:49:48Z</time>
      </trkpt>
      <trkpt lat="44.52027" lon="0.81391">
        <ele>169.4</ele>
        <time>2026-08-15T08:49:49Z</time>
      </trkpt>
      <trkpt lat="44.52028" lon="0.81394">
        <ele>169.6</ele>
        <time>2026-08-15T08:49:50Z</time>
      </trkpt>
      <trkpt lat="44.52029" lon="0.81397">
        <ele>170.2</ele>
        <time>2026-08-15T08:49:51Z</time>
      </trkpt>
      <trkpt lat="44.5203" lon="0.814">
        <ele>170.4</ele>
        <time>2026-08-15T08:49:52Z</time>
      </trkpt>
      <trkpt lat="44.52032" lon="0.81403">
        <ele>170.6</ele>
        <time>2026-08-15T08:49:53Z</time>
      </trkpt>
      <trkpt lat="44.52033" lon="0.81406">
        <ele>170.8</ele>
        <time>2026-08-15T08:49:54Z</time>
      </trkpt>
      <trkpt lat="44.52034" lon="0.81409">
        <ele>171.2</ele>
        <time>2026-08-15T08:49:55Z</time>
      </trkpt>
      <trkpt lat="44.52036" lon="0.81412">
        <ele>171.4</ele>
        <time>2026-08-15T08:49:56Z</time>
      </trkpt>
      <trkpt lat="44.52037" lon="0.81416">
        <ele>171.6</ele>
        <time>2026-08-15T08:49:57Z</time>
      </trkpt>
      <trkpt lat="44.52039" lon="0.81421">
        <ele>171.6</ele>
        <time>2026-08-15T08:49:58Z</time>
      </trkpt>
      <trkpt lat="44.52041" lon="0.81425">
        <ele>171.8</ele>
        <time>2026-08-15T08:49:59Z</time>
      </trkpt>
      <trkpt lat="44.52042" lon="0.81429">
        <ele>172</ele>
        <time>2026-08-15T08:50:00Z</time>
      </trkpt>
      <trkpt lat="44.52043" lon="0.81433">
        <ele>172.2</ele>
        <time>2026-08-15T08:50:01Z</time>
      </trkpt>
      <trkpt lat="44.52044" lon="0.81437">
        <ele>172.2</ele>
        <time>2026-08-15T08:50:02Z</time>
      </trkpt>
      <trkpt lat="44.52045" lon="0.81441">
        <ele>172.4</ele>
        <time>2026-08-15T08:50:03Z</time>
      </trkpt>
      <trkpt lat="44.52046" lon="0.81445">
        <ele>172.4</ele>
        <time>2026-08-15T08:50:04Z</time>
      </trkpt>
      <trkpt lat="44.52047" lon="0.81449">
        <ele>172.6</ele>
        <time>2026-08-15T08:50:05Z</time>
      </trkpt>
      <trkpt lat="44.52048" lon="0.81453">
        <ele>172.6</ele>
        <time>2026-08-15T08:50:06Z</time>
      </trkpt>
      <trkpt lat="44.52048" lon="0.81458">
        <ele>172.6</ele>
        <time>2026-08-15T08:50:07Z</time>
      </trkpt>
      <trkpt lat="44.52049" lon="0.81462">
        <ele>172.6</ele>
        <time>2026-08-15T08:50:08Z</time>
      </trkpt>
      <trkpt lat="44.52049" lon="0.81466">
        <ele>172.6</ele>
        <time>2026-08-15T08:50:09Z</time>
      </trkpt>
      <trkpt lat="44.5205" lon="0.81471">
        <ele>172.6</ele>
        <time>2026-08-15T08:50:10Z</time>
      </trkpt>
      <trkpt lat="44.5205" lon="0.81476">
        <ele>172.6</ele>
        <time>2026-08-15T08:50:11Z</time>
      </trkpt>
      <trkpt lat="44.5205" lon="0.81481">
        <ele>172.6</ele>
        <time>2026-08-15T08:50:12Z</time>
      </trkpt>
      <trkpt lat="44.5205" lon="0.81486">
        <ele>172.4</ele>
        <time>2026-08-15T08:50:13Z</time>
      </trkpt>
      <trkpt lat="44.5205" lon="0.81491">
        <ele>172.2</ele>
        <time>2026-08-15T08:50:14Z</time>
      </trkpt>
      <trkpt lat="44.52049" lon="0.81497">
        <ele>171.8</ele>
        <time>2026-08-15T08:50:15Z</time>
      </trkpt>
      <trkpt lat="44.52049" lon="0.81502">
        <ele>171.6</ele>
        <time>2026-08-15T08:50:16Z</time>
      </trkpt>
      <trkpt lat="44.52048" lon="0.81508">
        <ele>171.6</ele>
        <time>2026-08-15T08:50:17Z</time>
      </trkpt>
      <trkpt lat="44.52047" lon="0.81514">
        <ele>171</ele>
        <time>2026-08-15T08:50:18Z</time>
      </trkpt>
      <trkpt lat="44.52047" lon="0.8152">
        <ele>170.6</ele>
        <time>2026-08-15T08:50:19Z</time>
      </trkpt>
      <trkpt lat="44.52047" lon="0.81527">
        <ele>170.2</ele>
        <time>2026-08-15T08:50:20Z</time>
      </trkpt>
      <trkpt lat="44.52048" lon="0.81534">
        <ele>169</ele>
        <time>2026-08-15T08:50:21Z</time>
      </trkpt>
      <trkpt lat="44.52048" lon="0.81542">
        <ele>168.4</ele>
        <time>2026-08-15T08:50:22Z</time>
      </trkpt>
      <trkpt lat="44.5205" lon="0.81554">
        <ele>167.8</ele>
        <time>2026-08-15T08:50:23Z</time>
      </trkpt>
      <trkpt lat="44.52051" lon="0.81563">
        <ele>167</ele>
        <time>2026-08-15T08:50:24Z</time>
      </trkpt>
      <trkpt lat="44.52053" lon="0.81572">
        <ele>166.6</ele>
        <time>2026-08-15T08:50:25Z</time>
      </trkpt>
      <trkpt lat="44.52054" lon="0.81581">
        <ele>166.2</ele>
        <time>2026-08-15T08:50:26Z</time>
      </trkpt>
      <trkpt lat="44.52055" lon="0.81591">
        <ele>165.8</ele>
        <time>2026-08-15T08:50:27Z</time>
      </trkpt>
      <trkpt lat="44.52056" lon="0.816">
        <ele>165.4</ele>
        <time>2026-08-15T08:50:28Z</time>
      </trkpt>
      <trkpt lat="44.52058" lon="0.8161">
        <ele>164.6</ele>
        <time>2026-08-15T08:50:29Z</time>
      </trkpt>
      <trkpt lat="44.52059" lon="0.81619">
        <ele>164.2</ele>
        <time>2026-08-15T08:50:30Z</time>
      </trkpt>
      <trkpt lat="44.52061" lon="0.81628">
        <ele>163.6</ele>
        <time>2026-08-15T08:50:31Z</time>
      </trkpt>
      <trkpt lat="44.52063" lon="0.81637">
        <ele>163.2</ele>
        <time>2026-08-15T08:50:32Z</time>
      </trkpt>
      <trkpt lat="44.52064" lon="0.81644">
        <ele>162.8</ele>
        <time>2026-08-15T08:50:33Z</time>
      </trkpt>
      <trkpt lat="44.52066" lon="0.8165">
        <ele>162.6</ele>
        <time>2026-08-15T08:50:34Z</time>
      </trkpt>
      <trkpt lat="44.52066" lon="0.81653">
        <ele>162.4</ele>
        <time>2026-08-15T08:50:35Z</time>
      </trkpt>
      <trkpt lat="44.52067" lon="0.81655">
        <ele>162.2</ele>
        <time>2026-08-15T08:50:36Z</time>
      </trkpt>
      <trkpt lat="44.52067" lon="0.81655">
        <ele>161.8</ele>
        <time>2026-08-15T08:50:37Z</time>
      </trkpt>
      <trkpt lat="44.52069" lon="0.8166">
        <ele>160.6</ele>
        <time>2026-08-15T08:50:59Z</time>
      </trkpt>
      <trkpt lat="44.52069" lon="0.81662">
        <ele>160.6</ele>
        <time>2026-08-15T08:51:00Z</time>
      </trkpt>
      <trkpt lat="44.5207" lon="0.81664">
        <ele>160.6</ele>
        <time>2026-08-15T08:51:01Z</time>
      </trkpt>
      <trkpt lat="44.5207" lon="0.81666">
        <ele>160.6</ele>
        <time>2026-08-15T08:51:02Z</time>
      </trkpt>
      <trkpt lat="44.52071" lon="0.8167">
        <ele>160.6</ele>
        <time>2026-08-15T08:51:03Z</time>
      </trkpt>
      <trkpt lat="44.52072" lon="0.81674">
        <ele>160.6</ele>
        <time>2026-08-15T08:51:04Z</time>
      </trkpt>
      <trkpt lat="44.52073" lon="0.81677">
        <ele>160.6</ele>
        <time>2026-08-15T08:51:05Z</time>
      </trkpt>
      <trkpt lat="44.52074" lon="0.81684">
        <ele>160.6</ele>
        <time>2026-08-15T08:51:06Z</time>
      </trkpt>
      <trkpt lat="44.52074" lon="0.81689">
        <ele>160.6</ele>
        <time>2026-08-15T08:51:07Z</time>
      </trkpt>
      <trkpt lat="44.52075" lon="0.81693">
        <ele>160.4</ele>
        <time>2026-08-15T08:51:08Z</time>
      </trkpt>
      <trkpt lat="44.52076" lon="0.81698">
        <ele>160.4</ele>
        <time>2026-08-15T08:51:09Z</time>
      </trkpt>
      <trkpt lat="44.52077" lon="0.81702">
        <ele>160.4</ele>
        <time>2026-08-15T08:51:10Z</time>
      </trkpt>
      <trkpt lat="44.52078" lon="0.81707">
        <ele>160.4</ele>
        <time>2026-08-15T08:51:11Z</time>
      </trkpt>
      <trkpt lat="44.5208" lon="0.81712">
        <ele>160.2</ele>
        <time>2026-08-15T08:51:12Z</time>
      </trkpt>
      <trkpt lat="44.52081" lon="0.81716">
        <ele>160.2</ele>
        <time>2026-08-15T08:51:13Z</time>
      </trkpt>
      <trkpt lat="44.52083" lon="0.8172">
        <ele>160.2</ele>
        <time>2026-08-15T08:51:14Z</time>
      </trkpt>
      <trkpt lat="44.52084" lon="0.81722">
        <ele>160.2</ele>
        <time>2026-08-15T08:51:15Z</time>
      </trkpt>
      <trkpt lat="44.52085" lon="0.81723">
        <ele>160.2</ele>
        <time>2026-08-15T08:51:16Z</time>
      </trkpt>
      <trkpt lat="44.52087" lon="0.81723">
        <ele>160</ele>
        <time>2026-08-15T08:51:17Z</time>
      </trkpt>
      <trkpt lat="44.52088" lon="0.81723">
        <ele>159.8</ele>
        <time>2026-08-15T08:51:18Z</time>
      </trkpt>
      <trkpt lat="44.52088" lon="0.81723">
        <ele>159.8</ele>
        <time>2026-08-15T08:51:19Z</time>
      </trkpt>
      <trkpt lat="44.52088" lon="0.81723">
        <ele>159.8</ele>
        <time>2026-08-15T08:51:20Z</time>
      </trkpt>
      <trkpt lat="44.5209" lon="0.81728">
        <ele>159.8</ele>
        <time>2026-08-15T08:51:39Z</time>
      </trkpt>
      <trkpt lat="44.5209" lon="0.8173">
        <ele>159.8</ele>
        <time>2026-08-15T08:51:40Z</time>
      </trkpt>
      <trkpt lat="44.5209" lon="0.81733">
        <ele>160</ele>
        <time>2026-08-15T08:51:41Z</time>
      </trkpt>
      <trkpt lat="44.5209" lon="0.81736">
        <ele>160</ele>
        <time>2026-08-15T08:51:42Z</time>
      </trkpt>
      <trkpt lat="44.5209" lon="0.81739">
        <ele>160</ele>
        <time>2026-08-15T08:51:43Z</time>
      </trkpt>
      <trkpt lat="44.52091" lon="0.81742">
        <ele>160.2</ele>
        <time>2026-08-15T08:51:44Z</time>
      </trkpt>
      <trkpt lat="44.52091" lon="0.81746">
        <ele>160.2</ele>
        <time>2026-08-15T08:51:45Z</time>
      </trkpt>
      <trkpt lat="44.52092" lon="0.81749">
        <ele>160.2</ele>
        <time>2026-08-15T08:51:46Z</time>
      </trkpt>
      <trkpt lat="44.52092" lon="0.81753">
        <ele>160.2</ele>
        <time>2026-08-15T08:51:47Z</time>
      </trkpt>
      <trkpt lat="44.52093" lon="0.81759">
        <ele>160</ele>
        <time>2026-08-15T08:51:48Z</time>
      </trkpt>
      <trkpt lat="44.52094" lon="0.81763">
        <ele>159.8</ele>
        <time>2026-08-15T08:51:49Z</time>
      </trkpt>
      <trkpt lat="44.52095" lon="0.81767">
        <ele>159.8</ele>
        <time>2026-08-15T08:51:50Z</time>
      </trkpt>
      <trkpt lat="44.52096" lon="0.81771">
        <ele>159.8</ele>
        <time>2026-08-15T08:51:51Z</time>
      </trkpt>
      <trkpt lat="44.52097" lon="0.81775">
        <ele>159.6</ele>
        <time>2026-08-15T08:51:52Z</time>
      </trkpt>
      <trkpt lat="44.52098" lon="0.81779">
        <ele>159.6</ele>
        <time>2026-08-15T08:51:53Z</time>
      </trkpt>
      <trkpt lat="44.52098" lon="0.81783">
        <ele>159.6</ele>
        <time>2026-08-15T08:51:54Z</time>
      </trkpt>
      <trkpt lat="44.52099" lon="0.81787">
        <ele>159.6</ele>
        <time>2026-08-15T08:51:55Z</time>
      </trkpt>
      <trkpt lat="44.521" lon="0.81791">
        <ele>159.6</ele>
        <time>2026-08-15T08:51:56Z</time>
      </trkpt>
      <trkpt lat="44.52101" lon="0.81794">
        <ele>159.6</ele>
        <time>2026-08-15T08:51:57Z</time>
      </trkpt>
      <trkpt lat="44.52101" lon="0.81798">
        <ele>159.4</ele>
        <time>2026-08-15T08:51:58Z</time>
      </trkpt>
      <trkpt lat="44.52102" lon="0.81801">
        <ele>159.4</ele>
        <time>2026-08-15T08:51:59Z</time>
      </trkpt>
      <trkpt lat="44.52102" lon="0.81805">
        <ele>159.4</ele>
        <time>2026-08-15T08:52:00Z</time>
      </trkpt>
      <trkpt lat="44.52103" lon="0.81809">
        <ele>159.2</ele>
        <time>2026-08-15T08:52:01Z</time>
      </trkpt>
      <trkpt lat="44.52103" lon="0.81813">
        <ele>159.2</ele>
        <time>2026-08-15T08:52:02Z</time>
      </trkpt>
      <trkpt lat="44.52104" lon="0.81818">
        <ele>159.2</ele>
        <time>2026-08-15T08:52:03Z</time>
      </trkpt>
      <trkpt lat="44.52104" lon="0.81822">
        <ele>159</ele>
        <time>2026-08-15T08:52:04Z</time>
      </trkpt>
      <trkpt lat="44.52105" lon="0.81826">
        <ele>158.8</ele>
        <time>2026-08-15T08:52:05Z</time>
      </trkpt>
      <trkpt lat="44.52105" lon="0.8183">
        <ele>158.6</ele>
        <time>2026-08-15T08:52:06Z</time>
      </trkpt>
      <trkpt lat="44.52106" lon="0.81834">
        <ele>158.6</ele>
        <time>2026-08-15T08:52:07Z</time>
      </trkpt>
      <trkpt lat="44.52107" lon="0.81839">
        <ele>158.6</ele>
        <time>2026-08-15T08:52:08Z</time>
      </trkpt>
      <trkpt lat="44.52108" lon="0.81843">
        <ele>158.6</ele>
        <time>2026-08-15T08:52:09Z</time>
      </trkpt>
      <trkpt lat="44.52109" lon="0.81847">
        <ele>158.6</ele>
        <time>2026-08-15T08:52:10Z</time>
      </trkpt>
      <trkpt lat="44.5211" lon="0.81852">
        <ele>158.4</ele>
        <time>2026-08-15T08:52:11Z</time>
      </trkpt>
      <trkpt lat="44.52111" lon="0.81857">
        <ele>158</ele>
        <time>2026-08-15T08:52:12Z</time>
      </trkpt>
      <trkpt lat="44.52111" lon="0.81862">
        <ele>157.8</ele>
        <time>2026-08-15T08:52:13Z</time>
      </trkpt>
      <trkpt lat="44.52112" lon="0.81867">
        <ele>157.6</ele>
        <time>2026-08-15T08:52:14Z</time>
      </trkpt>
      <trkpt lat="44.52112" lon="0.81871">
        <ele>157.4</ele>
        <time>2026-08-15T08:52:15Z</time>
      </trkpt>
      <trkpt lat="44.52113" lon="0.81876">
        <ele>157.2</ele>
        <time>2026-08-15T08:52:16Z</time>
      </trkpt>
      <trkpt lat="44.52113" lon="0.8188">
        <ele>157.2</ele>
        <time>2026-08-15T08:52:17Z</time>
      </trkpt>
      <trkpt lat="44.52114" lon="0.81884">
        <ele>157</ele>
        <time>2026-08-15T08:52:18Z</time>
      </trkpt>
      <trkpt lat="44.52114" lon="0.81888">
        <ele>157</ele>
        <time>2026-08-15T08:52:19Z</time>
      </trkpt>
      <trkpt lat="44.52115" lon="0.81893">
        <ele>156.8</ele>
        <time>2026-08-15T08:52:20Z</time>
      </trkpt>
      <trkpt lat="44.52115" lon="0.81898">
        <ele>156.6</ele>
        <time>2026-08-15T08:52:21Z</time>
      </trkpt>
      <trkpt lat="44.52115" lon="0.81903">
        <ele>156.4</ele>
        <time>2026-08-15T08:52:22Z</time>
      </trkpt>
      <trkpt lat="44.52115" lon="0.81909">
        <ele>156.2</ele>
        <time>2026-08-15T08:52:23Z</time>
      </trkpt>
      <trkpt lat="44.52115" lon="0.81915">
        <ele>155.8</ele>
        <time>2026-08-15T08:52:24Z</time>
      </trkpt>
      <trkpt lat="44.52115" lon="0.81922">
        <ele>155.6</ele>
        <time>2026-08-15T08:52:25Z</time>
      </trkpt>
      <trkpt lat="44.52114" lon="0.8193">
        <ele>155.2</ele>
        <time>2026-08-15T08:52:26Z</time>
      </trkpt>
      <trkpt lat="44.52113" lon="0.81941">
        <ele>155</ele>
        <time>2026-08-15T08:52:27Z</time>
      </trkpt>
      <trkpt lat="44.52112" lon="0.8195">
        <ele>154.6</ele>
        <time>2026-08-15T08:52:28Z</time>
      </trkpt>
      <trkpt lat="44.52111" lon="0.81959">
        <ele>154.2</ele>
        <time>2026-08-15T08:52:29Z</time>
      </trkpt>
      <trkpt lat="44.5211" lon="0.81969">
        <ele>153.8</ele>
        <time>2026-08-15T08:52:30Z</time>
      </trkpt>
      <trkpt lat="44.52109" lon="0.81978">
        <ele>153.4</ele>
        <time>2026-08-15T08:52:31Z</time>
      </trkpt>
      <trkpt lat="44.52107" lon="0.81988">
        <ele>152.8</ele>
        <time>2026-08-15T08:52:32Z</time>
      </trkpt>
      <trkpt lat="44.52106" lon="0.81996">
        <ele>152.6</ele>
        <time>2026-08-15T08:52:33Z</time>
      </trkpt>
      <trkpt lat="44.52105" lon="0.82003">
        <ele>152.4</ele>
        <time>2026-08-15T08:52:34Z</time>
      </trkpt>
      <trkpt lat="44.52104" lon="0.82009">
        <ele>152.2</ele>
        <time>2026-08-15T08:52:35Z</time>
      </trkpt>
      <trkpt lat="44.52103" lon="0.82013">
        <ele>151.8</ele>
        <time>2026-08-15T08:52:36Z</time>
      </trkpt>
      <trkpt lat="44.52103" lon="0.82017">
        <ele>151.6</ele>
        <time>2026-08-15T08:52:37Z</time>
      </trkpt>
      <trkpt lat="44.52103" lon="0.82021">
        <ele>151.6</ele>
        <time>2026-08-15T08:52:38Z</time>
      </trkpt>
      <trkpt lat="44.52103" lon="0.82026">
        <ele>151.4</ele>
        <time>2026-08-15T08:52:39Z</time>
      </trkpt>
      <trkpt lat="44.52103" lon="0.82029">
        <ele>151.2</ele>
        <time>2026-08-15T08:52:40Z</time>
      </trkpt>
      <trkpt lat="44.52103" lon="0.8203">
        <ele>151</ele>
        <time>2026-08-15T08:52:41Z</time>
      </trkpt>
      <trkpt lat="44.52103" lon="0.8203">
        <ele>150.8</ele>
        <time>2026-08-15T08:52:42Z</time>
      </trkpt>
      <trkpt lat="44.52103" lon="0.8203">
        <ele>150.8</ele>
        <time>2026-08-15T08:52:43Z</time>
      </trkpt>
      <trkpt lat="44.52106" lon="0.82035">
        <ele>150.4</ele>
        <time>2026-08-15T08:52:50Z</time>
      </trkpt>
      <trkpt lat="44.52107" lon="0.82038">
        <ele>150.4</ele>
        <time>2026-08-15T08:52:51Z</time>
      </trkpt>
      <trkpt lat="44.52109" lon="0.82041">
        <ele>150.4</ele>
        <time>2026-08-15T08:52:52Z</time>
      </trkpt>
      <trkpt lat="44.5211" lon="0.82044">
        <ele>150.4</ele>
        <time>2026-08-15T08:52:53Z</time>
      </trkpt>
      <trkpt lat="44.52111" lon="0.82047">
        <ele>150.4</ele>
        <time>2026-08-15T08:52:54Z</time>
      </trkpt>
      <trkpt lat="44.52113" lon="0.82052">
        <ele>150.4</ele>
        <time>2026-08-15T08:52:55Z</time>
      </trkpt>
      <trkpt lat="44.52114" lon="0.82057">
        <ele>150.4</ele>
        <time>2026-08-15T08:52:56Z</time>
      </trkpt>
      <trkpt lat="44.52115" lon="0.8206">
        <ele>150.4</ele>
        <time>2026-08-15T08:52:57Z</time>
      </trkpt>
      <trkpt lat="44.52116" lon="0.82064">
        <ele>150.2</ele>
        <time>2026-08-15T08:52:58Z</time>
      </trkpt>
      <trkpt lat="44.52117" lon="0.82068">
        <ele>150.2</ele>
        <time>2026-08-15T08:52:59Z</time>
      </trkpt>
      <trkpt lat="44.52118" lon="0.82072">
        <ele>150</ele>
        <time>2026-08-15T08:53:00Z</time>
      </trkpt>
      <trkpt lat="44.52119" lon="0.82076">
        <ele>149.8</ele>
        <time>2026-08-15T08:53:01Z</time>
      </trkpt>
      <trkpt lat="44.52121" lon="0.8208">
        <ele>149.8</ele>
        <time>2026-08-15T08:53:02Z</time>
      </trkpt>
      <trkpt lat="44.52122" lon="0.82084">
        <ele>149.6</ele>
        <time>2026-08-15T08:53:03Z</time>
      </trkpt>
      <trkpt lat="44.52124" lon="0.82089">
        <ele>149.6</ele>
        <time>2026-08-15T08:53:04Z</time>
      </trkpt>
      <trkpt lat="44.52125" lon="0.82093">
        <ele>149.6</ele>
        <time>2026-08-15T08:53:05Z</time>
      </trkpt>
      <trkpt lat="44.52126" lon="0.82097">
        <ele>149.6</ele>
        <time>2026-08-15T08:53:06Z</time>
      </trkpt>
      <trkpt lat="44.52127" lon="0.82102">
        <ele>149.6</ele>
        <time>2026-08-15T08:53:07Z</time>
      </trkpt>
      <trkpt lat="44.52128" lon="0.82106">
        <ele>149.4</ele>
        <time>2026-08-15T08:53:08Z</time>
      </trkpt>
      <trkpt lat="44.52129" lon="0.82111">
        <ele>149.2</ele>
        <time>2026-08-15T08:53:09Z</time>
      </trkpt>
      <trkpt lat="44.5213" lon="0.82115">
        <ele>149.2</ele>
        <time>2026-08-15T08:53:10Z</time>
      </trkpt>
      <trkpt lat="44.52132" lon="0.82119">
        <ele>149.2</ele>
        <time>2026-08-15T08:53:11Z</time>
      </trkpt>
      <trkpt lat="44.52133" lon="0.82123">
        <ele>149</ele>
        <time>2026-08-15T08:53:12Z</time>
      </trkpt>
      <trkpt lat="44.52134" lon="0.82127">
        <ele>148.8</ele>
        <time>2026-08-15T08:53:13Z</time>
      </trkpt>
      <trkpt lat="44.52135" lon="0.82132">
        <ele>148.8</ele>
        <time>2026-08-15T08:53:14Z</time>
      </trkpt>
      <trkpt lat="44.52136" lon="0.82136">
        <ele>148.8</ele>
        <time>2026-08-15T08:53:15Z</time>
      </trkpt>
      <trkpt lat="44.52137" lon="0.8214">
        <ele>148.8</ele>
        <time>2026-08-15T08:53:16Z</time>
      </trkpt>
      <trkpt lat="44.52139" lon="0.82145">
        <ele>148.6</ele>
        <time>2026-08-15T08:53:17Z</time>
      </trkpt>
      <trkpt lat="44.52141" lon="0.82149">
        <ele>148.6</ele>
        <time>2026-08-15T08:53:18Z</time>
      </trkpt>
      <trkpt lat="44.52143" lon="0.82153">
        <ele>148.6</ele>
        <time>2026-08-15T08:53:19Z</time>
      </trkpt>
      <trkpt lat="44.52145" lon="0.82156">
        <ele>148.6</ele>
        <time>2026-08-15T08:53:20Z</time>
      </trkpt>
      <trkpt lat="44.52148" lon="0.8216">
        <ele>148.6</ele>
        <time>2026-08-15T08:53:21Z</time>
      </trkpt>
      <trkpt lat="44.5215" lon="0.82163">
        <ele>148.6</ele>
        <time>2026-08-15T08:53:22Z</time>
      </trkpt>
      <trkpt lat="44.52153" lon="0.82166">
        <ele>148.4</ele>
        <time>2026-08-15T08:53:23Z</time>
      </trkpt>
      <trkpt lat="44.52156" lon="0.8217">
        <ele>148.4</ele>
        <time>2026-08-15T08:53:24Z</time>
      </trkpt>
      <trkpt lat="44.52158" lon="0.82173">
        <ele>148.4</ele>
        <time>2026-08-15T08:53:25Z</time>
      </trkpt>
      <trkpt lat="44.52161" lon="0.82176">
        <ele>148.2</ele>
        <time>2026-08-15T08:53:26Z</time>
      </trkpt>
      <trkpt lat="44.52164" lon="0.82178">
        <ele>148.2</ele>
        <time>2026-08-15T08:53:27Z</time>
      </trkpt>
      <trkpt lat="44.52167" lon="0.82181">
        <ele>148.2</ele>
        <time>2026-08-15T08:53:28Z</time>
      </trkpt>
      <trkpt lat="44.52169" lon="0.82183">
        <ele>148.2</ele>
        <time>2026-08-15T08:53:29Z</time>
      </trkpt>
      <trkpt lat="44.52172" lon="0.82185">
        <ele>148.2</ele>
        <time>2026-08-15T08:53:30Z</time>
      </trkpt>
      <trkpt lat="44.52174" lon="0.82187">
        <ele>148</ele>
        <time>2026-08-15T08:53:31Z</time>
      </trkpt>
      <trkpt lat="44.52177" lon="0.82189">
        <ele>148</ele>
        <time>2026-08-15T08:53:32Z</time>
      </trkpt>
      <trkpt lat="44.52179" lon="0.82191">
        <ele>147.8</ele>
        <time>2026-08-15T08:53:33Z</time>
      </trkpt>
      <trkpt lat="44.52182" lon="0.82193">
        <ele>147.8</ele>
        <time>2026-08-15T08:53:34Z</time>
      </trkpt>
      <trkpt lat="44.52184" lon="0.82196">
        <ele>147.8</ele>
        <time>2026-08-15T08:53:35Z</time>
      </trkpt>
      <trkpt lat="44.52185" lon="0.82199">
        <ele>147.8</ele>
        <time>2026-08-15T08:53:36Z</time>
      </trkpt>
      <trkpt lat="44.52186" lon="0.822">
        <ele>147.8</ele>
        <time>2026-08-15T08:53:37Z</time>
      </trkpt>
      <trkpt lat="44.52187" lon="0.82203">
        <ele>147.8</ele>
        <time>2026-08-15T08:53:38Z</time>
      </trkpt>
      <trkpt lat="44.52188" lon="0.82206">
        <ele>147.8</ele>
        <time>2026-08-15T08:53:39Z</time>
      </trkpt>
      <trkpt lat="44.52189" lon="0.82209">
        <ele>148</ele>
        <time>2026-08-15T08:53:40Z</time>
      </trkpt>
      <trkpt lat="44.5219" lon="0.82212">
        <ele>148</ele>
        <time>2026-08-15T08:53:41Z</time>
      </trkpt>
      <trkpt lat="44.52191" lon="0.82216">
        <ele>148.2</ele>
        <time>2026-08-15T08:53:42Z</time>
      </trkpt>
      <trkpt lat="44.52192" lon="0.82219">
        <ele>148.2</ele>
        <time>2026-08-15T08:53:43Z</time>
      </trkpt>
      <trkpt lat="44.52194" lon="0.82222">
        <ele>148.2</ele>
        <time>2026-08-15T08:53:44Z</time>
      </trkpt>
      <trkpt lat="44.52195" lon="0.82225">
        <ele>148.2</ele>
        <time>2026-08-15T08:53:45Z</time>
      </trkpt>
      <trkpt lat="44.52198" lon="0.82231">
        <ele>148.2</ele>
        <time>2026-08-15T08:53:46Z</time>
      </trkpt>
      <trkpt lat="44.522" lon="0.82235">
        <ele>148.2</ele>
        <time>2026-08-15T08:53:47Z</time>
      </trkpt>
      <trkpt lat="44.52202" lon="0.82238">
        <ele>148.2</ele>
        <time>2026-08-15T08:53:48Z</time>
      </trkpt>
      <trkpt lat="44.52204" lon="0.82242">
        <ele>148.2</ele>
        <time>2026-08-15T08:53:49Z</time>
      </trkpt>
      <trkpt lat="44.52206" lon="0.82245">
        <ele>148.2</ele>
        <time>2026-08-15T08:53:50Z</time>
      </trkpt>
      <trkpt lat="44.52208" lon="0.82249">
        <ele>148</ele>
        <time>2026-08-15T08:53:51Z</time>
      </trkpt>
      <trkpt lat="44.52211" lon="0.82253">
        <ele>148</ele>
        <time>2026-08-15T08:53:52Z</time>
      </trkpt>
      <trkpt lat="44.52213" lon="0.82257">
        <ele>147.8</ele>
        <time>2026-08-15T08:53:53Z</time>
      </trkpt>
      <trkpt lat="44.52216" lon="0.8226">
        <ele>147.8</ele>
        <time>2026-08-15T08:53:54Z</time>
      </trkpt>
      <trkpt lat="44.52218" lon="0.82264">
        <ele>147.8</ele>
        <time>2026-08-15T08:53:55Z</time>
      </trkpt>
      <trkpt lat="44.5222" lon="0.82268">
        <ele>147.8</ele>
        <time>2026-08-15T08:53:56Z</time>
      </trkpt>
      <trkpt lat="44.52222" lon="0.82273">
        <ele>147.8</ele>
        <time>2026-08-15T08:53:57Z</time>
      </trkpt>
      <trkpt lat="44.52224" lon="0.82277">
        <ele>148</ele>
        <time>2026-08-15T08:53:58Z</time>
      </trkpt>
      <trkpt lat="44.52225" lon="0.82282">
        <ele>148</ele>
        <time>2026-08-15T08:53:59Z</time>
      </trkpt>
      <trkpt lat="44.52227" lon="0.82286">
        <ele>148</ele>
        <time>2026-08-15T08:54:00Z</time>
      </trkpt>
      <trkpt lat="44.52229" lon="0.82291">
        <ele>147.8</ele>
        <time>2026-08-15T08:54:01Z</time>
      </trkpt>
      <trkpt lat="44.52231" lon="0.82295">
        <ele>147.8</ele>
        <time>2026-08-15T08:54:02Z</time>
      </trkpt>
      <trkpt lat="44.52233" lon="0.823">
        <ele>147.8</ele>
        <time>2026-08-15T08:54:03Z</time>
      </trkpt>
      <trkpt lat="44.52235" lon="0.82305">
        <ele>147.8</ele>
        <time>2026-08-15T08:54:04Z</time>
      </trkpt>
      <trkpt lat="44.52236" lon="0.8231">
        <ele>147.8</ele>
        <time>2026-08-15T08:54:05Z</time>
      </trkpt>
      <trkpt lat="44.52237" lon="0.82315">
        <ele>147.6</ele>
        <time>2026-08-15T08:54:06Z</time>
      </trkpt>
      <trkpt lat="44.52239" lon="0.8232">
        <ele>147.6</ele>
        <time>2026-08-15T08:54:07Z</time>
      </trkpt>
      <trkpt lat="44.5224" lon="0.82324">
        <ele>147.6</ele>
        <time>2026-08-15T08:54:08Z</time>
      </trkpt>
      <trkpt lat="44.52242" lon="0.82329">
        <ele>147.6</ele>
        <time>2026-08-15T08:54:09Z</time>
      </trkpt>
      <trkpt lat="44.52244" lon="0.82333">
        <ele>147.6</ele>
        <time>2026-08-15T08:54:10Z</time>
      </trkpt>
      <trkpt lat="44.52246" lon="0.82337">
        <ele>147.6</ele>
        <time>2026-08-15T08:54:11Z</time>
      </trkpt>
      <trkpt lat="44.52249" lon="0.82341">
        <ele>147.6</ele>
        <time>2026-08-15T08:54:37Z</time>
      </trkpt>
      <trkpt lat="44.5225" lon="0.82343">
        <ele>147.6</ele>
        <time>2026-08-15T08:54:38Z</time>
      </trkpt>
      <trkpt lat="44.52252" lon="0.82346">
        <ele>147.6</ele>
        <time>2026-08-15T08:54:39Z</time>
      </trkpt>
      <trkpt lat="44.52254" lon="0.82349">
        <ele>147.6</ele>
        <time>2026-08-15T08:54:40Z</time>
      </trkpt>
      <trkpt lat="44.52257" lon="0.82354">
        <ele>147.6</ele>
        <time>2026-08-15T08:54:41Z</time>
      </trkpt>
      <trkpt lat="44.5226" lon="0.82357">
        <ele>147.6</ele>
        <time>2026-08-15T08:54:42Z</time>
      </trkpt>
      <trkpt lat="44.52262" lon="0.8236">
        <ele>147.6</ele>
        <time>2026-08-15T08:54:43Z</time>
      </trkpt>
      <trkpt lat="44.52265" lon="0.82364">
        <ele>147.6</ele>
        <time>2026-08-15T08:54:44Z</time>
      </trkpt>
      <trkpt lat="44.52267" lon="0.82367">
        <ele>147.6</ele>
        <time>2026-08-15T08:54:45Z</time>
      </trkpt>
      <trkpt lat="44.5227" lon="0.82371">
        <ele>147.6</ele>
        <time>2026-08-15T08:54:46Z</time>
      </trkpt>
      <trkpt lat="44.52272" lon="0.82375">
        <ele>147.6</ele>
        <time>2026-08-15T08:54:47Z</time>
      </trkpt>
      <trkpt lat="44.52275" lon="0.82379">
        <ele>147.6</ele>
        <time>2026-08-15T08:54:48Z</time>
      </trkpt>
      <trkpt lat="44.52278" lon="0.82383">
        <ele>147.6</ele>
        <time>2026-08-15T08:54:49Z</time>
      </trkpt>
      <trkpt lat="44.52281" lon="0.82387">
        <ele>147.6</ele>
        <time>2026-08-15T08:54:50Z</time>
      </trkpt>
      <trkpt lat="44.52283" lon="0.82391">
        <ele>147.4</ele>
        <time>2026-08-15T08:54:51Z</time>
      </trkpt>
      <trkpt lat="44.52286" lon="0.82395">
        <ele>147.4</ele>
        <time>2026-08-15T08:54:52Z</time>
      </trkpt>
      <trkpt lat="44.52289" lon="0.82399">
        <ele>147.4</ele>
        <time>2026-08-15T08:54:53Z</time>
      </trkpt>
      <trkpt lat="44.52292" lon="0.82403">
        <ele>147.4</ele>
        <time>2026-08-15T08:54:54Z</time>
      </trkpt>
      <trkpt lat="44.52295" lon="0.82407">
        <ele>147.4</ele>
        <time>2026-08-15T08:54:55Z</time>
      </trkpt>
      <trkpt lat="44.52298" lon="0.82411">
        <ele>147.4</ele>
        <time>2026-08-15T08:54:56Z</time>
      </trkpt>
      <trkpt lat="44.52301" lon="0.82416">
        <ele>147.4</ele>
        <time>2026-08-15T08:54:57Z</time>
      </trkpt>
      <trkpt lat="44.52304" lon="0.8242">
        <ele>147.4</ele>
        <time>2026-08-15T08:54:58Z</time>
      </trkpt>
      <trkpt lat="44.52307" lon="0.82424">
        <ele>147.4</ele>
        <time>2026-08-15T08:54:59Z</time>
      </trkpt>
      <trkpt lat="44.5231" lon="0.82428">
        <ele>147.4</ele>
        <time>2026-08-15T08:55:00Z</time>
      </trkpt>
      <trkpt lat="44.52313" lon="0.82433">
        <ele>147.2</ele>
        <time>2026-08-15T08:55:01Z</time>
      </trkpt>
      <trkpt lat="44.52316" lon="0.82437">
        <ele>147.2</ele>
        <time>2026-08-15T08:55:02Z</time>
      </trkpt>
      <trkpt lat="44.52319" lon="0.82441">
        <ele>147.2</ele>
        <time>2026-08-15T08:55:03Z</time>
      </trkpt>
      <trkpt lat="44.52322" lon="0.82445">
        <ele>147</ele>
        <time>2026-08-15T08:55:04Z</time>
      </trkpt>
      <trkpt lat="44.52325" lon="0.82449">
        <ele>146.8</ele>
        <time>2026-08-15T08:55:05Z</time>
      </trkpt>
      <trkpt lat="44.52327" lon="0.82452">
        <ele>146.8</ele>
        <time>2026-08-15T08:55:06Z</time>
      </trkpt>
      <trkpt lat="44.5233" lon="0.82455">
        <ele>146.8</ele>
        <time>2026-08-15T08:55:07Z</time>
      </trkpt>
      <trkpt lat="44.52332" lon="0.82459">
        <ele>146.8</ele>
        <time>2026-08-15T08:55:08Z</time>
      </trkpt>
      <trkpt lat="44.52334" lon="0.82463">
        <ele>146.6</ele>
        <time>2026-08-15T08:55:09Z</time>
      </trkpt>
      <trkpt lat="44.52336" lon="0.82467">
        <ele>146.6</ele>
        <time>2026-08-15T08:55:10Z</time>
      </trkpt>
      <trkpt lat="44.52337" lon="0.82472">
        <ele>146.6</ele>
        <time>2026-08-15T08:55:11Z</time>
      </trkpt>
      <trkpt lat="44.52338" lon="0.82477">
        <ele>146.4</ele>
        <time>2026-08-15T08:55:12Z</time>
      </trkpt>
      <trkpt lat="44.52338" lon="0.82482">
        <ele>146.4</ele>
        <time>2026-08-15T08:55:13Z</time>
      </trkpt>
      <trkpt lat="44.52338" lon="0.82487">
        <ele>146.4</ele>
        <time>2026-08-15T08:55:14Z</time>
      </trkpt>
      <trkpt lat="44.52337" lon="0.82492">
        <ele>146.4</ele>
        <time>2026-08-15T08:55:15Z</time>
      </trkpt>
      <trkpt lat="44.52336" lon="0.82497">
        <ele>146.4</ele>
        <time>2026-08-15T08:55:16Z</time>
      </trkpt>
      <trkpt lat="44.52335" lon="0.82503">
        <ele>146.4</ele>
        <time>2026-08-15T08:55:17Z</time>
      </trkpt>
      <trkpt lat="44.52334" lon="0.82508">
        <ele>146.4</ele>
        <time>2026-08-15T08:55:18Z</time>
      </trkpt>
      <trkpt lat="44.52333" lon="0.82514">
        <ele>146.4</ele>
        <time>2026-08-15T08:55:19Z</time>
      </trkpt>
      <trkpt lat="44.52331" lon="0.8252">
        <ele>146.2</ele>
        <time>2026-08-15T08:55:20Z</time>
      </trkpt>
      <trkpt lat="44.5233" lon="0.82525">
        <ele>146.2</ele>
        <time>2026-08-15T08:55:21Z</time>
      </trkpt>
      <trkpt lat="44.52328" lon="0.82531">
        <ele>146.2</ele>
        <time>2026-08-15T08:55:22Z</time>
      </trkpt>
      <trkpt lat="44.52327" lon="0.82537">
        <ele>146.2</ele>
        <time>2026-08-15T08:55:23Z</time>
      </trkpt>
      <trkpt lat="44.52325" lon="0.82542">
        <ele>146</ele>
        <time>2026-08-15T08:55:24Z</time>
      </trkpt>
      <trkpt lat="44.52324" lon="0.82548">
        <ele>146</ele>
        <time>2026-08-15T08:55:25Z</time>
      </trkpt>
      <trkpt lat="44.52322" lon="0.82553">
        <ele>145.8</ele>
        <time>2026-08-15T08:55:26Z</time>
      </trkpt>
      <trkpt lat="44.52321" lon="0.82559">
        <ele>145.8</ele>
        <time>2026-08-15T08:55:27Z</time>
      </trkpt>
      <trkpt lat="44.5232" lon="0.82565">
        <ele>145.8</ele>
        <time>2026-08-15T08:55:28Z</time>
      </trkpt>
      <trkpt lat="44.52318" lon="0.82571">
        <ele>145.8</ele>
        <time>2026-08-15T08:55:29Z</time>
      </trkpt>
      <trkpt lat="44.52317" lon="0.82577">
        <ele>145.8</ele>
        <time>2026-08-15T08:55:30Z</time>
      </trkpt>
      <trkpt lat="44.52316" lon="0.82583">
        <ele>145.8</ele>
        <time>2026-08-15T08:55:31Z</time>
      </trkpt>
      <trkpt lat="44.52315" lon="0.82588">
        <ele>145.8</ele>
        <time>2026-08-15T08:55:32Z</time>
      </trkpt>
      <trkpt lat="44.52314" lon="0.82594">
        <ele>145.8</ele>
        <time>2026-08-15T08:55:33Z</time>
      </trkpt>
      <trkpt lat="44.52314" lon="0.82599">
        <ele>145.8</ele>
        <time>2026-08-15T08:55:34Z</time>
      </trkpt>
      <trkpt lat="44.52313" lon="0.82604">
        <ele>145.8</ele>
        <time>2026-08-15T08:55:35Z</time>
      </trkpt>
      <trkpt lat="44.52313" lon="0.82609">
        <ele>146</ele>
        <time>2026-08-15T08:55:36Z</time>
      </trkpt>
      <trkpt lat="44.52314" lon="0.82614">
        <ele>146</ele>
        <time>2026-08-15T08:55:37Z</time>
      </trkpt>
      <trkpt lat="44.52314" lon="0.82619">
        <ele>146.2</ele>
        <time>2026-08-15T08:55:38Z</time>
      </trkpt>
      <trkpt lat="44.52314" lon="0.82625">
        <ele>146.2</ele>
        <time>2026-08-15T08:55:39Z</time>
      </trkpt>
      <trkpt lat="44.52314" lon="0.82631">
        <ele>146.2</ele>
        <time>2026-08-15T08:55:40Z</time>
      </trkpt>
      <trkpt lat="44.52313" lon="0.82638">
        <ele>146.2</ele>
        <time>2026-08-15T08:55:41Z</time>
      </trkpt>
      <trkpt lat="44.52313" lon="0.82645">
        <ele>146.2</ele>
        <time>2026-08-15T08:55:42Z</time>
      </trkpt>
      <trkpt lat="44.52313" lon="0.82651">
        <ele>146</ele>
        <time>2026-08-15T08:55:43Z</time>
      </trkpt>
      <trkpt lat="44.52312" lon="0.82658">
        <ele>146</ele>
        <time>2026-08-15T08:55:44Z</time>
      </trkpt>
      <trkpt lat="44.52312" lon="0.82665">
        <ele>146</ele>
        <time>2026-08-15T08:55:45Z</time>
      </trkpt>
      <trkpt lat="44.52312" lon="0.82672">
        <ele>145.8</ele>
        <time>2026-08-15T08:55:46Z</time>
      </trkpt>
      <trkpt lat="44.52311" lon="0.82679">
        <ele>145.8</ele>
        <time>2026-08-15T08:55:47Z</time>
      </trkpt>
      <trkpt lat="44.52311" lon="0.82686">
        <ele>145.8</ele>
        <time>2026-08-15T08:55:48Z</time>
      </trkpt>
      <trkpt lat="44.5231" lon="0.82692">
        <ele>146</ele>
        <time>2026-08-15T08:55:49Z</time>
      </trkpt>
      <trkpt lat="44.5231" lon="0.82699">
        <ele>145.8</ele>
        <time>2026-08-15T08:55:50Z</time>
      </trkpt>
      <trkpt lat="44.5231" lon="0.82706">
        <ele>145.8</ele>
        <time>2026-08-15T08:55:51Z</time>
      </trkpt>
      <trkpt lat="44.5231" lon="0.82713">
        <ele>145.8</ele>
        <time>2026-08-15T08:55:52Z</time>
      </trkpt>
      <trkpt lat="44.52309" lon="0.8272">
        <ele>145.8</ele>
        <time>2026-08-15T08:55:53Z</time>
      </trkpt>
      <trkpt lat="44.52309" lon="0.82727">
        <ele>145.8</ele>
        <time>2026-08-15T08:55:54Z</time>
      </trkpt>
      <trkpt lat="44.52308" lon="0.82734">
        <ele>145.8</ele>
        <time>2026-08-15T08:55:55Z</time>
      </trkpt>
      <trkpt lat="44.52308" lon="0.82741">
        <ele>145.8</ele>
        <time>2026-08-15T08:55:56Z</time>
      </trkpt>
      <trkpt lat="44.52308" lon="0.82748">
        <ele>146</ele>
        <time>2026-08-15T08:55:57Z</time>
      </trkpt>
      <trkpt lat="44.52307" lon="0.82755">
        <ele>146</ele>
        <time>2026-08-15T08:55:58Z</time>
      </trkpt>
      <trkpt lat="44.52307" lon="0.82761">
        <ele>146</ele>
        <time>2026-08-15T08:55:59Z</time>
      </trkpt>
      <trkpt lat="44.52307" lon="0.82768">
        <ele>146</ele>
        <time>2026-08-15T08:56:00Z</time>
      </trkpt>
      <trkpt lat="44.52306" lon="0.82775">
        <ele>146.2</ele>
        <time>2026-08-15T08:56:01Z</time>
      </trkpt>
      <trkpt lat="44.52306" lon="0.82781">
        <ele>146.2</ele>
        <time>2026-08-15T08:56:02Z</time>
      </trkpt>
      <trkpt lat="44.52306" lon="0.82788">
        <ele>146.4</ele>
        <time>2026-08-15T08:56:03Z</time>
      </trkpt>
      <trkpt lat="44.52306" lon="0.82795">
        <ele>146.4</ele>
        <time>2026-08-15T08:56:04Z</time>
      </trkpt>
      <trkpt lat="44.52305" lon="0.82801">
        <ele>146.6</ele>
        <time>2026-08-15T08:56:05Z</time>
      </trkpt>
      <trkpt lat="44.52305" lon="0.82808">
        <ele>146.6</ele>
        <time>2026-08-15T08:56:06Z</time>
      </trkpt>
      <trkpt lat="44.52305" lon="0.82814">
        <ele>146.6</ele>
        <time>2026-08-15T08:56:07Z</time>
      </trkpt>
      <trkpt lat="44.52304" lon="0.82821">
        <ele>146.8</ele>
        <time>2026-08-15T08:56:08Z</time>
      </trkpt>
      <trkpt lat="44.52304" lon="0.82827">
        <ele>147.2</ele>
        <time>2026-08-15T08:56:09Z</time>
      </trkpt>
      <trkpt lat="44.52304" lon="0.82833">
        <ele>147.2</ele>
        <time>2026-08-15T08:56:10Z</time>
      </trkpt>
      <trkpt lat="44.52304" lon="0.82839">
        <ele>147.4</ele>
        <time>2026-08-15T08:56:11Z</time>
      </trkpt>
      <trkpt lat="44.52303" lon="0.82845">
        <ele>147.4</ele>
        <time>2026-08-15T08:56:12Z</time>
      </trkpt>
      <trkpt lat="44.52303" lon="0.8285">
        <ele>147.6</ele>
        <time>2026-08-15T08:56:13Z</time>
      </trkpt>
      <trkpt lat="44.52303" lon="0.82856">
        <ele>147.8</ele>
        <time>2026-08-15T08:56:14Z</time>
      </trkpt>
      <trkpt lat="44.52303" lon="0.82861">
        <ele>148</ele>
        <time>2026-08-15T08:56:15Z</time>
      </trkpt>
      <trkpt lat="44.52303" lon="0.82866">
        <ele>148.2</ele>
        <time>2026-08-15T08:56:16Z</time>
      </trkpt>
      <trkpt lat="44.52303" lon="0.82872">
        <ele>148.4</ele>
        <time>2026-08-15T08:56:17Z</time>
      </trkpt>
      <trkpt lat="44.52302" lon="0.82877">
        <ele>148.6</ele>
        <time>2026-08-15T08:56:18Z</time>
      </trkpt>
      <trkpt lat="44.52302" lon="0.82882">
        <ele>148.8</ele>
        <time>2026-08-15T08:56:19Z</time>
      </trkpt>
      <trkpt lat="44.52301" lon="0.82887">
        <ele>149</ele>
        <time>2026-08-15T08:56:20Z</time>
      </trkpt>
      <trkpt lat="44.52301" lon="0.82892">
        <ele>149.2</ele>
        <time>2026-08-15T08:56:21Z</time>
      </trkpt>
      <trkpt lat="44.523" lon="0.82897">
        <ele>149.4</ele>
        <time>2026-08-15T08:56:22Z</time>
      </trkpt>
      <trkpt lat="44.523" lon="0.82901">
        <ele>149.6</ele>
        <time>2026-08-15T08:56:23Z</time>
      </trkpt>
      <trkpt lat="44.52299" lon="0.82906">
        <ele>149.8</ele>
        <time>2026-08-15T08:56:24Z</time>
      </trkpt>
      <trkpt lat="44.52299" lon="0.82911">
        <ele>150</ele>
        <time>2026-08-15T08:56:25Z</time>
      </trkpt>
      <trkpt lat="44.52298" lon="0.82915">
        <ele>150.2</ele>
        <time>2026-08-15T08:56:26Z</time>
      </trkpt>
      <trkpt lat="44.52298" lon="0.8292">
        <ele>150.4</ele>
        <time>2026-08-15T08:56:27Z</time>
      </trkpt>
      <trkpt lat="44.52297" lon="0.82925">
        <ele>150.4</ele>
        <time>2026-08-15T08:56:28Z</time>
      </trkpt>
      <trkpt lat="44.52297" lon="0.82929">
        <ele>150.6</ele>
        <time>2026-08-15T08:56:29Z</time>
      </trkpt>
      <trkpt lat="44.52296" lon="0.82934">
        <ele>150.6</ele>
        <time>2026-08-15T08:56:30Z</time>
      </trkpt>
      <trkpt lat="44.52295" lon="0.82939">
        <ele>150.6</ele>
        <time>2026-08-15T08:56:31Z</time>
      </trkpt>
      <trkpt lat="44.52295" lon="0.82944">
        <ele>150.6</ele>
        <time>2026-08-15T08:56:32Z</time>
      </trkpt>
      <trkpt lat="44.52294" lon="0.82949">
        <ele>150.8</ele>
        <time>2026-08-15T08:56:33Z</time>
      </trkpt>
      <trkpt lat="44.52294" lon="0.82954">
        <ele>150.8</ele>
        <time>2026-08-15T08:56:34Z</time>
      </trkpt>
      <trkpt lat="44.52294" lon="0.82959">
        <ele>151</ele>
        <time>2026-08-15T08:56:35Z</time>
      </trkpt>
      <trkpt lat="44.52293" lon="0.82964">
        <ele>151.2</ele>
        <time>2026-08-15T08:56:36Z</time>
      </trkpt>
      <trkpt lat="44.52292" lon="0.82969">
        <ele>151.4</ele>
        <time>2026-08-15T08:56:37Z</time>
      </trkpt>
      <trkpt lat="44.52292" lon="0.82974">
        <ele>151.4</ele>
        <time>2026-08-15T08:56:38Z</time>
      </trkpt>
      <trkpt lat="44.52291" lon="0.82979">
        <ele>151.4</ele>
        <time>2026-08-15T08:56:39Z</time>
      </trkpt>
      <trkpt lat="44.5229" lon="0.82984">
        <ele>151.6</ele>
        <time>2026-08-15T08:56:40Z</time>
      </trkpt>
      <trkpt lat="44.52289" lon="0.8299">
        <ele>151.6</ele>
        <time>2026-08-15T08:56:41Z</time>
      </trkpt>
      <trkpt lat="44.52288" lon="0.82995">
        <ele>151.6</ele>
        <time>2026-08-15T08:56:42Z</time>
      </trkpt>
      <trkpt lat="44.52287" lon="0.83">
        <ele>151.6</ele>
        <time>2026-08-15T08:56:43Z</time>
      </trkpt>
      <trkpt lat="44.52286" lon="0.83005">
        <ele>151.6</ele>
        <time>2026-08-15T08:56:44Z</time>
      </trkpt>
      <trkpt lat="44.52285" lon="0.83011">
        <ele>151.6</ele>
        <time>2026-08-15T08:56:45Z</time>
      </trkpt>
      <trkpt lat="44.52284" lon="0.83016">
        <ele>151.6</ele>
        <time>2026-08-15T08:56:46Z</time>
      </trkpt>
      <trkpt lat="44.52283" lon="0.83021">
        <ele>151.6</ele>
        <time>2026-08-15T08:56:47Z</time>
      </trkpt>
      <trkpt lat="44.52282" lon="0.83027">
        <ele>151.6</ele>
        <time>2026-08-15T08:56:48Z</time>
      </trkpt>
      <trkpt lat="44.5228" lon="0.83032">
        <ele>151.6</ele>
        <time>2026-08-15T08:56:49Z</time>
      </trkpt>
      <trkpt lat="44.52279" lon="0.83037">
        <ele>151.6</ele>
        <time>2026-08-15T08:56:50Z</time>
      </trkpt>
      <trkpt lat="44.52278" lon="0.83042">
        <ele>151.8</ele>
        <time>2026-08-15T08:56:51Z</time>
      </trkpt>
      <trkpt lat="44.52276" lon="0.83047">
        <ele>151.8</ele>
        <time>2026-08-15T08:56:52Z</time>
      </trkpt>
      <trkpt lat="44.52274" lon="0.83051">
        <ele>151.8</ele>
        <time>2026-08-15T08:56:53Z</time>
      </trkpt>
      <trkpt lat="44.52272" lon="0.83056">
        <ele>151.8</ele>
        <time>2026-08-15T08:56:54Z</time>
      </trkpt>
      <trkpt lat="44.5227" lon="0.83061">
        <ele>151.8</ele>
        <time>2026-08-15T08:56:55Z</time>
      </trkpt>
      <trkpt lat="44.52268" lon="0.83065">
        <ele>151.8</ele>
        <time>2026-08-15T08:56:56Z</time>
      </trkpt>
      <trkpt lat="44.52266" lon="0.8307">
        <ele>151.8</ele>
        <time>2026-08-15T08:56:57Z</time>
      </trkpt>
      <trkpt lat="44.52264" lon="0.83075">
        <ele>152</ele>
        <time>2026-08-15T08:56:58Z</time>
      </trkpt>
      <trkpt lat="44.52262" lon="0.83079">
        <ele>152.2</ele>
        <time>2026-08-15T08:56:59Z</time>
      </trkpt>
      <trkpt lat="44.5226" lon="0.83083">
        <ele>152.4</ele>
        <time>2026-08-15T08:57:00Z</time>
      </trkpt>
      <trkpt lat="44.52258" lon="0.83088">
        <ele>152.6</ele>
        <time>2026-08-15T08:57:01Z</time>
      </trkpt>
      <trkpt lat="44.52256" lon="0.83092">
        <ele>152.6</ele>
        <time>2026-08-15T08:57:02Z</time>
      </trkpt>
      <trkpt lat="44.52254" lon="0.83097">
        <ele>152.6</ele>
        <time>2026-08-15T08:57:03Z</time>
      </trkpt>
      <trkpt lat="44.52252" lon="0.83102">
        <ele>152.8</ele>
        <time>2026-08-15T08:57:04Z</time>
      </trkpt>
      <trkpt lat="44.52251" lon="0.83106">
        <ele>153.2</ele>
        <time>2026-08-15T08:57:05Z</time>
      </trkpt>
      <trkpt lat="44.52249" lon="0.83111">
        <ele>153.2</ele>
        <time>2026-08-15T08:57:06Z</time>
      </trkpt>
      <trkpt lat="44.52247" lon="0.83116">
        <ele>153.4</ele>
        <time>2026-08-15T08:57:07Z</time>
      </trkpt>
      <trkpt lat="44.52245" lon="0.83121">
        <ele>153.4</ele>
        <time>2026-08-15T08:57:08Z</time>
      </trkpt>
      <trkpt lat="44.52243" lon="0.83126">
        <ele>153.4</ele>
        <time>2026-08-15T08:57:09Z</time>
      </trkpt>
      <trkpt lat="44.5224" lon="0.83131">
        <ele>153.4</ele>
        <time>2026-08-15T08:57:10Z</time>
      </trkpt>
      <trkpt lat="44.52238" lon="0.83136">
        <ele>153.4</ele>
        <time>2026-08-15T08:57:11Z</time>
      </trkpt>
      <trkpt lat="44.52236" lon="0.83142">
        <ele>153.2</ele>
        <time>2026-08-15T08:57:12Z</time>
      </trkpt>
      <trkpt lat="44.52233" lon="0.83148">
        <ele>153.2</ele>
        <time>2026-08-15T08:57:13Z</time>
      </trkpt>
      <trkpt lat="44.52231" lon="0.83154">
        <ele>152.8</ele>
        <time>2026-08-15T08:57:14Z</time>
      </trkpt>
      <trkpt lat="44.52228" lon="0.8316">
        <ele>152.6</ele>
        <time>2026-08-15T08:57:15Z</time>
      </trkpt>
      <trkpt lat="44.52225" lon="0.83167">
        <ele>152.6</ele>
        <time>2026-08-15T08:57:16Z</time>
      </trkpt>
      <trkpt lat="44.52223" lon="0.83173">
        <ele>152.4</ele>
        <time>2026-08-15T08:57:17Z</time>
      </trkpt>
      <trkpt lat="44.52219" lon="0.83182">
        <ele>152.2</ele>
        <time>2026-08-15T08:57:18Z</time>
      </trkpt>
      <trkpt lat="44.52216" lon="0.83189">
        <ele>151.8</ele>
        <time>2026-08-15T08:57:19Z</time>
      </trkpt>
      <trkpt lat="44.52213" lon="0.83195">
        <ele>151.8</ele>
        <time>2026-08-15T08:57:20Z</time>
      </trkpt>
      <trkpt lat="44.52211" lon="0.832">
        <ele>151.6</ele>
        <time>2026-08-15T08:57:21Z</time>
      </trkpt>
      <trkpt lat="44.52209" lon="0.83206">
        <ele>151.6</ele>
        <time>2026-08-15T08:57:22Z</time>
      </trkpt>
      <trkpt lat="44.52207" lon="0.83211">
        <ele>151.4</ele>
        <time>2026-08-15T08:57:23Z</time>
      </trkpt>
      <trkpt lat="44.52204" lon="0.83217">
        <ele>151.4</ele>
        <time>2026-08-15T08:57:24Z</time>
      </trkpt>
      <trkpt lat="44.52201" lon="0.83223">
        <ele>151.2</ele>
        <time>2026-08-15T08:57:25Z</time>
      </trkpt>
      <trkpt lat="44.52199" lon="0.83229">
        <ele>150.8</ele>
        <time>2026-08-15T08:57:26Z</time>
      </trkpt>
      <trkpt lat="44.52196" lon="0.83234">
        <ele>150.8</ele>
        <time>2026-08-15T08:57:27Z</time>
      </trkpt>
      <trkpt lat="44.52193" lon="0.8324">
        <ele>150.6</ele>
        <time>2026-08-15T08:57:28Z</time>
      </trkpt>
      <trkpt lat="44.5219" lon="0.83245">
        <ele>150.4</ele>
        <time>2026-08-15T08:57:29Z</time>
      </trkpt>
      <trkpt lat="44.52186" lon="0.83251">
        <ele>150.2</ele>
        <time>2026-08-15T08:57:30Z</time>
      </trkpt>
      <trkpt lat="44.52183" lon="0.83256">
        <ele>150</ele>
        <time>2026-08-15T08:57:31Z</time>
      </trkpt>
      <trkpt lat="44.52179" lon="0.83261">
        <ele>150</ele>
        <time>2026-08-15T08:57:32Z</time>
      </trkpt>
      <trkpt lat="44.52175" lon="0.83265">
        <ele>149.8</ele>
        <time>2026-08-15T08:57:33Z</time>
      </trkpt>
      <trkpt lat="44.52171" lon="0.8327">
        <ele>149.8</ele>
        <time>2026-08-15T08:57:34Z</time>
      </trkpt>
      <trkpt lat="44.52167" lon="0.83275">
        <ele>149.6</ele>
        <time>2026-08-15T08:57:35Z</time>
      </trkpt>
      <trkpt lat="44.52163" lon="0.83279">
        <ele>149.6</ele>
        <time>2026-08-15T08:57:36Z</time>
      </trkpt>
      <trkpt lat="44.52158" lon="0.83283">
        <ele>149.6</ele>
        <time>2026-08-15T08:57:37Z</time>
      </trkpt>
      <trkpt lat="44.52154" lon="0.83286">
        <ele>149.6</ele>
        <time>2026-08-15T08:57:38Z</time>
      </trkpt>
      <trkpt lat="44.5215" lon="0.8329">
        <ele>149.6</ele>
        <time>2026-08-15T08:57:39Z</time>
      </trkpt>
      <trkpt lat="44.52146" lon="0.83293">
        <ele>149.6</ele>
        <time>2026-08-15T08:57:40Z</time>
      </trkpt>
      <trkpt lat="44.52143" lon="0.83296">
        <ele>149.6</ele>
        <time>2026-08-15T08:57:41Z</time>
      </trkpt>
      <trkpt lat="44.52139" lon="0.83299">
        <ele>149.6</ele>
        <time>2026-08-15T08:57:42Z</time>
      </trkpt>
      <trkpt lat="44.52136" lon="0.83302">
        <ele>149.6</ele>
        <time>2026-08-15T08:57:43Z</time>
      </trkpt>
      <trkpt lat="44.52133" lon="0.83304">
        <ele>149.8</ele>
        <time>2026-08-15T08:57:44Z</time>
      </trkpt>
      <trkpt lat="44.5213" lon="0.83306">
        <ele>150</ele>
        <time>2026-08-15T08:57:45Z</time>
      </trkpt>
      <trkpt lat="44.52127" lon="0.83308">
        <ele>150.2</ele>
        <time>2026-08-15T08:57:46Z</time>
      </trkpt>
      <trkpt lat="44.52124" lon="0.8331">
        <ele>150.4</ele>
        <time>2026-08-15T08:57:47Z</time>
      </trkpt>
      <trkpt lat="44.52121" lon="0.83312">
        <ele>150.6</ele>
        <time>2026-08-15T08:57:48Z</time>
      </trkpt>
      <trkpt lat="44.52119" lon="0.83314">
        <ele>150.8</ele>
        <time>2026-08-15T08:57:49Z</time>
      </trkpt>
      <trkpt lat="44.52117" lon="0.83317">
        <ele>151.2</ele>
        <time>2026-08-15T08:57:50Z</time>
      </trkpt>
      <trkpt lat="44.52116" lon="0.83318">
        <ele>151.4</ele>
        <time>2026-08-15T08:57:51Z</time>
      </trkpt>
      <trkpt lat="44.52115" lon="0.8332">
        <ele>151.6</ele>
        <time>2026-08-15T08:57:52Z</time>
      </trkpt>
      <trkpt lat="44.52114" lon="0.83322">
        <ele>151.6</ele>
        <time>2026-08-15T08:57:53Z</time>
      </trkpt>
      <trkpt lat="44.52113" lon="0.83324">
        <ele>151.8</ele>
        <time>2026-08-15T08:57:54Z</time>
      </trkpt>
      <trkpt lat="44.52112" lon="0.83325">
        <ele>151.8</ele>
        <time>2026-08-15T08:57:55Z</time>
      </trkpt>
      <trkpt lat="44.52112" lon="0.83327">
        <ele>152</ele>
        <time>2026-08-15T08:57:56Z</time>
      </trkpt>
      <trkpt lat="44.52112" lon="0.83329">
        <ele>152.2</ele>
        <time>2026-08-15T08:57:57Z</time>
      </trkpt>
      <trkpt lat="44.52111" lon="0.83332">
        <ele>152.4</ele>
        <time>2026-08-15T08:59:01Z</time>
      </trkpt>
      <trkpt lat="44.5211" lon="0.83333">
        <ele>152.2</ele>
        <time>2026-08-15T08:59:02Z</time>
      </trkpt>
      <trkpt lat="44.5211" lon="0.83334">
        <ele>152.4</ele>
        <time>2026-08-15T08:59:03Z</time>
      </trkpt>
      <trkpt lat="44.52109" lon="0.83335">
        <ele>152.4</ele>
        <time>2026-08-15T08:59:04Z</time>
      </trkpt>
      <trkpt lat="44.52108" lon="0.83336">
        <ele>152.6</ele>
        <time>2026-08-15T08:59:05Z</time>
      </trkpt>
      <trkpt lat="44.52108" lon="0.83337">
        <ele>152.8</ele>
        <time>2026-08-15T08:59:06Z</time>
      </trkpt>
      <trkpt lat="44.52107" lon="0.83338">
        <ele>152.8</ele>
        <time>2026-08-15T08:59:07Z</time>
      </trkpt>
      <trkpt lat="44.52107" lon="0.83338">
        <ele>153.2</ele>
        <time>2026-08-15T08:59:08Z</time>
      </trkpt>
      <trkpt lat="44.52107" lon="0.83339">
        <ele>153.4</ele>
        <time>2026-08-15T08:59:09Z</time>
      </trkpt>
      <trkpt lat="44.52106" lon="0.8334">
        <ele>153.6</ele>
        <time>2026-08-15T08:59:10Z</time>
      </trkpt>
      <trkpt lat="44.52106" lon="0.83341">
        <ele>153.8</ele>
        <time>2026-08-15T08:59:11Z</time>
      </trkpt>
      <trkpt lat="44.52106" lon="0.83342">
        <ele>154.2</ele>
        <time>2026-08-15T08:59:12Z</time>
      </trkpt>
      <trkpt lat="44.52106" lon="0.83343">
        <ele>154.2</ele>
        <time>2026-08-15T08:59:13Z</time>
      </trkpt>
      <trkpt lat="44.52106" lon="0.83344">
        <ele>154.6</ele>
        <time>2026-08-15T08:59:14Z</time>
      </trkpt>
      <trkpt lat="44.52105" lon="0.83345">
        <ele>154.8</ele>
        <time>2026-08-15T08:59:15Z</time>
      </trkpt>
      <trkpt lat="44.52105" lon="0.83346">
        <ele>155</ele>
        <time>2026-08-15T08:59:16Z</time>
      </trkpt>
      <trkpt lat="44.52105" lon="0.83347">
        <ele>155.2</ele>
        <time>2026-08-15T08:59:17Z</time>
      </trkpt>
      <trkpt lat="44.52105" lon="0.83348">
        <ele>155.4</ele>
        <time>2026-08-15T08:59:18Z</time>
      </trkpt>
      <trkpt lat="44.52105" lon="0.83349">
        <ele>155.6</ele>
        <time>2026-08-15T08:59:19Z</time>
      </trkpt>
      <trkpt lat="44.52104" lon="0.8335">
        <ele>155.6</ele>
        <time>2026-08-15T08:59:20Z</time>
      </trkpt>
      <trkpt lat="44.52104" lon="0.83352">
        <ele>155.8</ele>
        <time>2026-08-15T08:59:21Z</time>
      </trkpt>
      <trkpt lat="44.52103" lon="0.83353">
        <ele>155.8</ele>
        <time>2026-08-15T08:59:22Z</time>
      </trkpt>
      <trkpt lat="44.52103" lon="0.83355">
        <ele>156.2</ele>
        <time>2026-08-15T08:59:23Z</time>
      </trkpt>
      <trkpt lat="44.52103" lon="0.83357">
        <ele>156.4</ele>
        <time>2026-08-15T08:59:24Z</time>
      </trkpt>
      <trkpt lat="44.52102" lon="0.83359">
        <ele>156.6</ele>
        <time>2026-08-15T08:59:25Z</time>
      </trkpt>
      <trkpt lat="44.52102" lon="0.83362">
        <ele>156.6</ele>
        <time>2026-08-15T08:59:26Z</time>
      </trkpt>
      <trkpt lat="44.52103" lon="0.83365">
        <ele>156.8</ele>
        <time>2026-08-15T08:59:27Z</time>
      </trkpt>
      <trkpt lat="44.52102" lon="0.83368">
        <ele>156.8</ele>
        <time>2026-08-15T08:59:28Z</time>
      </trkpt>
      <trkpt lat="44.52102" lon="0.83371">
        <ele>157</ele>
        <time>2026-08-15T08:59:29Z</time>
      </trkpt>
      <trkpt lat="44.52102" lon="0.83374">
        <ele>157.2</ele>
        <time>2026-08-15T08:59:30Z</time>
      </trkpt>
      <trkpt lat="44.52102" lon="0.83377">
        <ele>157.4</ele>
        <time>2026-08-15T08:59:31Z</time>
      </trkpt>
      <trkpt lat="44.52102" lon="0.8338">
        <ele>157.6</ele>
        <time>2026-08-15T08:59:32Z</time>
      </trkpt>
      <trkpt lat="44.52102" lon="0.83383">
        <ele>157.6</ele>
        <time>2026-08-15T08:59:33Z</time>
      </trkpt>
      <trkpt lat="44.52102" lon="0.83386">
        <ele>157.8</ele>
        <time>2026-08-15T08:59:34Z</time>
      </trkpt>
      <trkpt lat="44.52102" lon="0.83389">
        <ele>158</ele>
        <time>2026-08-15T08:59:35Z</time>
      </trkpt>
      <trkpt lat="44.52101" lon="0.83392">
        <ele>158.2</ele>
        <time>2026-08-15T08:59:36Z</time>
      </trkpt>
      <trkpt lat="44.52101" lon="0.83396">
        <ele>158.2</ele>
        <time>2026-08-15T08:59:37Z</time>
      </trkpt>
      <trkpt lat="44.521" lon="0.83399">
        <ele>158.4</ele>
        <time>2026-08-15T08:59:38Z</time>
      </trkpt>
      <trkpt lat="44.521" lon="0.83402">
        <ele>158.4</ele>
        <time>2026-08-15T08:59:39Z</time>
      </trkpt>
      <trkpt lat="44.521" lon="0.83406">
        <ele>158.6</ele>
        <time>2026-08-15T08:59:40Z</time>
      </trkpt>
      <trkpt lat="44.52099" lon="0.83409">
        <ele>158.6</ele>
        <time>2026-08-15T08:59:41Z</time>
      </trkpt>
      <trkpt lat="44.52099" lon="0.83413">
        <ele>158.6</ele>
        <time>2026-08-15T08:59:42Z</time>
      </trkpt>
      <trkpt lat="44.52099" lon="0.83416">
        <ele>158.6</ele>
        <time>2026-08-15T08:59:43Z</time>
      </trkpt>
      <trkpt lat="44.52099" lon="0.8342">
        <ele>158.6</ele>
        <time>2026-08-15T08:59:44Z</time>
      </trkpt>
      <trkpt lat="44.52098" lon="0.83423">
        <ele>158.8</ele>
        <time>2026-08-15T08:59:45Z</time>
      </trkpt>
      <trkpt lat="44.52098" lon="0.83427">
        <ele>158.8</ele>
        <time>2026-08-15T08:59:46Z</time>
      </trkpt>
      <trkpt lat="44.52097" lon="0.8343">
        <ele>159.2</ele>
        <time>2026-08-15T08:59:47Z</time>
      </trkpt>
      <trkpt lat="44.52096" lon="0.83433">
        <ele>159.2</ele>
        <time>2026-08-15T08:59:48Z</time>
      </trkpt>
      <trkpt lat="44.52096" lon="0.83436">
        <ele>159.4</ele>
        <time>2026-08-15T08:59:49Z</time>
      </trkpt>
      <trkpt lat="44.52095" lon="0.83439">
        <ele>159.6</ele>
        <time>2026-08-15T08:59:50Z</time>
      </trkpt>
      <trkpt lat="44.52094" lon="0.83442">
        <ele>159.6</ele>
        <time>2026-08-15T08:59:51Z</time>
      </trkpt>
      <trkpt lat="44.52094" lon="0.83445">
        <ele>159.8</ele>
        <time>2026-08-15T08:59:52Z</time>
      </trkpt>
      <trkpt lat="44.52093" lon="0.83448">
        <ele>159.8</ele>
        <time>2026-08-15T08:59:53Z</time>
      </trkpt>
      <trkpt lat="44.52092" lon="0.83451">
        <ele>160.2</ele>
        <time>2026-08-15T08:59:54Z</time>
      </trkpt>
      <trkpt lat="44.52092" lon="0.83454">
        <ele>160.4</ele>
        <time>2026-08-15T08:59:55Z</time>
      </trkpt>
      <trkpt lat="44.52091" lon="0.83457">
        <ele>160.6</ele>
        <time>2026-08-15T08:59:56Z</time>
      </trkpt>
      <trkpt lat="44.52091" lon="0.8346">
        <ele>160.8</ele>
        <time>2026-08-15T08:59:57Z</time>
      </trkpt>
      <trkpt lat="44.5209" lon="0.83463">
        <ele>160.8</ele>
        <time>2026-08-15T08:59:58Z</time>
      </trkpt>
      <trkpt lat="44.5209" lon="0.83466">
        <ele>161.2</ele>
        <time>2026-08-15T08:59:59Z</time>
      </trkpt>
      <trkpt lat="44.52089" lon="0.83469">
        <ele>161.4</ele>
        <time>2026-08-15T09:00:00Z</time>
      </trkpt>
      <trkpt lat="44.52088" lon="0.83472">
        <ele>161.6</ele>
        <time>2026-08-15T09:00:01Z</time>
      </trkpt>
      <trkpt lat="44.52088" lon="0.83475">
        <ele>161.6</ele>
        <time>2026-08-15T09:00:02Z</time>
      </trkpt>
      <trkpt lat="44.52087" lon="0.83478">
        <ele>161.8</ele>
        <time>2026-08-15T09:00:03Z</time>
      </trkpt>
      <trkpt lat="44.52086" lon="0.83481">
        <ele>162.2</ele>
        <time>2026-08-15T09:00:04Z</time>
      </trkpt>
      <trkpt lat="44.52085" lon="0.83484">
        <ele>162.4</ele>
        <time>2026-08-15T09:00:05Z</time>
      </trkpt>
      <trkpt lat="44.52085" lon="0.83487">
        <ele>162.6</ele>
        <time>2026-08-15T09:00:06Z</time>
      </trkpt>
      <trkpt lat="44.52084" lon="0.8349">
        <ele>162.6</ele>
        <time>2026-08-15T09:00:07Z</time>
      </trkpt>
      <trkpt lat="44.52083" lon="0.83494">
        <ele>162.8</ele>
        <time>2026-08-15T09:00:08Z</time>
      </trkpt>
      <trkpt lat="44.52083" lon="0.83497">
        <ele>163.2</ele>
        <time>2026-08-15T09:00:09Z</time>
      </trkpt>
      <trkpt lat="44.52082" lon="0.835">
        <ele>163.2</ele>
        <time>2026-08-15T09:00:10Z</time>
      </trkpt>
      <trkpt lat="44.52081" lon="0.83503">
        <ele>163.4</ele>
        <time>2026-08-15T09:00:11Z</time>
      </trkpt>
      <trkpt lat="44.52081" lon="0.83506">
        <ele>163.4</ele>
        <time>2026-08-15T09:00:12Z</time>
      </trkpt>
      <trkpt lat="44.5208" lon="0.83509">
        <ele>163.6</ele>
        <time>2026-08-15T09:00:13Z</time>
      </trkpt>
      <trkpt lat="44.52079" lon="0.83512">
        <ele>163.8</ele>
        <time>2026-08-15T09:00:14Z</time>
      </trkpt>
      <trkpt lat="44.52079" lon="0.83516">
        <ele>163.8</ele>
        <time>2026-08-15T09:00:15Z</time>
      </trkpt>
      <trkpt lat="44.52078" lon="0.83519">
        <ele>164.2</ele>
        <time>2026-08-15T09:00:16Z</time>
      </trkpt>
      <trkpt lat="44.52077" lon="0.83522">
        <ele>164.4</ele>
        <time>2026-08-15T09:00:17Z</time>
      </trkpt>
      <trkpt lat="44.52076" lon="0.83525">
        <ele>164.6</ele>
        <time>2026-08-15T09:00:18Z</time>
      </trkpt>
      <trkpt lat="44.52076" lon="0.83528">
        <ele>164.8</ele>
        <time>2026-08-15T09:00:19Z</time>
      </trkpt>
      <trkpt lat="44.52075" lon="0.83531">
        <ele>165</ele>
        <time>2026-08-15T09:00:20Z</time>
      </trkpt>
      <trkpt lat="44.52074" lon="0.83535">
        <ele>165.2</ele>
        <time>2026-08-15T09:00:21Z</time>
      </trkpt>
      <trkpt lat="44.52074" lon="0.83538">
        <ele>165.2</ele>
        <time>2026-08-15T09:00:22Z</time>
      </trkpt>
      <trkpt lat="44.52073" lon="0.83541">
        <ele>165.4</ele>
        <time>2026-08-15T09:00:23Z</time>
      </trkpt>
      <trkpt lat="44.52072" lon="0.83545">
        <ele>165.4</ele>
        <time>2026-08-15T09:00:24Z</time>
      </trkpt>
      <trkpt lat="44.52071" lon="0.83548">
        <ele>165.6</ele>
        <time>2026-08-15T09:00:25Z</time>
      </trkpt>
      <trkpt lat="44.5207" lon="0.83552">
        <ele>165.6</ele>
        <time>2026-08-15T09:00:26Z</time>
      </trkpt>
      <trkpt lat="44.5207" lon="0.83555">
        <ele>165.8</ele>
        <time>2026-08-15T09:00:27Z</time>
      </trkpt>
      <trkpt lat="44.52069" lon="0.83558">
        <ele>166</ele>
        <time>2026-08-15T09:00:28Z</time>
      </trkpt>
      <trkpt lat="44.52068" lon="0.83561">
        <ele>166.2</ele>
        <time>2026-08-15T09:00:29Z</time>
      </trkpt>
      <trkpt lat="44.52067" lon="0.83565">
        <ele>166.4</ele>
        <time>2026-08-15T09:00:30Z</time>
      </trkpt>
      <trkpt lat="44.52066" lon="0.83568">
        <ele>166.6</ele>
        <time>2026-08-15T09:00:31Z</time>
      </trkpt>
      <trkpt lat="44.52066" lon="0.83571">
        <ele>166.6</ele>
        <time>2026-08-15T09:00:32Z</time>
      </trkpt>
      <trkpt lat="44.52065" lon="0.83574">
        <ele>166.8</ele>
        <time>2026-08-15T09:00:33Z</time>
      </trkpt>
      <trkpt lat="44.52064" lon="0.83578">
        <ele>166.8</ele>
        <time>2026-08-15T09:00:34Z</time>
      </trkpt>
      <trkpt lat="44.52063" lon="0.83581">
        <ele>167</ele>
        <time>2026-08-15T09:00:35Z</time>
      </trkpt>
      <trkpt lat="44.52062" lon="0.83584">
        <ele>167.2</ele>
        <time>2026-08-15T09:00:36Z</time>
      </trkpt>
      <trkpt lat="44.52061" lon="0.83587">
        <ele>167.4</ele>
        <time>2026-08-15T09:00:37Z</time>
      </trkpt>
      <trkpt lat="44.5206" lon="0.8359">
        <ele>167.6</ele>
        <time>2026-08-15T09:00:38Z</time>
      </trkpt>
      <trkpt lat="44.52058" lon="0.83592">
        <ele>167.6</ele>
        <time>2026-08-15T09:00:39Z</time>
      </trkpt>
      <trkpt lat="44.52057" lon="0.83595">
        <ele>167.8</ele>
        <time>2026-08-15T09:00:40Z</time>
      </trkpt>
      <trkpt lat="44.52056" lon="0.83597">
        <ele>168</ele>
        <time>2026-08-15T09:00:41Z</time>
      </trkpt>
      <trkpt lat="44.52054" lon="0.836">
        <ele>168.2</ele>
        <time>2026-08-15T09:00:42Z</time>
      </trkpt>
      <trkpt lat="44.52053" lon="0.83602">
        <ele>168.4</ele>
        <time>2026-08-15T09:00:43Z</time>
      </trkpt>
      <trkpt lat="44.52051" lon="0.83605">
        <ele>168.6</ele>
        <time>2026-08-15T09:00:44Z</time>
      </trkpt>
      <trkpt lat="44.5205" lon="0.83608">
        <ele>168.6</ele>
        <time>2026-08-15T09:00:45Z</time>
      </trkpt>
      <trkpt lat="44.52048" lon="0.83611">
        <ele>168.6</ele>
        <time>2026-08-15T09:00:46Z</time>
      </trkpt>
      <trkpt lat="44.52047" lon="0.83614">
        <ele>168.6</ele>
        <time>2026-08-15T09:00:47Z</time>
      </trkpt>
      <trkpt lat="44.52045" lon="0.83617">
        <ele>168.8</ele>
        <time>2026-08-15T09:00:48Z</time>
      </trkpt>
      <trkpt lat="44.52043" lon="0.83623">
        <ele>168.8</ele>
        <time>2026-08-15T09:00:49Z</time>
      </trkpt>
      <trkpt lat="44.52041" lon="0.83626">
        <ele>168.8</ele>
        <time>2026-08-15T09:00:50Z</time>
      </trkpt>
      <trkpt lat="44.52041" lon="0.83628">
        <ele>168.8</ele>
        <time>2026-08-15T09:00:51Z</time>
      </trkpt>
      <trkpt lat="44.5204" lon="0.8363">
        <ele>168.8</ele>
        <time>2026-08-15T09:00:52Z</time>
      </trkpt>
      <trkpt lat="44.52039" lon="0.83632">
        <ele>168.8</ele>
        <time>2026-08-15T09:00:53Z</time>
      </trkpt>
      <trkpt lat="44.52038" lon="0.83634">
        <ele>168.8</ele>
        <time>2026-08-15T09:00:54Z</time>
      </trkpt>
      <trkpt lat="44.52038" lon="0.83634">
        <ele>168.8</ele>
        <time>2026-08-15T09:00:55Z</time>
      </trkpt>
      <trkpt lat="44.52037" lon="0.83634">
        <ele>168.8</ele>
        <time>2026-08-15T09:00:56Z</time>
      </trkpt>
      <trkpt lat="44.52037" lon="0.83635">
        <ele>168.8</ele>
        <time>2026-08-15T09:00:57Z</time>
      </trkpt>
      <trkpt lat="44.52037" lon="0.83635">
        <ele>168.8</ele>
        <time>2026-08-15T09:00:58Z</time>
      </trkpt>
      <trkpt lat="44.52036" lon="0.83636">
        <ele>169</ele>
        <time>2026-08-15T09:00:59Z</time>
      </trkpt>
      <trkpt lat="44.52035" lon="0.83636">
        <ele>169</ele>
        <time>2026-08-15T09:01:00Z</time>
      </trkpt>
      <trkpt lat="44.52033" lon="0.83646">
        <ele>169.2</ele>
        <time>2026-08-15T09:01:13Z</time>
      </trkpt>
      <trkpt lat="44.52033" lon="0.83647">
        <ele>169</ele>
        <time>2026-08-15T09:01:14Z</time>
      </trkpt>
      <trkpt lat="44.52033" lon="0.83647">
        <ele>169</ele>
        <time>2026-08-15T09:01:15Z</time>
      </trkpt>
      <trkpt lat="44.52033" lon="0.83649">
        <ele>169</ele>
        <time>2026-08-15T09:01:16Z</time>
      </trkpt>
      <trkpt lat="44.52032" lon="0.8365">
        <ele>168.8</ele>
        <time>2026-08-15T09:01:17Z</time>
      </trkpt>
      <trkpt lat="44.52031" lon="0.83653">
        <ele>168.8</ele>
        <time>2026-08-15T09:01:18Z</time>
      </trkpt>
      <trkpt lat="44.5203" lon="0.83656">
        <ele>168.8</ele>
        <time>2026-08-15T09:01:19Z</time>
      </trkpt>
      <trkpt lat="44.52028" lon="0.83663">
        <ele>168.6</ele>
        <time>2026-08-15T09:01:20Z</time>
      </trkpt>
      <trkpt lat="44.52027" lon="0.83667">
        <ele>168.6</ele>
        <time>2026-08-15T09:01:21Z</time>
      </trkpt>
      <trkpt lat="44.52025" lon="0.83672">
        <ele>168.4</ele>
        <time>2026-08-15T09:01:22Z</time>
      </trkpt>
      <trkpt lat="44.52024" lon="0.83676">
        <ele>168.4</ele>
        <time>2026-08-15T09:01:23Z</time>
      </trkpt>
      <trkpt lat="44.52023" lon="0.8368">
        <ele>168</ele>
        <time>2026-08-15T09:01:24Z</time>
      </trkpt>
      <trkpt lat="44.52022" lon="0.83683">
        <ele>167.8</ele>
        <time>2026-08-15T09:01:25Z</time>
      </trkpt>
      <trkpt lat="44.52022" lon="0.83686">
        <ele>167.6</ele>
        <time>2026-08-15T09:01:26Z</time>
      </trkpt>
      <trkpt lat="44.52021" lon="0.83688">
        <ele>167.6</ele>
        <time>2026-08-15T09:01:27Z</time>
      </trkpt>
      <trkpt lat="44.52021" lon="0.8369">
        <ele>167.4</ele>
        <time>2026-08-15T09:01:28Z</time>
      </trkpt>
      <trkpt lat="44.5202" lon="0.83692">
        <ele>167</ele>
        <time>2026-08-15T09:01:29Z</time>
      </trkpt>
      <trkpt lat="44.52019" lon="0.83695">
        <ele>166.8</ele>
        <time>2026-08-15T09:01:30Z</time>
      </trkpt>
      <trkpt lat="44.52019" lon="0.83698">
        <ele>166.6</ele>
        <time>2026-08-15T09:01:31Z</time>
      </trkpt>
      <trkpt lat="44.52018" lon="0.83702">
        <ele>166.2</ele>
        <time>2026-08-15T09:01:32Z</time>
      </trkpt>
      <trkpt lat="44.52017" lon="0.83706">
        <ele>166</ele>
        <time>2026-08-15T09:01:33Z</time>
      </trkpt>
      <trkpt lat="44.52016" lon="0.83713">
        <ele>165.8</ele>
        <time>2026-08-15T09:01:34Z</time>
      </trkpt>
      <trkpt lat="44.52015" lon="0.83718">
        <ele>165.6</ele>
        <time>2026-08-15T09:01:35Z</time>
      </trkpt>
      <trkpt lat="44.52014" lon="0.83723">
        <ele>165.6</ele>
        <time>2026-08-15T09:01:36Z</time>
      </trkpt>
      <trkpt lat="44.52013" lon="0.83728">
        <ele>165.6</ele>
        <time>2026-08-15T09:01:37Z</time>
      </trkpt>
      <trkpt lat="44.52013" lon="0.83732">
        <ele>165.6</ele>
        <time>2026-08-15T09:01:38Z</time>
      </trkpt>
      <trkpt lat="44.52012" lon="0.83737">
        <ele>165.6</ele>
        <time>2026-08-15T09:01:39Z</time>
      </trkpt>
      <trkpt lat="44.52013" lon="0.83741">
        <ele>165.6</ele>
        <time>2026-08-15T09:01:40Z</time>
      </trkpt>
      <trkpt lat="44.52013" lon="0.83745">
        <ele>165.6</ele>
        <time>2026-08-15T09:01:41Z</time>
      </trkpt>
      <trkpt lat="44.52015" lon="0.83748">
        <ele>165.6</ele>
        <time>2026-08-15T09:01:42Z</time>
      </trkpt>
      <trkpt lat="44.52017" lon="0.83751">
        <ele>165.6</ele>
        <time>2026-08-15T09:01:43Z</time>
      </trkpt>
      <trkpt lat="44.5202" lon="0.83753">
        <ele>165.6</ele>
        <time>2026-08-15T09:01:44Z</time>
      </trkpt>
      <trkpt lat="44.52022" lon="0.83756">
        <ele>165.6</ele>
        <time>2026-08-15T09:01:45Z</time>
      </trkpt>
      <trkpt lat="44.52025" lon="0.83758">
        <ele>165.6</ele>
        <time>2026-08-15T09:01:46Z</time>
      </trkpt>
      <trkpt lat="44.52027" lon="0.8376">
        <ele>165.6</ele>
        <time>2026-08-15T09:01:47Z</time>
      </trkpt>
      <trkpt lat="44.5203" lon="0.83762">
        <ele>165.6</ele>
        <time>2026-08-15T09:01:48Z</time>
      </trkpt>
      <trkpt lat="44.52033" lon="0.83764">
        <ele>165.8</ele>
        <time>2026-08-15T09:01:49Z</time>
      </trkpt>
      <trkpt lat="44.52035" lon="0.83766">
        <ele>166.2</ele>
        <time>2026-08-15T09:01:50Z</time>
      </trkpt>
      <trkpt lat="44.52038" lon="0.83768">
        <ele>166.4</ele>
        <time>2026-08-15T09:01:51Z</time>
      </trkpt>
      <trkpt lat="44.5204" lon="0.8377">
        <ele>166.6</ele>
        <time>2026-08-15T09:01:52Z</time>
      </trkpt>
      <trkpt lat="44.52043" lon="0.83772">
        <ele>166.6</ele>
        <time>2026-08-15T09:01:53Z</time>
      </trkpt>
      <trkpt lat="44.52046" lon="0.83773">
        <ele>167</ele>
        <time>2026-08-15T09:01:54Z</time>
      </trkpt>
      <trkpt lat="44.52048" lon="0.83775">
        <ele>167.2</ele>
        <time>2026-08-15T09:01:55Z</time>
      </trkpt>
      <trkpt lat="44.5205" lon="0.83776">
        <ele>167.6</ele>
        <time>2026-08-15T09:01:56Z</time>
      </trkpt>
      <trkpt lat="44.52053" lon="0.83778">
        <ele>167.8</ele>
        <time>2026-08-15T09:01:57Z</time>
      </trkpt>
      <trkpt lat="44.52054" lon="0.83779">
        <ele>168.2</ele>
        <time>2026-08-15T09:01:58Z</time>
      </trkpt>
      <trkpt lat="44.52055" lon="0.8378">
        <ele>168.6</ele>
        <time>2026-08-15T09:01:59Z</time>
      </trkpt>
      <trkpt lat="44.52057" lon="0.83782">
        <ele>168.8</ele>
        <time>2026-08-15T09:02:00Z</time>
      </trkpt>
      <trkpt lat="44.52059" lon="0.83783">
        <ele>169.2</ele>
        <time>2026-08-15T09:02:01Z</time>
      </trkpt>
      <trkpt lat="44.52061" lon="0.83785">
        <ele>169.6</ele>
        <time>2026-08-15T09:02:02Z</time>
      </trkpt>
      <trkpt lat="44.52063" lon="0.83786">
        <ele>169.8</ele>
        <time>2026-08-15T09:02:03Z</time>
      </trkpt>
      <trkpt lat="44.52065" lon="0.83788">
        <ele>170.2</ele>
        <time>2026-08-15T09:02:04Z</time>
      </trkpt>
      <trkpt lat="44.52067" lon="0.83789">
        <ele>170.6</ele>
        <time>2026-08-15T09:02:05Z</time>
      </trkpt>
      <trkpt lat="44.52069" lon="0.83791">
        <ele>170.8</ele>
        <time>2026-08-15T09:02:06Z</time>
      </trkpt>
      <trkpt lat="44.52071" lon="0.83793">
        <ele>171.2</ele>
        <time>2026-08-15T09:02:07Z</time>
      </trkpt>
      <trkpt lat="44.52073" lon="0.83794">
        <ele>171.4</ele>
        <time>2026-08-15T09:02:08Z</time>
      </trkpt>
      <trkpt lat="44.52075" lon="0.83796">
        <ele>171.6</ele>
        <time>2026-08-15T09:02:09Z</time>
      </trkpt>
      <trkpt lat="44.52077" lon="0.83797">
        <ele>171.8</ele>
        <time>2026-08-15T09:02:10Z</time>
      </trkpt>
      <trkpt lat="44.5208" lon="0.83799">
        <ele>172</ele>
        <time>2026-08-15T09:02:11Z</time>
      </trkpt>
      <trkpt lat="44.52082" lon="0.83801">
        <ele>172.2</ele>
        <time>2026-08-15T09:02:12Z</time>
      </trkpt>
      <trkpt lat="44.52084" lon="0.83802">
        <ele>172.4</ele>
        <time>2026-08-15T09:02:13Z</time>
      </trkpt>
      <trkpt lat="44.52086" lon="0.83804">
        <ele>172.6</ele>
        <time>2026-08-15T09:02:14Z</time>
      </trkpt>
      <trkpt lat="44.52088" lon="0.83806">
        <ele>172.8</ele>
        <time>2026-08-15T09:02:15Z</time>
      </trkpt>
      <trkpt lat="44.5209" lon="0.83807">
        <ele>173</ele>
        <time>2026-08-15T09:02:16Z</time>
      </trkpt>
      <trkpt lat="44.52092" lon="0.83809">
        <ele>173.2</ele>
        <time>2026-08-15T09:02:17Z</time>
      </trkpt>
      <trkpt lat="44.52095" lon="0.8381">
        <ele>173.4</ele>
        <time>2026-08-15T09:02:18Z</time>
      </trkpt>
      <trkpt lat="44.52097" lon="0.83812">
        <ele>173.6</ele>
        <time>2026-08-15T09:02:19Z</time>
      </trkpt>
      <trkpt lat="44.52099" lon="0.83813">
        <ele>173.8</ele>
        <time>2026-08-15T09:02:20Z</time>
      </trkpt>
      <trkpt lat="44.52101" lon="0.83815">
        <ele>174</ele>
        <time>2026-08-15T09:02:21Z</time>
      </trkpt>
      <trkpt lat="44.52102" lon="0.83816">
        <ele>174.2</ele>
        <time>2026-08-15T09:02:22Z</time>
      </trkpt>
      <trkpt lat="44.52104" lon="0.83817">
        <ele>174.4</ele>
        <time>2026-08-15T09:02:23Z</time>
      </trkpt>
      <trkpt lat="44.52106" lon="0.83818">
        <ele>174.6</ele>
        <time>2026-08-15T09:02:24Z</time>
      </trkpt>
      <trkpt lat="44.52108" lon="0.83819">
        <ele>174.6</ele>
        <time>2026-08-15T09:02:25Z</time>
      </trkpt>
      <trkpt lat="44.52109" lon="0.83819">
        <ele>174.8</ele>
        <time>2026-08-15T09:02:26Z</time>
      </trkpt>
      <trkpt lat="44.5211" lon="0.8382">
        <ele>174.8</ele>
        <time>2026-08-15T09:02:27Z</time>
      </trkpt>
      <trkpt lat="44.52111" lon="0.83821">
        <ele>175</ele>
        <time>2026-08-15T09:02:28Z</time>
      </trkpt>
      <trkpt lat="44.52112" lon="0.83822">
        <ele>175</ele>
        <time>2026-08-15T09:02:29Z</time>
      </trkpt>
      <trkpt lat="44.52114" lon="0.83823">
        <ele>175.4</ele>
        <time>2026-08-15T09:02:30Z</time>
      </trkpt>
      <trkpt lat="44.52115" lon="0.83825">
        <ele>175.4</ele>
        <time>2026-08-15T09:02:31Z</time>
      </trkpt>
      <trkpt lat="44.52116" lon="0.83826">
        <ele>175.6</ele>
        <time>2026-08-15T09:02:32Z</time>
      </trkpt>
      <trkpt lat="44.52118" lon="0.83827">
        <ele>175.6</ele>
        <time>2026-08-15T09:02:33Z</time>
      </trkpt>
      <trkpt lat="44.52119" lon="0.83828">
        <ele>175.8</ele>
        <time>2026-08-15T09:02:34Z</time>
      </trkpt>
      <trkpt lat="44.5212" lon="0.83829">
        <ele>175.8</ele>
        <time>2026-08-15T09:02:35Z</time>
      </trkpt>
      <trkpt lat="44.52122" lon="0.8383">
        <ele>175.8</ele>
        <time>2026-08-15T09:02:36Z</time>
      </trkpt>
      <trkpt lat="44.52123" lon="0.83831">
        <ele>176.2</ele>
        <time>2026-08-15T09:02:37Z</time>
      </trkpt>
      <trkpt lat="44.52125" lon="0.83832">
        <ele>176.2</ele>
        <time>2026-08-15T09:02:38Z</time>
      </trkpt>
      <trkpt lat="44.52127" lon="0.83834">
        <ele>176.4</ele>
        <time>2026-08-15T09:02:39Z</time>
      </trkpt>
      <trkpt lat="44.52129" lon="0.83835">
        <ele>176.6</ele>
        <time>2026-08-15T09:02:40Z</time>
      </trkpt>
      <trkpt lat="44.52131" lon="0.83837">
        <ele>176.6</ele>
        <time>2026-08-15T09:02:41Z</time>
      </trkpt>
      <trkpt lat="44.52132" lon="0.8384">
        <ele>176.8</ele>
        <time>2026-08-15T09:02:42Z</time>
      </trkpt>
      <trkpt lat="44.52133" lon="0.83842">
        <ele>177.2</ele>
        <time>2026-08-15T09:02:43Z</time>
      </trkpt>
      <trkpt lat="44.52133" lon="0.83845">
        <ele>177.2</ele>
        <time>2026-08-15T09:02:44Z</time>
      </trkpt>
      <trkpt lat="44.52134" lon="0.83848">
        <ele>177.4</ele>
        <time>2026-08-15T09:02:45Z</time>
      </trkpt>
      <trkpt lat="44.52134" lon="0.83851">
        <ele>177.4</ele>
        <time>2026-08-15T09:02:46Z</time>
      </trkpt>
      <trkpt lat="44.52135" lon="0.83854">
        <ele>177.6</ele>
        <time>2026-08-15T09:02:47Z</time>
      </trkpt>
      <trkpt lat="44.52135" lon="0.83857">
        <ele>177.6</ele>
        <time>2026-08-15T09:02:48Z</time>
      </trkpt>
      <trkpt lat="44.52136" lon="0.8386">
        <ele>177.6</ele>
        <time>2026-08-15T09:02:49Z</time>
      </trkpt>
      <trkpt lat="44.52137" lon="0.83863">
        <ele>177.6</ele>
        <time>2026-08-15T09:02:50Z</time>
      </trkpt>
      <trkpt lat="44.52139" lon="0.83866">
        <ele>177.8</ele>
        <time>2026-08-15T09:02:51Z</time>
      </trkpt>
      <trkpt lat="44.5214" lon="0.83869">
        <ele>177.8</ele>
        <time>2026-08-15T09:02:52Z</time>
      </trkpt>
      <trkpt lat="44.52142" lon="0.83872">
        <ele>177.8</ele>
        <time>2026-08-15T09:02:53Z</time>
      </trkpt>
      <trkpt lat="44.52143" lon="0.83874">
        <ele>178.2</ele>
        <time>2026-08-15T09:02:54Z</time>
      </trkpt>
      <trkpt lat="44.52145" lon="0.83877">
        <ele>178.2</ele>
        <time>2026-08-15T09:02:55Z</time>
      </trkpt>
      <trkpt lat="44.52147" lon="0.8388">
        <ele>178.4</ele>
        <time>2026-08-15T09:02:56Z</time>
      </trkpt>
      <trkpt lat="44.52149" lon="0.83882">
        <ele>178.6</ele>
        <time>2026-08-15T09:02:57Z</time>
      </trkpt>
      <trkpt lat="44.52151" lon="0.83885">
        <ele>178.6</ele>
        <time>2026-08-15T09:02:58Z</time>
      </trkpt>
      <trkpt lat="44.52153" lon="0.83888">
        <ele>178.6</ele>
        <time>2026-08-15T09:02:59Z</time>
      </trkpt>
      <trkpt lat="44.52156" lon="0.83892">
        <ele>178.6</ele>
        <time>2026-08-15T09:03:00Z</time>
      </trkpt>
      <trkpt lat="44.52158" lon="0.83895">
        <ele>178.6</ele>
        <time>2026-08-15T09:03:01Z</time>
      </trkpt>
      <trkpt lat="44.5216" lon="0.83898">
        <ele>178.8</ele>
        <time>2026-08-15T09:03:02Z</time>
      </trkpt>
      <trkpt lat="44.52162" lon="0.83901">
        <ele>178.8</ele>
        <time>2026-08-15T09:03:03Z</time>
      </trkpt>
      <trkpt lat="44.52164" lon="0.83903">
        <ele>179.2</ele>
        <time>2026-08-15T09:03:04Z</time>
      </trkpt>
      <trkpt lat="44.52166" lon="0.83906">
        <ele>179.2</ele>
        <time>2026-08-15T09:03:05Z</time>
      </trkpt>
      <trkpt lat="44.52169" lon="0.83908">
        <ele>179.4</ele>
        <time>2026-08-15T09:03:06Z</time>
      </trkpt>
      <trkpt lat="44.52171" lon="0.83911">
        <ele>179.4</ele>
        <time>2026-08-15T09:03:07Z</time>
      </trkpt>
      <trkpt lat="44.52173" lon="0.83914">
        <ele>179.6</ele>
        <time>2026-08-15T09:03:08Z</time>
      </trkpt>
      <trkpt lat="44.52175" lon="0.83917">
        <ele>179.6</ele>
        <time>2026-08-15T09:03:09Z</time>
      </trkpt>
      <trkpt lat="44.52177" lon="0.83919">
        <ele>180</ele>
        <time>2026-08-15T09:03:10Z</time>
      </trkpt>
      <trkpt lat="44.52179" lon="0.83922">
        <ele>180.2</ele>
        <time>2026-08-15T09:03:11Z</time>
      </trkpt>
      <trkpt lat="44.52181" lon="0.83924">
        <ele>180.4</ele>
        <time>2026-08-15T09:03:12Z</time>
      </trkpt>
      <trkpt lat="44.52183" lon="0.83927">
        <ele>180.4</ele>
        <time>2026-08-15T09:03:13Z</time>
      </trkpt>
      <trkpt lat="44.52184" lon="0.83928">
        <ele>180.6</ele>
        <time>2026-08-15T09:03:14Z</time>
      </trkpt>
      <trkpt lat="44.52185" lon="0.8393">
        <ele>180.6</ele>
        <time>2026-08-15T09:03:15Z</time>
      </trkpt>
      <trkpt lat="44.52188" lon="0.83934">
        <ele>180.8</ele>
        <time>2026-08-15T09:03:16Z</time>
      </trkpt>
      <trkpt lat="44.52191" lon="0.83937">
        <ele>180.8</ele>
        <time>2026-08-15T09:03:17Z</time>
      </trkpt>
      <trkpt lat="44.52193" lon="0.8394">
        <ele>180.8</ele>
        <time>2026-08-15T09:03:18Z</time>
      </trkpt>
      <trkpt lat="44.52196" lon="0.83942">
        <ele>181</ele>
        <time>2026-08-15T09:03:19Z</time>
      </trkpt>
      <trkpt lat="44.52198" lon="0.83945">
        <ele>181</ele>
        <time>2026-08-15T09:03:20Z</time>
      </trkpt>
      <trkpt lat="44.52201" lon="0.83948">
        <ele>181.2</ele>
        <time>2026-08-15T09:03:21Z</time>
      </trkpt>
      <trkpt lat="44.52204" lon="0.83951">
        <ele>181.2</ele>
        <time>2026-08-15T09:03:22Z</time>
      </trkpt>
      <trkpt lat="44.52206" lon="0.83953">
        <ele>181</ele>
        <time>2026-08-15T09:03:23Z</time>
      </trkpt>
      <trkpt lat="44.52209" lon="0.83956">
        <ele>181</ele>
        <time>2026-08-15T09:03:24Z</time>
      </trkpt>
      <trkpt lat="44.52212" lon="0.83958">
        <ele>181</ele>
        <time>2026-08-15T09:03:25Z</time>
      </trkpt>
      <trkpt lat="44.52215" lon="0.8396">
        <ele>180.8</ele>
        <time>2026-08-15T09:03:26Z</time>
      </trkpt>
      <trkpt lat="44.52218" lon="0.83963">
        <ele>180.8</ele>
        <time>2026-08-15T09:03:27Z</time>
      </trkpt>
      <trkpt lat="44.52221" lon="0.83965">
        <ele>180.8</ele>
        <time>2026-08-15T09:03:28Z</time>
      </trkpt>
      <trkpt lat="44.52224" lon="0.83968">
        <ele>180.8</ele>
        <time>2026-08-15T09:03:29Z</time>
      </trkpt>
      <trkpt lat="44.52227" lon="0.8397">
        <ele>180.8</ele>
        <time>2026-08-15T09:03:30Z</time>
      </trkpt>
      <trkpt lat="44.52231" lon="0.83973">
        <ele>180.8</ele>
        <time>2026-08-15T09:03:31Z</time>
      </trkpt>
      <trkpt lat="44.52234" lon="0.83976">
        <ele>180.8</ele>
        <time>2026-08-15T09:03:32Z</time>
      </trkpt>
      <trkpt lat="44.52237" lon="0.83979">
        <ele>180.8</ele>
        <time>2026-08-15T09:03:33Z</time>
      </trkpt>
      <trkpt lat="44.52241" lon="0.83981">
        <ele>180.6</ele>
        <time>2026-08-15T09:03:34Z</time>
      </trkpt>
      <trkpt lat="44.52244" lon="0.83984">
        <ele>180.6</ele>
        <time>2026-08-15T09:03:35Z</time>
      </trkpt>
      <trkpt lat="44.52247" lon="0.83987">
        <ele>180.6</ele>
        <time>2026-08-15T09:03:36Z</time>
      </trkpt>
      <trkpt lat="44.52251" lon="0.8399">
        <ele>180.6</ele>
        <time>2026-08-15T09:03:37Z</time>
      </trkpt>
      <trkpt lat="44.52254" lon="0.83993">
        <ele>180.6</ele>
        <time>2026-08-15T09:03:38Z</time>
      </trkpt>
      <trkpt lat="44.52257" lon="0.83996">
        <ele>180.6</ele>
        <time>2026-08-15T09:03:39Z</time>
      </trkpt>
      <trkpt lat="44.5226" lon="0.83999">
        <ele>180.6</ele>
        <time>2026-08-15T09:03:40Z</time>
      </trkpt>
      <trkpt lat="44.52263" lon="0.84001">
        <ele>180.6</ele>
        <time>2026-08-15T09:03:41Z</time>
      </trkpt>
      <trkpt lat="44.52266" lon="0.84004">
        <ele>180.6</ele>
        <time>2026-08-15T09:03:42Z</time>
      </trkpt>
      <trkpt lat="44.52269" lon="0.84007">
        <ele>180.8</ele>
        <time>2026-08-15T09:03:43Z</time>
      </trkpt>
      <trkpt lat="44.52272" lon="0.8401">
        <ele>180.8</ele>
        <time>2026-08-15T09:03:44Z</time>
      </trkpt>
      <trkpt lat="44.52275" lon="0.84013">
        <ele>181</ele>
        <time>2026-08-15T09:03:45Z</time>
      </trkpt>
      <trkpt lat="44.52278" lon="0.84016">
        <ele>181.2</ele>
        <time>2026-08-15T09:03:46Z</time>
      </trkpt>
      <trkpt lat="44.52281" lon="0.84019">
        <ele>181.2</ele>
        <time>2026-08-15T09:03:47Z</time>
      </trkpt>
      <trkpt lat="44.52283" lon="0.84021">
        <ele>181.4</ele>
        <time>2026-08-15T09:03:48Z</time>
      </trkpt>
      <trkpt lat="44.52286" lon="0.84024">
        <ele>181.4</ele>
        <time>2026-08-15T09:03:49Z</time>
      </trkpt>
      <trkpt lat="44.52289" lon="0.84027">
        <ele>181.4</ele>
        <time>2026-08-15T09:03:50Z</time>
      </trkpt>
      <trkpt lat="44.52292" lon="0.8403">
        <ele>181.6</ele>
        <time>2026-08-15T09:03:51Z</time>
      </trkpt>
      <trkpt lat="44.52295" lon="0.84033">
        <ele>181.6</ele>
        <time>2026-08-15T09:03:52Z</time>
      </trkpt>
      <trkpt lat="44.52298" lon="0.84036">
        <ele>181.6</ele>
        <time>2026-08-15T09:03:53Z</time>
      </trkpt>
      <trkpt lat="44.52301" lon="0.84039">
        <ele>181.6</ele>
        <time>2026-08-15T09:03:54Z</time>
      </trkpt>
      <trkpt lat="44.52303" lon="0.84042">
        <ele>181.6</ele>
        <time>2026-08-15T09:03:55Z</time>
      </trkpt>
      <trkpt lat="44.52306" lon="0.84045">
        <ele>181.8</ele>
        <time>2026-08-15T09:03:56Z</time>
      </trkpt>
      <trkpt lat="44.52308" lon="0.84048">
        <ele>182</ele>
        <time>2026-08-15T09:03:57Z</time>
      </trkpt>
      <trkpt lat="44.52309" lon="0.84052">
        <ele>182.4</ele>
        <time>2026-08-15T09:03:58Z</time>
      </trkpt>
      <trkpt lat="44.52311" lon="0.84055">
        <ele>182.6</ele>
        <time>2026-08-15T09:03:59Z</time>
      </trkpt>
      <trkpt lat="44.52313" lon="0.84058">
        <ele>182.6</ele>
        <time>2026-08-15T09:04:00Z</time>
      </trkpt>
      <trkpt lat="44.52315" lon="0.84061">
        <ele>182.8</ele>
        <time>2026-08-15T09:04:01Z</time>
      </trkpt>
      <trkpt lat="44.52318" lon="0.84063">
        <ele>183</ele>
        <time>2026-08-15T09:04:02Z</time>
      </trkpt>
      <trkpt lat="44.52321" lon="0.84065">
        <ele>183.2</ele>
        <time>2026-08-15T09:04:03Z</time>
      </trkpt>
      <trkpt lat="44.52324" lon="0.84066">
        <ele>183.2</ele>
        <time>2026-08-15T09:04:04Z</time>
      </trkpt>
      <trkpt lat="44.52327" lon="0.84069">
        <ele>183.4</ele>
        <time>2026-08-15T09:04:05Z</time>
      </trkpt>
      <trkpt lat="44.52329" lon="0.84072">
        <ele>183.4</ele>
        <time>2026-08-15T09:04:06Z</time>
      </trkpt>
      <trkpt lat="44.52332" lon="0.84075">
        <ele>183.4</ele>
        <time>2026-08-15T09:04:07Z</time>
      </trkpt>
      <trkpt lat="44.52335" lon="0.84079">
        <ele>183.4</ele>
        <time>2026-08-15T09:04:08Z</time>
      </trkpt>
      <trkpt lat="44.52337" lon="0.84082">
        <ele>183.4</ele>
        <time>2026-08-15T09:04:09Z</time>
      </trkpt>
      <trkpt lat="44.52341" lon="0.84085">
        <ele>183.4</ele>
        <time>2026-08-15T09:04:10Z</time>
      </trkpt>
      <trkpt lat="44.52344" lon="0.84088">
        <ele>183.4</ele>
        <time>2026-08-15T09:04:11Z</time>
      </trkpt>
      <trkpt lat="44.52348" lon="0.84089">
        <ele>183.4</ele>
        <time>2026-08-15T09:04:12Z</time>
      </trkpt>
      <trkpt lat="44.52352" lon="0.84091">
        <ele>183.4</ele>
        <time>2026-08-15T09:04:13Z</time>
      </trkpt>
      <trkpt lat="44.52357" lon="0.84093">
        <ele>183.4</ele>
        <time>2026-08-15T09:04:14Z</time>
      </trkpt>
      <trkpt lat="44.52361" lon="0.84094">
        <ele>183.4</ele>
        <time>2026-08-15T09:04:15Z</time>
      </trkpt>
      <trkpt lat="44.52365" lon="0.84096">
        <ele>183.6</ele>
        <time>2026-08-15T09:04:16Z</time>
      </trkpt>
      <trkpt lat="44.52369" lon="0.84098">
        <ele>183.6</ele>
        <time>2026-08-15T09:04:17Z</time>
      </trkpt>
      <trkpt lat="44.52373" lon="0.841">
        <ele>183.6</ele>
        <time>2026-08-15T09:04:18Z</time>
      </trkpt>
      <trkpt lat="44.52376" lon="0.84102">
        <ele>183.6</ele>
        <time>2026-08-15T09:04:19Z</time>
      </trkpt>
      <trkpt lat="44.5238" lon="0.84104">
        <ele>183.6</ele>
        <time>2026-08-15T09:04:20Z</time>
      </trkpt>
      <trkpt lat="44.52384" lon="0.84106">
        <ele>183.8</ele>
        <time>2026-08-15T09:04:21Z</time>
      </trkpt>
      <trkpt lat="44.52388" lon="0.84108">
        <ele>183.8</ele>
        <time>2026-08-15T09:04:22Z</time>
      </trkpt>
      <trkpt lat="44.52391" lon="0.8411">
        <ele>183.8</ele>
        <time>2026-08-15T09:04:23Z</time>
      </trkpt>
      <trkpt lat="44.52395" lon="0.84112">
        <ele>183.8</ele>
        <time>2026-08-15T09:04:24Z</time>
      </trkpt>
      <trkpt lat="44.52399" lon="0.84113">
        <ele>183.8</ele>
        <time>2026-08-15T09:04:25Z</time>
      </trkpt>
      <trkpt lat="44.52402" lon="0.84115">
        <ele>183.8</ele>
        <time>2026-08-15T09:04:26Z</time>
      </trkpt>
      <trkpt lat="44.52406" lon="0.84117">
        <ele>184</ele>
        <time>2026-08-15T09:04:27Z</time>
      </trkpt>
      <trkpt lat="44.52409" lon="0.84119">
        <ele>184</ele>
        <time>2026-08-15T09:04:28Z</time>
      </trkpt>
      <trkpt lat="44.52413" lon="0.84121">
        <ele>184</ele>
        <time>2026-08-15T09:04:29Z</time>
      </trkpt>
      <trkpt lat="44.52416" lon="0.84122">
        <ele>184.2</ele>
        <time>2026-08-15T09:04:30Z</time>
      </trkpt>
      <trkpt lat="44.52419" lon="0.84124">
        <ele>184.2</ele>
        <time>2026-08-15T09:04:31Z</time>
      </trkpt>
      <trkpt lat="44.52422" lon="0.84125">
        <ele>184.2</ele>
        <time>2026-08-15T09:04:32Z</time>
      </trkpt>
      <trkpt lat="44.52425" lon="0.84127">
        <ele>184.2</ele>
        <time>2026-08-15T09:04:33Z</time>
      </trkpt>
      <trkpt lat="44.52428" lon="0.84128">
        <ele>184.4</ele>
        <time>2026-08-15T09:04:34Z</time>
      </trkpt>
      <trkpt lat="44.52431" lon="0.84129">
        <ele>184.6</ele>
        <time>2026-08-15T09:04:35Z</time>
      </trkpt>
      <trkpt lat="44.52434" lon="0.8413">
        <ele>184.6</ele>
        <time>2026-08-15T09:04:36Z</time>
      </trkpt>
      <trkpt lat="44.52437" lon="0.84131">
        <ele>184.8</ele>
        <time>2026-08-15T09:04:37Z</time>
      </trkpt>
      <trkpt lat="44.5244" lon="0.84132">
        <ele>185</ele>
        <time>2026-08-15T09:04:38Z</time>
      </trkpt>
      <trkpt lat="44.52443" lon="0.84133">
        <ele>185.2</ele>
        <time>2026-08-15T09:04:39Z</time>
      </trkpt>
      <trkpt lat="44.52446" lon="0.84134">
        <ele>185.2</ele>
        <time>2026-08-15T09:04:40Z</time>
      </trkpt>
      <trkpt lat="44.52449" lon="0.84136">
        <ele>185.2</ele>
        <time>2026-08-15T09:04:41Z</time>
      </trkpt>
      <trkpt lat="44.52452" lon="0.84138">
        <ele>185.2</ele>
        <time>2026-08-15T09:04:42Z</time>
      </trkpt>
      <trkpt lat="44.52455" lon="0.8414">
        <ele>185.4</ele>
        <time>2026-08-15T09:04:43Z</time>
      </trkpt>
      <trkpt lat="44.52458" lon="0.84142">
        <ele>185.4</ele>
        <time>2026-08-15T09:04:44Z</time>
      </trkpt>
      <trkpt lat="44.52461" lon="0.84144">
        <ele>185.4</ele>
        <time>2026-08-15T09:04:45Z</time>
      </trkpt>
      <trkpt lat="44.52464" lon="0.84147">
        <ele>185.4</ele>
        <time>2026-08-15T09:04:46Z</time>
      </trkpt>
      <trkpt lat="44.52467" lon="0.84149">
        <ele>185.4</ele>
        <time>2026-08-15T09:04:47Z</time>
      </trkpt>
      <trkpt lat="44.5247" lon="0.84151">
        <ele>185.4</ele>
        <time>2026-08-15T09:04:48Z</time>
      </trkpt>
      <trkpt lat="44.52473" lon="0.84153">
        <ele>185.6</ele>
        <time>2026-08-15T09:04:49Z</time>
      </trkpt>
      <trkpt lat="44.52476" lon="0.84155">
        <ele>185.6</ele>
        <time>2026-08-15T09:04:50Z</time>
      </trkpt>
      <trkpt lat="44.52479" lon="0.84157">
        <ele>185.6</ele>
        <time>2026-08-15T09:04:51Z</time>
      </trkpt>
      <trkpt lat="44.52482" lon="0.84159">
        <ele>185.6</ele>
        <time>2026-08-15T09:04:52Z</time>
      </trkpt>
      <trkpt lat="44.52485" lon="0.84161">
        <ele>185.8</ele>
        <time>2026-08-15T09:04:53Z</time>
      </trkpt>
      <trkpt lat="44.52488" lon="0.84163">
        <ele>185.8</ele>
        <time>2026-08-15T09:04:54Z</time>
      </trkpt>
      <trkpt lat="44.52491" lon="0.84166">
        <ele>186</ele>
        <time>2026-08-15T09:04:55Z</time>
      </trkpt>
      <trkpt lat="44.52494" lon="0.84168">
        <ele>186.2</ele>
        <time>2026-08-15T09:04:56Z</time>
      </trkpt>
      <trkpt lat="44.52496" lon="0.8417">
        <ele>186.2</ele>
        <time>2026-08-15T09:04:57Z</time>
      </trkpt>
      <trkpt lat="44.52499" lon="0.84172">
        <ele>186.4</ele>
        <time>2026-08-15T09:04:58Z</time>
      </trkpt>
      <trkpt lat="44.52502" lon="0.84174">
        <ele>186.4</ele>
        <time>2026-08-15T09:04:59Z</time>
      </trkpt>
      <trkpt lat="44.52504" lon="0.84177">
        <ele>186.6</ele>
        <time>2026-08-15T09:05:00Z</time>
      </trkpt>
      <trkpt lat="44.52506" lon="0.84179">
        <ele>186.6</ele>
        <time>2026-08-15T09:05:01Z</time>
      </trkpt>
      <trkpt lat="44.52509" lon="0.84181">
        <ele>186.8</ele>
        <time>2026-08-15T09:05:02Z</time>
      </trkpt>
      <trkpt lat="44.52511" lon="0.84184">
        <ele>186.8</ele>
        <time>2026-08-15T09:05:03Z</time>
      </trkpt>
      <trkpt lat="44.52514" lon="0.84186">
        <ele>187.2</ele>
        <time>2026-08-15T09:05:04Z</time>
      </trkpt>
      <trkpt lat="44.52516" lon="0.84189">
        <ele>187.2</ele>
        <time>2026-08-15T09:05:05Z</time>
      </trkpt>
      <trkpt lat="44.52519" lon="0.84192">
        <ele>187.4</ele>
        <time>2026-08-15T09:05:06Z</time>
      </trkpt>
      <trkpt lat="44.52521" lon="0.84195">
        <ele>187.4</ele>
        <time>2026-08-15T09:05:07Z</time>
      </trkpt>
      <trkpt lat="44.52523" lon="0.84199">
        <ele>187.4</ele>
        <time>2026-08-15T09:05:08Z</time>
      </trkpt>
      <trkpt lat="44.52526" lon="0.84202">
        <ele>187.4</ele>
        <time>2026-08-15T09:05:09Z</time>
      </trkpt>
      <trkpt lat="44.52528" lon="0.84205">
        <ele>187.4</ele>
        <time>2026-08-15T09:05:10Z</time>
      </trkpt>
      <trkpt lat="44.5253" lon="0.84208">
        <ele>187.4</ele>
        <time>2026-08-15T09:05:11Z</time>
      </trkpt>
      <trkpt lat="44.52533" lon="0.8421">
        <ele>187.6</ele>
        <time>2026-08-15T09:05:12Z</time>
      </trkpt>
      <trkpt lat="44.52535" lon="0.84213">
        <ele>187.6</ele>
        <time>2026-08-15T09:05:13Z</time>
      </trkpt>
      <trkpt lat="44.52537" lon="0.84216">
        <ele>187.8</ele>
        <time>2026-08-15T09:05:14Z</time>
      </trkpt>
      <trkpt lat="44.52539" lon="0.8422">
        <ele>187.8</ele>
        <time>2026-08-15T09:05:15Z</time>
      </trkpt>
      <trkpt lat="44.52541" lon="0.84223">
        <ele>188.2</ele>
        <time>2026-08-15T09:05:16Z</time>
      </trkpt>
      <trkpt lat="44.52543" lon="0.84226">
        <ele>188.2</ele>
        <time>2026-08-15T09:05:17Z</time>
      </trkpt>
      <trkpt lat="44.52545" lon="0.8423">
        <ele>188.4</ele>
        <time>2026-08-15T09:05:18Z</time>
      </trkpt>
      <trkpt lat="44.52546" lon="0.84233">
        <ele>188.4</ele>
        <time>2026-08-15T09:05:19Z</time>
      </trkpt>
      <trkpt lat="44.52548" lon="0.84236">
        <ele>188.6</ele>
        <time>2026-08-15T09:05:20Z</time>
      </trkpt>
      <trkpt lat="44.52549" lon="0.84239">
        <ele>188.6</ele>
        <time>2026-08-15T09:05:21Z</time>
      </trkpt>
      <trkpt lat="44.52551" lon="0.84242">
        <ele>188.8</ele>
        <time>2026-08-15T09:05:22Z</time>
      </trkpt>
      <trkpt lat="44.52552" lon="0.84243">
        <ele>188.8</ele>
        <time>2026-08-15T09:05:23Z</time>
      </trkpt>
      <trkpt lat="44.52554" lon="0.84245">
        <ele>189.2</ele>
        <time>2026-08-15T09:05:24Z</time>
      </trkpt>
      <trkpt lat="44.52557" lon="0.8425">
        <ele>189.2</ele>
        <time>2026-08-15T09:05:25Z</time>
      </trkpt>
      <trkpt lat="44.52559" lon="0.84253">
        <ele>189.4</ele>
        <time>2026-08-15T09:05:26Z</time>
      </trkpt>
      <trkpt lat="44.52561" lon="0.84256">
        <ele>189.4</ele>
        <time>2026-08-15T09:05:27Z</time>
      </trkpt>
      <trkpt lat="44.52562" lon="0.84259">
        <ele>189.4</ele>
        <time>2026-08-15T09:05:28Z</time>
      </trkpt>
      <trkpt lat="44.52564" lon="0.84262">
        <ele>189.6</ele>
        <time>2026-08-15T09:05:29Z</time>
      </trkpt>
      <trkpt lat="44.52565" lon="0.84265">
        <ele>189.6</ele>
        <time>2026-08-15T09:05:30Z</time>
      </trkpt>
      <trkpt lat="44.52566" lon="0.84267">
        <ele>189.8</ele>
        <time>2026-08-15T09:05:31Z</time>
      </trkpt>
      <trkpt lat="44.52567" lon="0.8427">
        <ele>189.8</ele>
        <time>2026-08-15T09:05:32Z</time>
      </trkpt>
      <trkpt lat="44.52569" lon="0.84275">
        <ele>190.2</ele>
        <time>2026-08-15T09:05:33Z</time>
      </trkpt>
      <trkpt lat="44.52571" lon="0.84278">
        <ele>190.6</ele>
        <time>2026-08-15T09:05:34Z</time>
      </trkpt>
      <trkpt lat="44.52572" lon="0.84282">
        <ele>190.6</ele>
        <time>2026-08-15T09:05:35Z</time>
      </trkpt>
      <trkpt lat="44.52573" lon="0.84286">
        <ele>190.8</ele>
        <time>2026-08-15T09:05:36Z</time>
      </trkpt>
      <trkpt lat="44.52575" lon="0.84289">
        <ele>190.8</ele>
        <time>2026-08-15T09:05:37Z</time>
      </trkpt>
      <trkpt lat="44.52576" lon="0.84293">
        <ele>191</ele>
        <time>2026-08-15T09:05:38Z</time>
      </trkpt>
      <trkpt lat="44.52578" lon="0.84297">
        <ele>191.2</ele>
        <time>2026-08-15T09:05:39Z</time>
      </trkpt>
      <trkpt lat="44.52579" lon="0.84301">
        <ele>191.4</ele>
        <time>2026-08-15T09:05:40Z</time>
      </trkpt>
      <trkpt lat="44.5258" lon="0.84304">
        <ele>191.6</ele>
        <time>2026-08-15T09:05:41Z</time>
      </trkpt>
      <trkpt lat="44.52581" lon="0.84308">
        <ele>191.8</ele>
        <time>2026-08-15T09:05:42Z</time>
      </trkpt>
      <trkpt lat="44.52583" lon="0.84311">
        <ele>192</ele>
        <time>2026-08-15T09:05:43Z</time>
      </trkpt>
      <trkpt lat="44.52584" lon="0.84315">
        <ele>192.2</ele>
        <time>2026-08-15T09:05:44Z</time>
      </trkpt>
      <trkpt lat="44.52586" lon="0.84318">
        <ele>192.2</ele>
        <time>2026-08-15T09:05:45Z</time>
      </trkpt>
      <trkpt lat="44.52587" lon="0.84322">
        <ele>192.4</ele>
        <time>2026-08-15T09:05:46Z</time>
      </trkpt>
      <trkpt lat="44.52589" lon="0.84326">
        <ele>192.4</ele>
        <time>2026-08-15T09:05:47Z</time>
      </trkpt>
      <trkpt lat="44.52591" lon="0.84329">
        <ele>192.4</ele>
        <time>2026-08-15T09:05:48Z</time>
      </trkpt>
      <trkpt lat="44.52593" lon="0.84333">
        <ele>192.4</ele>
        <time>2026-08-15T09:05:49Z</time>
      </trkpt>
      <trkpt lat="44.52595" lon="0.84335">
        <ele>192.4</ele>
        <time>2026-08-15T09:05:50Z</time>
      </trkpt>
      <trkpt lat="44.52597" lon="0.84337">
        <ele>192.4</ele>
        <time>2026-08-15T09:05:51Z</time>
      </trkpt>
      <trkpt lat="44.526" lon="0.84339">
        <ele>192.4</ele>
        <time>2026-08-15T09:05:52Z</time>
      </trkpt>
      <trkpt lat="44.52603" lon="0.8434">
        <ele>192.2</ele>
        <time>2026-08-15T09:05:53Z</time>
      </trkpt>
      <trkpt lat="44.52606" lon="0.84341">
        <ele>192.2</ele>
        <time>2026-08-15T09:05:54Z</time>
      </trkpt>
      <trkpt lat="44.52609" lon="0.84342">
        <ele>192.2</ele>
        <time>2026-08-15T09:05:55Z</time>
      </trkpt>
      <trkpt lat="44.52613" lon="0.84342">
        <ele>192</ele>
        <time>2026-08-15T09:05:56Z</time>
      </trkpt>
      <trkpt lat="44.52617" lon="0.84343">
        <ele>191.8</ele>
        <time>2026-08-15T09:05:57Z</time>
      </trkpt>
      <trkpt lat="44.52621" lon="0.84344">
        <ele>191.6</ele>
        <time>2026-08-15T09:05:58Z</time>
      </trkpt>
      <trkpt lat="44.52625" lon="0.84344">
        <ele>191.6</ele>
        <time>2026-08-15T09:05:59Z</time>
      </trkpt>
      <trkpt lat="44.52629" lon="0.84345">
        <ele>191.4</ele>
        <time>2026-08-15T09:06:00Z</time>
      </trkpt>
      <trkpt lat="44.52634" lon="0.84346">
        <ele>191.2</ele>
        <time>2026-08-15T09:06:01Z</time>
      </trkpt>
      <trkpt lat="44.52639" lon="0.84347">
        <ele>190.8</ele>
        <time>2026-08-15T09:06:02Z</time>
      </trkpt>
      <trkpt lat="44.52644" lon="0.84347">
        <ele>190.6</ele>
        <time>2026-08-15T09:06:03Z</time>
      </trkpt>
      <trkpt lat="44.52648" lon="0.84348">
        <ele>190.4</ele>
        <time>2026-08-15T09:06:04Z</time>
      </trkpt>
      <trkpt lat="44.52652" lon="0.84349">
        <ele>190.2</ele>
        <time>2026-08-15T09:06:05Z</time>
      </trkpt>
      <trkpt lat="44.52656" lon="0.84351">
        <ele>190.2</ele>
        <time>2026-08-15T09:06:06Z</time>
      </trkpt>
      <trkpt lat="44.5266" lon="0.84352">
        <ele>189.8</ele>
        <time>2026-08-15T09:06:07Z</time>
      </trkpt>
      <trkpt lat="44.52664" lon="0.84354">
        <ele>189.6</ele>
        <time>2026-08-15T09:06:08Z</time>
      </trkpt>
      <trkpt lat="44.52668" lon="0.84356">
        <ele>189.4</ele>
        <time>2026-08-15T09:06:09Z</time>
      </trkpt>
      <trkpt lat="44.5267" lon="0.84357">
        <ele>189.2</ele>
        <time>2026-08-15T09:06:10Z</time>
      </trkpt>
      <trkpt lat="44.52671" lon="0.84358">
        <ele>189</ele>
        <time>2026-08-15T09:06:11Z</time>
      </trkpt>
      <trkpt lat="44.52673" lon="0.84359">
        <ele>188.4</ele>
        <time>2026-08-15T09:06:36Z</time>
      </trkpt>
      <trkpt lat="44.52675" lon="0.8436">
        <ele>188.2</ele>
        <time>2026-08-15T09:06:37Z</time>
      </trkpt>
      <trkpt lat="44.52678" lon="0.84361">
        <ele>188</ele>
        <time>2026-08-15T09:06:38Z</time>
      </trkpt>
      <trkpt lat="44.52681" lon="0.84363">
        <ele>187.8</ele>
        <time>2026-08-15T09:06:39Z</time>
      </trkpt>
      <trkpt lat="44.52685" lon="0.84364">
        <ele>187.6</ele>
        <time>2026-08-15T09:06:40Z</time>
      </trkpt>
      <trkpt lat="44.52692" lon="0.84367">
        <ele>187.6</ele>
        <time>2026-08-15T09:06:41Z</time>
      </trkpt>
      <trkpt lat="44.52698" lon="0.84369">
        <ele>187.4</ele>
        <time>2026-08-15T09:06:42Z</time>
      </trkpt>
      <trkpt lat="44.52704" lon="0.84372">
        <ele>186.8</ele>
        <time>2026-08-15T09:06:43Z</time>
      </trkpt>
      <trkpt lat="44.5271" lon="0.84374">
        <ele>186.6</ele>
        <time>2026-08-15T09:06:44Z</time>
      </trkpt>
      <trkpt lat="44.52717" lon="0.84376">
        <ele>186.2</ele>
        <time>2026-08-15T09:06:45Z</time>
      </trkpt>
      <trkpt lat="44.52727" lon="0.84379">
        <ele>186</ele>
        <time>2026-08-15T09:06:46Z</time>
      </trkpt>
      <trkpt lat="44.52734" lon="0.84382">
        <ele>185.6</ele>
        <time>2026-08-15T09:06:47Z</time>
      </trkpt>
      <trkpt lat="44.52742" lon="0.84384">
        <ele>184.8</ele>
        <time>2026-08-15T09:06:48Z</time>
      </trkpt>
      <trkpt lat="44.5275" lon="0.84386">
        <ele>184.6</ele>
        <time>2026-08-15T09:06:49Z</time>
      </trkpt>
      <trkpt lat="44.52759" lon="0.84388">
        <ele>183.8</ele>
        <time>2026-08-15T09:06:50Z</time>
      </trkpt>
      <trkpt lat="44.52767" lon="0.84391">
        <ele>183.2</ele>
        <time>2026-08-15T09:06:51Z</time>
      </trkpt>
      <trkpt lat="44.52776" lon="0.84393">
        <ele>182.6</ele>
        <time>2026-08-15T09:06:52Z</time>
      </trkpt>
      <trkpt lat="44.52785" lon="0.84395">
        <ele>181.8</ele>
        <time>2026-08-15T09:06:53Z</time>
      </trkpt>
      <trkpt lat="44.52794" lon="0.84398">
        <ele>180.6</ele>
        <time>2026-08-15T09:06:54Z</time>
      </trkpt>
      <trkpt lat="44.52803" lon="0.84401">
        <ele>179.6</ele>
        <time>2026-08-15T09:06:55Z</time>
      </trkpt>
      <trkpt lat="44.52812" lon="0.84404">
        <ele>179.2</ele>
        <time>2026-08-15T09:06:56Z</time>
      </trkpt>
      <trkpt lat="44.52821" lon="0.84408">
        <ele>178.6</ele>
        <time>2026-08-15T09:06:57Z</time>
      </trkpt>
      <trkpt lat="44.52828" lon="0.84413">
        <ele>178.2</ele>
        <time>2026-08-15T09:06:58Z</time>
      </trkpt>
      <trkpt lat="44.52836" lon="0.84419">
        <ele>177.8</ele>
        <time>2026-08-15T09:06:59Z</time>
      </trkpt>
      <trkpt lat="44.52842" lon="0.84426">
        <ele>177.6</ele>
        <time>2026-08-15T09:07:00Z</time>
      </trkpt>
      <trkpt lat="44.52849" lon="0.84433">
        <ele>177.4</ele>
        <time>2026-08-15T09:07:01Z</time>
      </trkpt>
      <trkpt lat="44.52856" lon="0.84439">
        <ele>177.2</ele>
        <time>2026-08-15T09:07:02Z</time>
      </trkpt>
      <trkpt lat="44.52862" lon="0.84445">
        <ele>177.2</ele>
        <time>2026-08-15T09:07:03Z</time>
      </trkpt>
      <trkpt lat="44.52869" lon="0.84451">
        <ele>177</ele>
        <time>2026-08-15T09:07:04Z</time>
      </trkpt>
      <trkpt lat="44.52876" lon="0.84457">
        <ele>176.6</ele>
        <time>2026-08-15T09:07:05Z</time>
      </trkpt>
      <trkpt lat="44.52883" lon="0.84462">
        <ele>176.6</ele>
        <time>2026-08-15T09:07:06Z</time>
      </trkpt>
      <trkpt lat="44.52891" lon="0.84465">
        <ele>176.2</ele>
        <time>2026-08-15T09:07:07Z</time>
      </trkpt>
      <trkpt lat="44.52899" lon="0.84468">
        <ele>175.8</ele>
        <time>2026-08-15T09:07:08Z</time>
      </trkpt>
      <trkpt lat="44.52907" lon="0.8447">
        <ele>175.6</ele>
        <time>2026-08-15T09:07:09Z</time>
      </trkpt>
      <trkpt lat="44.52915" lon="0.8447">
        <ele>175.2</ele>
        <time>2026-08-15T09:07:10Z</time>
      </trkpt>
      <trkpt lat="44.52922" lon="0.84469">
        <ele>175</ele>
        <time>2026-08-15T09:07:11Z</time>
      </trkpt>
      <trkpt lat="44.52929" lon="0.84467">
        <ele>174.8</ele>
        <time>2026-08-15T09:07:12Z</time>
      </trkpt>
      <trkpt lat="44.52935" lon="0.84464">
        <ele>174.8</ele>
        <time>2026-08-15T09:07:13Z</time>
      </trkpt>
      <trkpt lat="44.5294" lon="0.84462">
        <ele>174.6</ele>
        <time>2026-08-15T09:07:14Z</time>
      </trkpt>
      <trkpt lat="44.52944" lon="0.84461">
        <ele>174.6</ele>
        <time>2026-08-15T09:07:15Z</time>
      </trkpt>
      <trkpt lat="44.52946" lon="0.8446">
        <ele>174.6</ele>
        <time>2026-08-15T09:07:16Z</time>
      </trkpt>
      <trkpt lat="44.52947" lon="0.8446">
        <ele>174.4</ele>
        <time>2026-08-15T09:07:17Z</time>
      </trkpt>
      <trkpt lat="44.52947" lon="0.8446">
        <ele>174.2</ele>
        <time>2026-08-15T09:07:18Z</time>
      </trkpt>
      <trkpt lat="44.52949" lon="0.84459">
        <ele>173.6</ele>
        <time>2026-08-15T09:08:32Z</time>
      </trkpt>
      <trkpt lat="44.52951" lon="0.84459">
        <ele>173.6</ele>
        <time>2026-08-15T09:08:33Z</time>
      </trkpt>
      <trkpt lat="44.52954" lon="0.84459">
        <ele>173.4</ele>
        <time>2026-08-15T09:08:34Z</time>
      </trkpt>
      <trkpt lat="44.52956" lon="0.84459">
        <ele>173.4</ele>
        <time>2026-08-15T09:08:35Z</time>
      </trkpt>
      <trkpt lat="44.52961" lon="0.84459">
        <ele>173.2</ele>
        <time>2026-08-15T09:08:36Z</time>
      </trkpt>
      <trkpt lat="44.52964" lon="0.8446">
        <ele>173.2</ele>
        <time>2026-08-15T09:08:37Z</time>
      </trkpt>
      <trkpt lat="44.52967" lon="0.84461">
        <ele>172.8</ele>
        <time>2026-08-15T09:08:38Z</time>
      </trkpt>
      <trkpt lat="44.5297" lon="0.84462">
        <ele>172.6</ele>
        <time>2026-08-15T09:08:39Z</time>
      </trkpt>
      <trkpt lat="44.52973" lon="0.84463">
        <ele>172.4</ele>
        <time>2026-08-15T09:08:40Z</time>
      </trkpt>
      <trkpt lat="44.52975" lon="0.84464">
        <ele>172.2</ele>
        <time>2026-08-15T09:08:41Z</time>
      </trkpt>
      <trkpt lat="44.52978" lon="0.84465">
        <ele>171.8</ele>
        <time>2026-08-15T09:08:42Z</time>
      </trkpt>
      <trkpt lat="44.52979" lon="0.84465">
        <ele>171.6</ele>
        <time>2026-08-15T09:08:43Z</time>
      </trkpt>
      <trkpt lat="44.52979" lon="0.84465">
        <ele>171.4</ele>
        <time>2026-08-15T09:08:44Z</time>
      </trkpt>
      <trkpt lat="44.52979" lon="0.84465">
        <ele>171</ele>
        <time>2026-08-15T09:08:45Z</time>
      </trkpt>
      <trkpt lat="44.52979" lon="0.84465">
        <ele>170.8</ele>
        <time>2026-08-15T09:08:46Z</time>
      </trkpt>
      <trkpt lat="44.52982" lon="0.84467">
        <ele>170.4</ele>
        <time>2026-08-15T09:09:11Z</time>
      </trkpt>
      <trkpt lat="44.52984" lon="0.84468">
        <ele>170.2</ele>
        <time>2026-08-15T09:09:12Z</time>
      </trkpt>
      <trkpt lat="44.52987" lon="0.84469">
        <ele>169.8</ele>
        <time>2026-08-15T09:09:13Z</time>
      </trkpt>
      <trkpt lat="44.52993" lon="0.84472">
        <ele>169.6</ele>
        <time>2026-08-15T09:09:14Z</time>
      </trkpt>
      <trkpt lat="44.52998" lon="0.84474">
        <ele>169.4</ele>
        <time>2026-08-15T09:09:15Z</time>
      </trkpt>
      <trkpt lat="44.53002" lon="0.84476">
        <ele>169.2</ele>
        <time>2026-08-15T09:09:16Z</time>
      </trkpt>
      <trkpt lat="44.53007" lon="0.84478">
        <ele>168.8</ele>
        <time>2026-08-15T09:09:17Z</time>
      </trkpt>
      <trkpt lat="44.53011" lon="0.84481">
        <ele>168.4</ele>
        <time>2026-08-15T09:09:18Z</time>
      </trkpt>
      <trkpt lat="44.53016" lon="0.84484">
        <ele>167.8</ele>
        <time>2026-08-15T09:09:19Z</time>
      </trkpt>
      <trkpt lat="44.53021" lon="0.84487">
        <ele>167.4</ele>
        <time>2026-08-15T09:09:20Z</time>
      </trkpt>
      <trkpt lat="44.53029" lon="0.84492">
        <ele>167</ele>
        <time>2026-08-15T09:09:21Z</time>
      </trkpt>
      <trkpt lat="44.53035" lon="0.84497">
        <ele>166.6</ele>
        <time>2026-08-15T09:09:22Z</time>
      </trkpt>
      <trkpt lat="44.53042" lon="0.84501">
        <ele>165.8</ele>
        <time>2026-08-15T09:09:23Z</time>
      </trkpt>
      <trkpt lat="44.5305" lon="0.84506">
        <ele>164.6</ele>
        <time>2026-08-15T09:09:24Z</time>
      </trkpt>
      <trkpt lat="44.53058" lon="0.84511">
        <ele>164</ele>
        <time>2026-08-15T09:09:25Z</time>
      </trkpt>
      <trkpt lat="44.53067" lon="0.84517">
        <ele>163.4</ele>
        <time>2026-08-15T09:09:26Z</time>
      </trkpt>
      <trkpt lat="44.53076" lon="0.84522">
        <ele>162.8</ele>
        <time>2026-08-15T09:09:27Z</time>
      </trkpt>
      <trkpt lat="44.53085" lon="0.84527">
        <ele>162.2</ele>
        <time>2026-08-15T09:09:28Z</time>
      </trkpt>
      <trkpt lat="44.53094" lon="0.84532">
        <ele>161.2</ele>
        <time>2026-08-15T09:09:29Z</time>
      </trkpt>
      <trkpt lat="44.53104" lon="0.84536">
        <ele>160.6</ele>
        <time>2026-08-15T09:09:30Z</time>
      </trkpt>
      <trkpt lat="44.53114" lon="0.84541">
        <ele>159.8</ele>
        <time>2026-08-15T09:09:31Z</time>
      </trkpt>
      <trkpt lat="44.53123" lon="0.84545">
        <ele>159.2</ele>
        <time>2026-08-15T09:09:32Z</time>
      </trkpt>
      <trkpt lat="44.53133" lon="0.84548">
        <ele>158.6</ele>
        <time>2026-08-15T09:09:33Z</time>
      </trkpt>
      <trkpt lat="44.53143" lon="0.84552">
        <ele>157.8</ele>
        <time>2026-08-15T09:09:34Z</time>
      </trkpt>
      <trkpt lat="44.53152" lon="0.84555">
        <ele>157.2</ele>
        <time>2026-08-15T09:09:35Z</time>
      </trkpt>
      <trkpt lat="44.53162" lon="0.84558">
        <ele>156.6</ele>
        <time>2026-08-15T09:09:36Z</time>
      </trkpt>
      <trkpt lat="44.53171" lon="0.84561">
        <ele>156.4</ele>
        <time>2026-08-15T09:09:37Z</time>
      </trkpt>
      <trkpt lat="44.53179" lon="0.84564">
        <ele>156.2</ele>
        <time>2026-08-15T09:09:38Z</time>
      </trkpt>
      <trkpt lat="44.53187" lon="0.84567">
        <ele>155.8</ele>
        <time>2026-08-15T09:09:39Z</time>
      </trkpt>
      <trkpt lat="44.53195" lon="0.8457">
        <ele>155.2</ele>
        <time>2026-08-15T09:09:40Z</time>
      </trkpt>
      <trkpt lat="44.53204" lon="0.84572">
        <ele>154.6</ele>
        <time>2026-08-15T09:09:41Z</time>
        <extensions>
          <visugpx:TrkExtension xmlns:visugpx="https://www.visugpx.com/editgpx/">
            <visugpx:node>1</visugpx:node>
            </visugpx:TrkExtension>
        </extensions>
      </trkpt>
    </trkseg>
  </trk>
</gpx>